[[{"header":{"parameterUnit":"m.s-1","parameterCategory":1,"la1":31.0,"la2":29.5877,"lo1":-88.7671,"lo2":-86.6584,"dy":0.0162,"dx":0.0185,"nx":115,"ny":88,"refTime":"2024-07-31T12:00:00:Z","depth":0,"parameterNumber":2,"parameterNumberName":"U-component_of_WINDS"},"data":[0.0,0.0,0.0,0.0,0.0,0.0,0.0,0.0,0.0,0.0,0.0,0.0,0.0,0.0,0.0,0.0,0.0,0.0,0.0,0.0,0.0,0.0,0.0,0.0,0.0,0.0,0.0,0.0,0.0,0.0,0.0,0.0,0.0,0.0,0.0,0.0,0.0,0.0,0.0,0.0,0.0,0.0,0.0,0.0,0.0,0.0,0.0,0.0,0.0,0.0,0.0,0.0,0.0,0.0,0.0,0.0,0.0,0.0,0.0,0.0,0.0,0.0,0.0,0.0,0.0,0.0,0.0,0.0,0.0,0.0,0.0,0.0,0.0,0.0,0.0,0.0,0.0,0.0,0.0,0.0,0.0,0.0,0.0,0.0,0.0,0.0,0.0,0.0,0.0,0.0,0.0,0.0,0.0,0.0,0.0,0.0,0.0,0.0,0.0,0.0,0.0,0.0,0.0,0.0,0.0,0.0,0.0,0.0,0.0,0.0,0.0,0.0,0.0,0.0,0.0,0.0,0.0,0.0,0.0,0.0,0.0,0.0,0.0,0.0,0.0,0.0,0.0,0.0,0.0,0.0,0.0,0.0,0.0,0.0,0.0,0.0,0.0,0.0,0.0,0.0,0.0,0.0,0.0,0.0,0.0,0.0,0.0,0.0,0.0,0.0,0.0,0.0,0.0,0.0,0.0,0.0,0.0,0.0,0.0,0.0,0.0,0.0,0.0,0.0,0.0,0.0,0.0,0.0,0.0,0.0,0.0,0.0,0.0,0.0,0.0,0.0,0.0,0.0,0.0,0.0,0.0,0.0,0.0,0.0,0.0,0.0,0.0,0.0,0.0,0.0,0.0,0.0,0.0,0.0,0.0,0.0,0.0,0.0,0.0,0.0,0.0,0.0,0.0,0.0,0.0,0.0,0.0,0.0,0.0,0.0,0.0,0.0,0.0,0.0,0.0,0.0,0.0,0.0,0.0,0.0,0.0,0.0,0.0,0.0,0.0,0.0,0.0,0.0,0.0,0.0,0.0,0.0,0.0,0.0,0.0,0.0,0.0,0.0,0.0,0.0,0.0,0.0,0.0,0.0,0.0,0.0,0.0,0.0,0.0,0.0,0.0,0.0,0.0,0.0,0.0,0.0,0.0,0.0,0.0,0.0,0.0,0.0,0.0,0.0,0.0,0.0,0.0,0.0,0.0,0.0,0.0,0.0,0.0,0.0,0.0,0.0,0.0,0.0,0.0,0.0,0.0,0.0,0.0,0.0,0.0,0.0,0.0,0.0,0.0,0.0,0.0,0.0,0.0,0.0,0.0,0.0,0.0,0.0,0.0,0.0,0.0,0.0,0.0,0.0,0.0,0.0,0.0,0.0,0.0,0.0,0.0,0.0,0.0,0.0,0.0,0.0,0.0,0.0,0.0,0.0,0.0,0.0,0.0,0.0,0.0,0.0,0.0,0.0,0.0,0.0,0.0,0.0,0.0,0.0,0.0,0.0,0.0,0.0,0.0,0.0,0.0,0.0,0.0,0.0,0.0,0.0,0.0,0.0,0.0,0.0,0.0,0.0,0.0,0.0,0.0,0.0,0.0,0.0,0.0,0.0,0.0,0.0,0.0,0.0,0.0,0.0,0.0,0.0,0.0,0.0,0.0,0.0,0.0,0.0,0.0,0.0,0.0,0.0,0.0,0.0,0.0,0.0,0.0,0.0,0.0,0.0,0.0,0.0,0.0,0.0,0.0,0.0,0.0,0.0,0.0,0.0,0.0,0.0,0.0,0.0,0.0,0.0,0.0,0.0,0.0,0.0,0.0,0.0,0.0,0.0,0.0,0.0,0.0,0.0,0.0,0.0,0.0,0.0,0.0,0.0,0.0,0.0,0.0,0.0,0.0,0.0,0.0,0.0,0.0,0.0,0.0,0.0,0.0,0.0,0.0,0.0,0.0,0.0,0.0,0.0,0.0,0.0,0.0,0.0,0.0,0.0,0.0,0.0,0.0,0.0,0.0,0.0,0.0,0.0,0.0,0.0,0.0,0.0,0.0,0.0,0.0,0.0,0.0,0.0,0.0,0.0,0.0,0.0,0.0,0.0,0.0,0.0,0.0,0.0,0.0,0.0,0.0,0.0,0.0,0.0,0.0,0.0,0.0,0.0,0.0,0.0,0.0,0.0,0.0,0.0,0.0,0.0,0.0,0.0,0.0,0.0,0.0,0.0,0.0,0.0,0.0,0.0,0.0,0.0,0.0,0.0,0.0,0.0,0.0,0.0,0.0,0.0,0.0,0.0,0.0,0.0,0.0,0.0,0.0,0.0,0.0,0.0,0.0,0.0,0.0,0.0,0.0,0.0,0.0,0.0,0.0,0.0,0.0,0.0,0.0,0.0,0.0,0.0,0.0,0.0,0.0,0.0,0.0,0.0,0.0,0.0,0.0,0.0,0.0,0.0,0.0,0.0,0.0,0.0,0.0,0.0,0.0,0.0,0.0,0.0,0.0,0.0,0.0,0.0,0.0,0.0,0.0,0.0,0.0,0.0,0.0,0.0,0.0,0.0,0.0,0.0,0.0,0.0,0.0,0.0,0.0,0.0,0.0,0.0,0.0,0.0,0.0,0.0,0.0,0.0,0.0,0.0,0.0,0.0,0.0,0.0,0.0,0.0,0.0,0.0,0.0,0.0,0.0,0.0,0.0,0.0,0.0,0.0,0.0,0.0,0.0,0.0,0.0,0.0,0.0,0.0,0.0,0.0,0.0,0.0,0.0,0.0,0.0,0.0,0.0,0.0,0.0,0.0,0.0,0.0,0.0,0.0,0.0,0.0,0.0,0.0,0.0,0.0,0.0,0.0,0.0,0.0,0.0,0.0,0.0,0.0,0.0,0.0,0.0,0.0,0.0,0.0,0.0,0.0,0.0,0.0,0.0,0.0,0.0,0.0,0.0,0.0,0.0,0.0,0.0,0.0,0.0,0.0,0.0,0.0,0.0,0.0,0.0,0.0,0.0,0.0,0.0,0.0,0.0,0.0,0.0,0.0,0.0,0.0,0.0,0.0,0.0,0.0,0.0,0.0,0.0,0.0,0.0,0.0,0.0,0.0,0.0,0.0,0.0,0.0,0.0,0.0,0.0,0.0,0.0,0.0,0.0,0.0,0.0,0.0,0.0,0.0,0.0,0.0,0.0,0.0,0.0,0.0,0.0,0.0,0.0,0.0,0.0,0.0,0.0,0.0,0.0,0.0,0.0,0.0,0.0,0.0,0.0,0.0,0.0,0.0,0.0,0.0,0.0,0.0,0.0,0.0,0.0,0.0,0.0,0.0,0.0,0.0,0.0,0.0,0.0,0.0,0.0,0.0,0.0,0.0,0.0,0.0,0.0,0.0,0.0,0.0,0.0,0.0,0.0,0.0,0.0,0.0,0.0,0.0,0.0,0.0,0.0,0.0,0.0,0.0,0.0,0.0,0.0,0.0,0.0,0.0,0.0,0.0,0.0,0.0,0.0,0.0,0.0,0.0,0.0,0.0,0.0,0.0,0.0,0.0,0.0,0.0,0.0,0.0,0.0,0.0,0.0,0.0,0.0,0.0,0.0,0.0,0.0,0.0,0.0,0.0,0.0,0.0,0.0,0.0,0.0,0.0,0.0,0.0,0.0,0.0,0.0,0.0,0.0,0.0,0.0,0.0,0.0,0.0,0.0,0.0,0.0,0.0,0.0,0.0,0.0,0.0,0.0,0.0,0.0,0.0,0.0,0.0,0.0,0.0,0.0,0.0,0.0,0.0,0.0,0.0,0.0,0.0,0.0,0.0,0.0,0.0,0.0,0.0,0.0,0.0,0.0,0.0,0.0,0.0,0.0,0.0,0.0,0.0,0.0,0.0,0.0,0.0,0.0,0.0,0.0,0.0,0.0,0.0,0.0,0.0,0.0,0.0,0.0,0.0,0.0,0.0,0.0,0.0,0.0,0.0,0.0,0.0,0.0,0.0,0.0,0.0,0.0,0.0,0.0,0.0,0.0,0.0,0.0,0.0,0.0,0.0,0.0,0.0,0.0,0.0,0.0,0.0,0.0,0.0,0.0,0.0,0.0,0.0,0.0,0.0,0.0,0.0,0.0,0.0,0.0,0.0,0.0,0.0,0.0,0.0,0.0,0.0,0.0,0.0,0.0,0.0,0.0,0.0,0.0,0.0,0.0,0.0,0.0,0.0,0.0,0.0,0.0,0.0,0.0,0.0,0.0,0.0,0.0,0.0,0.0,0.0,0.0,0.0,0.0,0.0,0.0,0.0,0.0,0.0,-0.0,0.0,0.0,0.0,0.0,0.0,0.0,0.0,0.0,0.0,0.0,0.0,0.0,0.0,0.0,0.0,0.0,0.0,0.0,0.0,0.0,0.0,0.0,0.0,0.0,0.0,0.0,0.0,0.0,0.0,0.0,0.0,0.0,0.0,0.0,0.0,0.0,0.0,0.0,0.0,0.0,0.0,0.0,0.0,0.0,0.0,0.0,0.0,0.0,0.0,0.0,0.0,0.0,0.0,0.0,0.0,0.0,0.0,0.0,0.0,0.0,0.0,0.0,0.0,0.0,0.0,0.0,0.0,0.0,0.0,0.0,0.0,0.0,0.0,0.0,0.0,0.0,0.0,0.0,0.0,0.0,0.0,0.0,0.0,0.0,0.0,0.0,0.0,0.0,0.0,0.0,0.0,0.0,0.0,0.0,0.0,0.0,0.0,0.0,0.0,0.0,0.0,0.0,0.0,0.0,0.0,0.0,0.0,0.0,0.0,0.0,-0.0,-0.0,-0.0,-0.0,-0.0,0.0,0.0,0.0,0.0,0.0,0.0,0.0,0.0,0.0,0.0,0.0,0.0,0.0,0.0,0.0,0.0,0.0,0.0,0.0,0.0,0.0,0.0,0.0,0.0,0.0,0.0,0.0,0.0,0.0,0.0,0.0,0.0,0.0,0.0,0.0,0.0,0.0,0.0,0.0,0.0,0.0,0.0,0.0,0.0,0.0,0.0,0.0,0.0,0.0,0.0,0.0,0.0,0.0,0.0,0.0,0.0,0.0,0.0,0.0,0.0,0.0,0.0,0.0,0.0,0.0,0.0,0.0,0.0,0.0,0.0,0.0,0.0,0.0,0.0,0.0,0.0,0.0,0.0,0.0,0.0,0.0,0.0,0.0,0.0,0.0,0.0,0.0,0.0,0.0,0.0,0.0,0.0,0.0,0.0,0.0,0.0,0.0,0.0,0.0,0.0,0.0,0.0,0.0,0.0,0.0,0.0,0.0,0.0,0.0,0.0,0.0,0.0,0.0393,0.0401,0.0218,0.0,0.0,0.0,0.0,0.0,0.0,0.0,0.0,0.0,0.0,0.0,0.0,0.0,0.0,0.0,0.0,0.0,0.0,0.0,0.0,0.0,0.0,0.0,0.0,0.0,0.0,0.0,0.0,0.0,0.0,0.0,0.0,0.0,0.0,0.0,0.0,0.0,0.0,0.0,0.0,0.0,0.0,0.0,0.0,0.0,0.0,0.0,0.0,0.0,0.0,0.0,0.0,0.0,0.0,0.0,0.0,0.0,0.0,0.0,0.0,0.0,0.0,0.0,0.0,0.0,0.0,0.0,0.0,0.0,0.0,0.0,0.0,0.0,0.0,0.0,0.0,0.0,0.0,0.0,0.0,0.0,0.0,0.0,0.0,0.0,0.0,0.0,0.0,0.0,0.0,0.0,0.0,0.0,0.0,0.0,0.0,0.0,0.0,0.0,0.0,0.0,0.0,0.0,0.0,0.0,0.0,0.0,0.0,0.0,0.0,0.083,0.0854,0.1597,0.0,0.0883,0.0,0.0,0.0,0.0,0.0,0.0,0.0,0.0,0.0,0.0,0.0,0.0,0.0,0.0,0.0,0.0,0.0,0.0,0.0,0.0,0.0,0.0,0.0,0.0,0.0,0.0,0.0,0.0,0.0,0.0,0.0,0.0,0.0,0.0,0.0,0.0,0.0,0.0,0.0,0.0,0.0,0.0,0.0,0.0,0.0,0.0,0.0,0.0,0.0,0.0,0.0,0.0,0.0,0.0,0.0,0.0,0.0,0.0,0.0,0.0,0.0,0.0,0.0,0.0,0.0,0.0,0.0,0.0,0.0,0.0,0.0,0.0,0.0,0.0,0.0,0.0,0.0,0.0,0.0,0.0,0.0,0.0,0.0,0.0,0.0,0.0,0.0,0.0,0.0,0.0,0.0,0.0,0.0,0.0,0.0,0.0,0.0,0.0,0.0,0.0,0.0,0.0,0.0,0.0,0.0,0.0,0.0,0.0,0.0,0.0,0.2766,0.2221,0.2541,0.2572,0.0,0.0,0.0,0.0,0.0,0.0,0.0,0.0,0.0,0.0,0.0,0.0,0.0,0.0,0.0,0.0,0.0,0.0,0.0,0.0,0.0,0.0,0.0,0.0,0.0,0.0,0.0,0.0,0.0,0.0,0.0,0.0,0.0,0.0,0.0,0.0,0.0,0.0,0.0,0.0,0.0,0.0,0.0,0.0,0.0,0.0,0.0,0.0,0.0,0.0,0.0,0.0,0.0,0.0,0.0,0.0,0.0,0.0,0.0,0.0,0.0,0.0,0.0,0.0,0.0,0.0,0.0,0.0,0.0,0.0,0.0,0.0,0.0,0.0,0.0,0.0,0.0,0.0,0.0,0.0,0.0,0.0,0.0,0.0,0.0,0.0,0.0,0.0,0.0,0.0,0.0,0.0,0.0,0.0,0.0,0.0,0.0,0.0,0.0,0.0,0.0,0.0,0.0,0.0,0.0,0.0,0.0,0.0,0.0,0.0,0.3378,0.0,0.3132,0.308,0.3034,0.2932,0.0,0.0,0.0,0.0,0.0,0.0,0.0,0.0,0.0,0.0,0.0,0.0,0.0,0.0,0.0,0.0,0.0,0.0,0.0,0.0,0.0,0.0,0.0,0.0,0.0,0.0,0.0,0.0,0.0,0.0,0.0,0.0,0.0,0.0,0.0,0.0,0.0,0.0,0.0,0.0,0.0,0.0,0.0,0.0,0.0,0.0,0.0,0.0,0.0,0.0,0.0,0.0,0.0,0.0,0.0,0.0,0.0,0.0,0.0,0.0,0.0,0.0,0.0,0.0,0.0,0.0,0.0,0.0,0.0,0.0,0.0,0.0,0.0,0.0,0.0,0.0,0.0,0.0,0.0,0.0,0.0,0.0,0.0,0.0,0.0,0.0,0.0,0.0,0.0,0.0,0.0,0.0,0.0,0.0,0.0,0.0,0.0,0.0,0.0,0.0,0.0,0.0,0.0,0.0,0.0,0.0,0.0,0.0,0.0,0.2856,0.2746,0.3083,0.2964,0.2791,0.0,0.0,0.0,0.0,0.0,0.0,0.0,0.0,0.0,0.0,0.0,0.0,0.0,0.0,0.0,0.0,0.0,0.0,0.0,0.0,0.0,0.0,0.0,0.0,0.0,0.0,0.0,0.0,0.0,0.0,0.0,0.0,0.0,0.0,0.0,0.0,0.0,0.0,0.0,0.0,0.0,0.0,0.0,0.0,0.0,0.0,0.0,0.0,0.0,0.0,0.0,0.0,0.0,0.0,0.0,0.0,0.0,0.0,0.0,0.0,0.0,0.0,0.0,0.0,0.0,0.0,0.0,0.0,0.0,0.0,0.0,0.0,0.0,0.0,0.0,0.0,0.0,0.0,0.0,0.0,0.0,0.0,0.0,0.0,0.0,0.0,0.0,0.0,0.0,0.0,0.0,0.0,0.0,0.0,0.0,0.0,0.0,0.0,0.0,0.0,0.0,0.0,0.0,0.0,0.0,0.0,0.0,0.0,0.0,0.2362,0.2445,0.2795,0.3364,0.2936,0.2688,0.0,0.0,0.0,0.0,0.0,0.0,0.0,0.0,0.0,0.0,0.0,0.0,0.0,0.0,0.0,0.0,0.0,0.0,0.0,0.0,0.0,0.0,0.0,0.0,0.0,0.0,0.0,0.0,0.0,0.0,0.0,0.0,0.0,0.0,0.0,0.0,0.0,0.0,0.0,0.0,0.0,0.0,0.0,0.0,0.0,0.0,0.0,0.0,0.0,0.0,0.0,0.0,0.0,0.0,0.0,0.0,0.0,0.0,0.0,0.0,0.0,0.0,0.0,0.0,0.0,0.0,0.0,0.0,0.0,0.0,0.0,0.0,0.0,0.0,0.0,0.0,0.0,0.0,0.0,0.0,0.0,0.0,0.0,0.0,0.0,0.0,0.0,0.0,0.0,0.0,0.0,0.0,0.0,0.0,0.0,0.0,0.0,0.0,0.0,0.0,0.0,0.0,0.0,0.0,0.0,0.0,0.0,0.0,0.0,0.2675,0.0,0.3201,0.0,0.3123,0.269,0.0,0.0,0.0,0.0,0.0,0.0,0.0,0.0,0.0,0.0,0.0,0.0,0.0,0.0,0.0,0.0,0.0,0.0,0.0,0.0,0.0,0.0,0.0,0.0,0.0,0.0,0.0,0.0,0.0,0.0,0.0,0.0,0.0,0.0,0.0,0.0,0.0,0.0,0.0,0.0,0.0,0.0,0.0,0.0,0.0,0.0,0.0,0.0,0.0,0.0,0.0,0.0,0.0,0.0,0.0,0.0,0.0,0.0,0.0,0.0,0.0,0.0,0.0,0.0,0.0,0.0,0.0,0.0,0.0,0.0,0.0,0.0,0.0,0.0,0.0,0.0,0.0,0.0,0.0,0.0,0.0,0.0,0.0,0.0,0.0,0.0,0.0,0.0,0.0,0.0,0.0,0.0,0.0,0.0,0.0,0.0,0.0,0.0,0.0,0.0,0.0,0.0,0.0,0.0,0.0,0.0,0.0,0.0,0.2986,0.4465,0.3908,0.3924,0.4537,0.3621,0.2841,0.0,0.0,0.0,0.0,0.0,0.0,0.0,0.0,0.0,0.0,0.0,0.0,0.0,0.0,0.0,0.0,0.0,0.0,0.0,0.0,0.0,0.0,0.0,0.0,0.0,0.0,0.0,0.0,0.0,0.0,0.0,0.0,0.0,0.0,0.0,0.0,0.0,0.0,0.0,0.0,0.0,0.0,0.0,0.0,0.0,0.0,0.0,0.0,0.0,0.0,0.0,0.0,0.0,0.0,0.0,0.0,0.0,0.0,0.0,0.0,0.0,0.0,0.0,0.0,0.0,0.0,0.0,0.0,0.0,0.0,0.0,0.0,0.0,0.0,0.0,0.0,0.0,0.0,0.0,0.0,0.0,0.0,0.0,0.0,0.0,0.0,0.0,0.0,0.0,0.0,0.0,0.0,0.0,0.0,0.0,0.0,0.0,0.0,0.0,0.0,0.0,0.0,0.0,0.0,0.0,0.0,0.0,0.0,0.0,0.3704,0.4209,0.4701,0.5034,0.4207,0.3735,0.0,0.0,0.0,0.0,0.0,0.0,0.0,0.0,0.0,0.0,0.0,0.0,0.0,0.0,0.0,0.0,0.0,0.0,0.0,0.0,0.0,0.0,0.0,0.0,0.0,0.0,0.0,0.0,0.0,0.0,0.0,0.0,0.0,0.0,0.0,0.0,0.0,0.0,0.0,0.0,0.0,0.0,0.0,0.0,0.0,0.0,0.0,0.0,0.0,0.0,0.0,0.0,0.0,0.0,0.0,0.0,0.0,0.0,0.0,0.0,0.0,0.0,0.0,0.0,0.0,0.0,0.0,0.0,0.0,0.0,0.0,0.0,0.0,0.0,0.0,0.0,0.0,0.0,0.0,0.0,0.0,0.0,0.0,0.0,0.0,0.0,0.0,0.0,0.0,0.0,0.0,0.0,0.0,0.0,0.0,0.0,0.0,0.0,0.0,0.0,0.0,0.0,0.0,0.0,0.0,0.0,0.0,0.0,0.0,0.4644,0.5262,0.582,0.6269,0.5193,0.4599,0.4543,0.0,0.0,0.0,0.0,0.0,0.0,0.0,0.0,0.0,0.0,0.0,0.0,0.0,0.0,0.0,0.0,0.0,0.0,0.0,0.0,0.0,0.0,0.0,0.0,0.0,0.0,0.0,0.0,0.0,0.0,0.0,0.0,0.0,0.0,0.0,0.0,0.0,0.0,0.0,0.0,0.0,0.0,0.0,0.0,0.0,0.0,0.0,0.0,0.0,0.0,0.0,0.0,0.0,0.0,0.0,0.0,0.0,0.0,0.0,0.0,0.0,0.0,0.0,0.0,0.0,0.0,0.0,0.0,0.0,0.0,0.0,0.0,0.0,0.0,0.0,0.0,0.0,0.0,0.0,0.0,0.0,0.0,0.0,0.0,0.0,0.0,0.0,0.0,0.0,0.0,0.0,0.0,0.0,0.0,0.0,0.0,0.0,0.0,0.0,0.0,0.0,0.0,0.0,0.0,0.0,0.0,0.0,0.0,0.6887,0.6962,0.7309,0.7913,0.6551,0.5518,0.0,0.0,0.0,0.0,0.0,0.0,0.0,0.0,0.0,0.0,0.0,0.0,0.0,0.0,0.0,0.0,0.0,0.0,0.0,0.0,0.0,0.0,0.0,0.0,0.0,0.0,0.0,0.0,0.0,0.0,0.0,0.0,0.0,0.0,0.0,0.0,0.0,0.0,0.0,0.0,0.0,0.0,0.0,0.0,0.0,0.0,0.0,0.0,0.0,0.0,0.0,0.0,0.0,0.0,0.0,0.0,0.0,0.0,0.0,0.0,0.0,0.0,0.0,0.0,0.0,0.0,0.0,0.0,0.0,0.0,0.0,0.0,0.0,0.0,0.0,0.0,0.0,0.0,0.0,0.0,0.0,0.0,0.0,0.0,0.0,0.0,0.0,0.0,0.0,0.0,0.0,0.0,0.0,0.0,0.0,0.0,0.0,0.0,0.0,0.0,0.0,0.0,0.0,0.0,0.0,0.0,0.0,0.0,0.0,0.8241,0.8914,0.9087,0.8844,0.7675,0.6859,0.0,0.0,0.0,0.0,0.0,0.0,0.0,0.0,0.0,0.0,0.0,0.0,0.0,0.0,0.0,0.0,0.0,0.0,0.0,0.0,0.0,0.0,0.0,0.0,0.0,0.0,0.0,0.0,0.0,0.0,0.0,0.0,0.0,0.0,0.0,0.0,0.0,0.0,0.0,0.0,0.0,0.0,0.0,0.0,0.0,0.0,0.0,0.0,0.0,0.0,0.0,0.0,0.0,0.0,0.0,0.0,0.0,0.0,0.0,0.0,0.0,0.0,0.0,0.0,0.0,0.0,0.0,0.0,0.0,0.0,0.0,0.0,0.0,0.0,0.0,0.0,0.0,0.0,0.0,0.0,0.0,0.0,0.0,0.0,0.0,0.0,0.0,0.0,0.0,0.0,0.0,0.0,0.0,0.0,0.0,0.0,0.0,0.0,0.0,0.0,0.0,0.0,0.0,0.0,0.0,0.0,0.0,0.0,0.8277,0.9165,1.0033,1.0321,0.9987,0.8711,0.7769,0.0,0.0,0.0,0.0,0.0,0.0,0.0,0.0,0.0,0.0,0.0,0.0,0.0,0.0,0.0,0.0,0.0,0.0,0.0,0.0,0.0,0.0,0.0,0.0,0.0,0.0,0.0,0.0,0.0,0.0,0.0,0.0,0.0,0.0,0.0,0.0,0.0,0.0,0.0,0.0,0.0,0.0,0.0,0.0,0.0,0.0,0.0,0.0,0.0,0.0,0.0,0.0,0.0,0.0,0.0,0.0,0.0,0.0,0.0,0.0,0.0,0.0,0.0,0.0,0.0,0.0,0.0,0.0,0.0,0.0,0.0,0.0,0.0,0.0,0.0,0.0,0.0,0.0,0.0,0.0,0.0,0.0,0.0,0.0,0.0,0.0,0.0,0.0,0.0,0.0,0.0,0.0,0.0,0.0,0.0,0.0,0.0,0.0,0.0,0.0,0.0,0.0,0.0,0.0,0.0,0.0,0.0,0.0,0.8878,0.9713,1.0588,1.1035,1.1002,0.9653,0.8477,0.0,0.0,0.0,0.0,0.0,0.0,0.0,0.0,0.0,0.0,0.0,0.0,0.0,0.0,0.0,0.0,0.0,0.0,0.0,0.0,0.0,0.0,0.0,0.0,0.0,0.0,0.0,0.0,0.0,0.0,0.0,0.0,0.0,0.0,0.0,0.0,0.0,0.0,0.0,0.0,0.0,0.0,0.0,0.0,0.0,0.0,0.0,0.0,0.0,0.0,0.0,0.0,0.0,0.0,0.0,0.0,0.0,0.0,0.0,0.0,0.0,0.0,0.0,0.0,0.0,0.0,0.0,0.0,0.0,0.0,0.0,0.0,0.0,0.0,0.0,0.0,0.0,0.0,0.0,0.0,0.0,0.0,0.0,0.0,0.0,0.0,0.0,0.0,0.0,0.0,0.0,0.0,0.0,0.0,0.0,0.0,0.0,0.0,0.0,0.0,0.0,0.0,0.0,0.0,0.0,0.0,0.0,0.0,0.9365,1.002,1.0882,1.1336,1.1329,1.014,0.9085,0.0,0.0,0.0,0.0,0.0,0.0,0.0,0.0,0.0,0.0,0.0,0.0,0.0,0.0,0.0,0.0,0.0,0.0,0.0,0.0,0.0,0.0,0.0,0.0,0.0,0.0,0.0,0.0,0.0,0.0,0.0,0.0,0.0,0.0,0.0,0.0,0.0,0.0,0.0,0.0,0.0,0.0,0.0,0.0,0.0,0.0,0.0,0.0,0.6447,0.0,0.0,0.0,0.0,0.0,0.0,0.0,0.0,0.0,0.0,0.0,0.0,0.0,0.0,0.0,0.0,0.0,0.0,0.0,0.0,0.0,0.0,0.0,0.0,0.0,0.0,0.0,0.0,0.0,0.0,0.0,0.0,0.0,0.0,0.0,0.0,0.0,0.0,0.0,0.0,0.0,0.0,0.0,0.0,0.0,0.0,0.0,0.0,0.0,0.0,0.0,0.0,0.0,0.0,0.0,0.0,0.0,0.0,0.0,0.98,1.0514,1.1249,1.1637,1.1603,1.0762,0.976,0.0,0.0,0.0,0.0,0.0,0.0,0.0,0.0,0.0,0.0,0.0,0.0,0.0,0.0,0.0,0.0,0.0,0.0,0.0,0.0,0.0,0.0,0.0,0.0,0.0,0.0,0.0,0.0,0.0,0.0,0.0,0.0,0.0,0.0,0.0,0.0,0.0,0.0,0.0,0.0,0.0,0.0,0.0,0.0,0.0,0.0,0.0,0.0,0.0,0.0,0.0,0.0,0.0,0.0,0.0,0.0,0.0,0.0,0.0,0.0,0.0,0.0,0.0,0.0,0.0,0.0,0.0,0.0,0.0,0.0,0.0,0.0,0.0,0.0,0.0,0.0,0.0,0.0,0.0,0.0,0.0,0.0,0.0,0.0,0.0,0.0,0.0,0.0,0.0,0.0,0.0,0.0,0.0,0.0,0.0,0.0,0.0,0.0,0.0,0.0,0.0,0.0,0.0,0.0,0.0,0.0,0.0,0.8998,1.0134,1.1029,1.1637,1.2009,1.1924,1.1329,1.0347,0.8991,0.0,0.0,0.0,0.0,0.0,0.0,0.0,0.0,0.0,0.0,0.0,0.0,0.0,0.0,0.0,0.0,0.0,0.0,0.0,0.0,0.0,0.0,0.0,0.0,0.0,0.0,0.0,0.0,0.0,0.0,0.0,0.0,0.0,0.0,0.0,0.0,0.0,0.0,0.5329,0.5504,0.0,0.0,0.0,0.0,0.0,0.0,0.0,0.0,0.8325,0.0,0.0,0.0,0.0,0.0,0.0,0.0,0.0,0.0,0.0,0.0,0.0,0.0,0.0,0.0,0.0,0.0,0.0,0.0,0.0,0.0,0.0,0.0,0.0,0.0,0.0,0.0,0.0,0.0,0.0,0.0,0.0,0.0,0.0,0.0,0.0,0.0,0.0,0.0,0.0,0.0,0.0,0.0,0.0,0.0,0.0,0.0,0.0,0.0,0.0,0.0,0.0,0.0,0.0,0.0,0.0,0.8557,0.9312,1.0227,1.1329,1.1931,1.2231,1.2204,1.143,1.0534,0.9552,0.0,0.0,0.0,0.0,0.0,0.0,0.0,0.0,0.0,0.0,0.0,0.0,0.0,0.0,0.0,0.0,0.0,0.0,0.0,0.0,0.0,0.0,0.0,0.0,0.0,0.0,0.0,0.0,0.0,0.0,0.0,0.0,0.0,0.0,0.0,0.0,0.0,0.0,0.0,0.6454,0.7224,0.0,0.0,0.0,0.0,0.0,0.0,0.0,0.0,1.1796,0.0,0.0,0.0,0.0,0.0,0.0,0.0,0.0,0.0,0.0,0.0,0.0,0.0,0.0,0.0,0.0,0.0,0.0,0.0,0.0,0.0,0.0,0.0,0.0,0.0,0.0,0.0,0.0,0.0,0.0,0.0,0.0,0.0,0.0,0.0,0.0,0.0,0.0,0.0,0.0,0.0,0.0,0.0,0.0,0.0,0.0,0.0,0.0,0.0,0.0,0.0,0.0,0.0,0.0,0.0,0.8323,0.9679,1.0708,1.141,1.1997,1.2231,1.2064,1.1223,1.0354,0.0,0.0,0.0,0.0,0.0,0.0,0.0,0.0,0.0,0.0,0.0,0.0,0.0,0.0,0.0,0.0,0.0,0.0,0.0,0.0,0.0,0.0,0.0,0.0,0.0,0.0,0.0,0.0,0.0,0.0,0.0,0.0,0.0,0.0,0.0,0.0,0.0,0.0,0.0,0.0,0.935,0.9813,0.8172,0.0,0.0,0.0,0.0,0.0,0.0,1.3579,1.3299,0.0,0.0,0.0,0.0,0.0,0.0,0.0,0.0,0.0,0.0,0.0,0.0,0.0,0.0,0.0,0.0,0.0,0.0,0.0,0.0,0.0,0.0,0.0,0.0,0.0,0.0,0.0,0.0,0.0,0.0,0.0,0.0,0.0,0.0,0.0,0.0,0.0,0.0,0.0,0.0,0.0,0.0,0.0,0.0,0.0,0.0,0.0,0.0,0.0,0.0,0.0,0.0,0.0,0.0,0.0,0.7902,0.9833,1.1015,1.143,1.1997,1.2164,1.1864,1.1015,1.0147,0.0,0.0,0.0,0.0,0.0,0.0,0.0,0.0,0.0,0.0,0.0,0.0,0.0,0.0,0.0,0.0,0.0,0.0,0.0,0.0,0.0,0.0,0.0,0.0,0.0,0.0,0.0,0.0,0.0,0.0,0.0,0.0,0.0,0.0,0.0,0.0,0.0,0.0,0.0,0.0,0.0,1.1602,1.0332,1.0833,0.0,0.0,0.0,0.0,1.1243,1.3072,0.0,0.0,0.0,0.0,0.0,0.0,0.0,0.0,0.0,0.0,0.0,0.0,0.0,0.0,0.0,0.0,0.0,0.0,0.0,0.0,0.0,0.0,0.0,0.0,0.0,0.0,0.0,0.0,0.0,0.0,0.0,0.0,0.0,0.0,0.0,0.0,0.0,0.0,0.0,0.0,0.0,0.0,0.0,0.0,0.0,0.0,0.0,0.0,0.0,0.0,0.0,0.0,0.0,0.0,0.0,0.0,0.7875,0.9439,1.0615,1.1403,1.1997,1.2158,1.1935,1.1081,1.0147,0.0,0.0,0.0,0.0,0.0,0.0,0.0,0.0,0.0,0.0,0.0,0.0,0.0,0.0,0.0,0.0,0.0,0.0,0.0,0.0,0.0,0.0,0.0,0.0,0.0,0.0,0.0,0.0,0.0,0.0,0.0,0.0,0.0,0.0,0.0,0.0,0.0,0.0,0.0,0.0,0.0,1.0563,1.4121,1.4742,1.3769,0.0,0.0,1.1384,1.4359,1.2609,0.0,0.0,0.0,0.0,0.0,0.0,0.0,0.0,0.0,0.0,0.0,0.0,0.0,0.0,0.0,0.0,0.0,0.0,0.0,0.0,0.0,0.0,0.0,0.0,0.0,0.0,0.0,0.0,0.0,0.0,0.0,0.0,0.0,0.0,0.0,0.0,0.0,0.0,0.0,0.0,0.0,0.0,0.0,0.0,0.0,0.0,0.0,0.0,0.0,0.0,0.0,0.0,0.0,0.0,0.0,0.7021,0.8196,0.9947,1.1042,1.1423,1.1997,1.2084,1.1623,1.0768,0.9937,0.0,0.0,0.0,0.0,0.0,0.0,0.0,0.0,0.0,0.0,0.0,0.0,0.0,0.0,0.0,0.0,0.0,0.0,0.0,0.0,0.0,0.0,0.0,0.0,0.0,0.0,0.0,0.0,0.0,0.0,0.0,0.0,0.0,0.0,0.0,0.0,0.0,0.0,0.0,0.0,0.0,0.0,1.4903,1.3871,0.0,0.0,0.0,1.2613,1.5006,0.0,0.0,0.0,0.0,0.0,0.0,0.0,0.0,0.0,0.0,0.0,0.0,0.0,0.0,0.0,0.0,0.0,0.0,0.0,0.0,0.0,0.0,0.0,0.0,0.0,0.0,0.0,0.0,0.0,0.0,0.0,0.0,0.0,0.0,0.0,0.0,0.0,0.0,0.0,0.0,0.0,0.0,0.0,0.0,0.0,0.0,0.0,0.0,0.0,0.0,0.0,0.0,0.0,0.0,0.0,0.0,0.0,0.839,1.0388,1.143,1.1443,1.1997,1.2096,1.1703,1.1028,0.0,0.0,0.0,0.0,0.0,0.0,0.0,0.0,0.0,0.0,0.0,0.0,0.0,0.0,0.0,0.0,0.0,0.0,0.0,0.0,0.0,0.0,0.0,0.0,0.0,0.0,0.0,0.4933,0.0,0.0,0.0,0.0,0.0,0.0,0.0,0.0,0.0,0.0,0.0,0.0,0.0,0.0,1.201,1.4978,1.3317,1.2052,0.0,0.0,1.3486,1.5148,1.5415,1.4663,0.0,0.0,0.0,0.0,0.0,0.0,0.0,0.0,0.0,0.0,0.0,0.0,0.0,0.0,0.0,0.0,0.0,0.0,0.0,0.0,0.0,0.0,0.0,0.0,0.0,0.0,0.0,0.0,0.0,0.0,0.0,0.0,0.0,0.0,0.0,0.0,0.0,0.0,0.0,0.0,0.0,0.0,0.0,0.0,0.0,0.0,0.0,0.0,0.0,0.0,0.0,0.0,0.0,0.0,0.7468,0.8404,1.0388,1.143,1.1443,1.1997,1.2377,1.2601,1.2269,1.1457,0.0,0.0,0.0,0.0,0.0,0.0,0.0,0.0,0.0,0.0,0.0,0.0,0.0,0.0,0.0,0.0,0.0,0.0,0.0,0.0,0.0,0.0,0.0,0.0,0.0,0.0,0.0,0.0,0.0,0.0,0.0,0.0,0.0,0.0,0.0,0.0,0.0,0.0,0.0,0.0,0.0,1.3383,1.5133,1.5236,1.4538,0.0,1.2931,1.3509,1.5139,1.5392,1.4831,1.3116,0.0,0.0,0.0,0.0,0.0,0.0,0.0,0.0,0.0,0.0,0.0,0.0,0.0,0.0,0.0,0.0,0.0,0.0,0.0,0.0,0.0,0.0,0.0,0.0,0.0,0.0,0.0,0.0,0.0,0.0,0.0,0.0,0.0,0.0,0.0,0.0,0.0,0.0,0.0,0.0,0.0,0.0,0.0,0.0,0.0,0.0,0.0,0.0,0.0,0.0,0.0,0.0,0.0,0.7829,0.8905,1.0568,1.1778,1.2527,1.2949,1.3378,1.3954,1.3379,1.2435,0.0,0.0,0.0,0.0,0.0,0.0,0.0,0.0,0.0,0.0,0.0,0.0,0.0,0.0,0.0,0.0,0.0,0.0,0.0,0.0,0.0,0.0,0.0,0.0,0.0,0.0,0.0,0.0,0.8393,0.8682,0.876,0.0,0.0,0.0,0.0,0.0,0.0,0.0,0.0,0.0,0.0,1.3521,1.5133,1.5405,0.0,0.0,1.375,1.4654,1.5318,1.5419,1.4985,1.382,1.2231,0.0,0.0,0.0,0.0,0.0,0.0,0.0,0.0,0.0,0.0,0.0,0.0,0.0,0.0,0.0,0.0,0.0,0.0,0.0,0.0,0.0,0.0,0.0,0.0,0.0,0.0,0.0,0.0,0.0,0.0,0.0,0.0,0.0,0.0,0.0,0.0,0.0,0.0,0.0,0.0,0.0,0.0,0.0,0.0,0.0,0.0,0.0,0.0,0.0,0.0,0.0,0.0,0.8379,0.9871,1.1185,1.2315,1.3252,1.3581,1.4001,1.4618,1.4123,1.3364,0.0,0.0,0.0,0.0,0.0,0.0,0.0,0.0,0.0,0.0,0.0,0.0,0.0,0.0,0.0,0.0,0.0,0.0,0.0,0.0,0.0,0.0,0.0,0.0,0.0,0.0,0.0,0.0,0.9184,0.9291,0.9033,0.0,0.0,0.0,0.0,0.0,0.0,0.0,0.0,0.0,0.0,1.424,1.5944,1.6201,1.5576,1.3898,1.4659,1.5568,1.6115,1.5309,1.4511,1.4124,0.0,0.0,0.0,0.0,0.0,0.0,0.0,0.0,0.0,0.0,0.0,0.0,0.0,0.0,0.0,0.0,0.0,0.0,0.0,0.0,0.0,0.0,0.0,0.0,0.0,0.0,0.0,0.6713,0.0,0.0,0.5736,0.0,0.0,0.0,0.0,0.0,0.0,0.0,0.0,0.0,0.0,0.0,0.0,0.0,0.0,0.0,0.0,0.0,0.0,0.0,0.0,0.0,0.0,0.9204,1.1411,1.2383,1.3014,1.3337,1.3573,1.4009,1.4566,1.4533,1.4374,1.398,0.0,0.0,0.0,0.0,0.0,0.0,0.0,0.0,0.0,0.0,0.0,0.0,0.0,0.0,0.0,0.0,0.0,0.0,0.0,0.0,0.0,0.0,0.0,0.0,0.0,0.0,0.7445,0.8281,0.9023,0.0,0.0,0.0,0.0,0.0,0.0,0.0,0.0,0.0,1.1713,1.3756,1.5946,1.7668,1.793,1.7201,1.5527,1.5351,1.5976,1.7523,1.5097,1.3214,0.0,0.0,0.0,0.0,0.0,0.0,0.0,0.0,0.0,0.0,0.0,0.0,0.0,0.0,0.0,0.0,0.0,0.0,0.0,0.0,0.0,0.0,0.0,0.0,0.0,0.0,0.0,1.0016,0.9498,0.0,0.0,0.0,0.0,0.0,0.0,0.0,0.0,0.0,0.0,0.0,1.4121,1.4468,0.0,0.0,0.0,0.0,0.0,0.0,0.0,0.0,0.0,0.0,0.0,0.0,1.0777,1.2222,1.3452,1.4542,1.5453,1.5581,1.6018,1.6807,1.6548,1.5707,1.4145,0.0,0.0,0.0,0.0,0.0,0.0,0.0,0.0,0.0,0.0,0.0,0.0,0.0,0.0,0.0,0.0,0.0,0.0,0.0,0.0,0.0,0.0,0.0,0.0,0.0,0.936,0.0,0.0,0.0,0.0,0.0,0.0,0.0,0.0,0.0,0.0,0.0,1.0953,1.299,1.5494,1.7366,1.7927,1.6979,1.6037,0.0,0.0,0.0,0.0,0.0,0.0,0.0,0.0,0.0,0.0,0.0,0.0,0.0,0.0,1.2439,1.1363,1.1137,1.166,1.3369,0.0,0.0,0.0,0.0,0.0,0.0,0.0,0.0,0.0,0.0,0.0,0.0,0.0,0.0,1.252,1.2236,1.1943,0.0,0.0,0.0,0.0,0.0,0.0,0.0,0.0,1.4844,1.5879,1.6543,1.6826,1.6885,1.6728,1.6035,1.4238,0.0,0.0,0.0,0.0,0.0,0.0,0.0,0.0,1.198,1.3012,1.4466,1.548,1.6123,1.6419,1.6715,1.7001,1.7255,1.665,1.5031,1.3936,1.2532,0.0,0.0,0.0,0.0,0.0,0.0,0.0,0.0,0.0,0.0,0.0,0.0,0.0,0.0,0.0,0.0,0.0,0.0,0.0,0.0,0.0,0.0,0.0,0.9368,0.0,0.0,0.0,0.0,0.0,0.0,0.0,0.0,0.0,1.3435,1.2777,1.2483,1.3656,1.5749,1.7072,1.7092,0.0,0.0,0.0,0.0,0.0,0.0,0.0,1.399,1.4628,1.5848,1.6681,1.6477,1.5721,1.538,1.614,0.0,0.0,1.5096,1.4124,1.4053,1.556,1.5045,1.4482,1.4746,1.5156,1.5381,0.0,0.0,0.0,0.0,1.1851,0.0,0.0,0.0,1.501,1.4971,0.0,1.4072,0.0,0.0,0.0,0.0,1.248,1.4072,0.0,0.0,1.8125,1.9121,1.875,1.8689,1.8965,1.9307,1.8887,1.7803,1.6074,1.3691,0.0,0.0,0.0,0.0,0.0,0.0,1.2896,1.3908,1.5423,1.5898,1.5429,1.621,1.6219,1.5446,1.6708,1.7197,1.6728,1.5898,1.4687,1.3027,1.1719,0.0,0.0,0.0,0.0,0.0,0.0,0.0,0.0,0.0,0.0,0.0,0.0,0.0,0.0,0.0,0.0,0.0,0.0,0.0,0.0,0.9062,0.0,0.0,0.0,0.0,0.0,0.0,0.0,0.0,0.0,0.0,1.4659,1.668,1.6878,1.3916,0.0,0.0,0.0,0.0,1.5239,1.5249,1.6674,1.715,1.5487,1.5525,1.6245,1.787,0.0,0.0,1.9126,1.9394,1.9141,1.8333,2.079,2.2082,1.8724,1.7378,1.6832,1.6891,1.6578,1.6233,1.6221,1.6592,1.6836,1.4065,0.0,0.0,0.0,0.0,1.6817,1.785,1.9365,1.9043,1.8389,1.751,1.7275,0.0,0.0,0.0,0.0,0.0,0.0,1.7353,1.8672,2.0049,2.0771,2.0967,2.126,2.1152,2.0674,2.0547,1.9912,1.8809,1.8076,1.5732,1.1879,0.0,0.0,0.0,0.0,1.4945,1.5865,1.6919,1.7387,1.7217,1.7442,1.7432,1.7226,1.761,1.7627,1.7207,1.6953,1.6162,1.4756,1.374,0.0,0.0,0.0,0.0,0.0,0.0,0.0,0.0,0.0,0.0,0.0,0.0,0.0,0.0,0.0,0.0,0.0,0.0,0.0,0.9301,1.0283,1.0732,0.0,0.0,0.0,0.0,0.0,0.0,0.0,0.0,0.0,1.1919,1.5473,1.742,0.0,0.0,1.7037,1.6421,1.3819,1.2242,1.3097,1.3618,0.0,1.3294,1.7528,2.1054,2.1578,2.0205,1.9608,2.0915,2.1631,2.1899,2.1642,2.2432,2.2763,2.1842,2.0434,1.9545,1.9465,1.8884,1.8477,1.874,1.8701,1.8555,1.7001,1.6669,1.5748,1.619,1.7556,1.7726,1.8975,2.0855,2.0684,2.048,2.041,2.0078,1.9102,1.7695,1.7178,0.0,0.0,0.0,1.9648,2.0977,2.168,2.2227,2.2637,2.29,2.2842,2.25,2.2324,2.1787,2.0937,2.0596,1.8613,1.5146,0.0,1.4954,1.4601,1.6146,1.7077,1.7408,1.8443,1.8715,1.7944,1.7612,1.7647,1.8008,1.8008,1.7891,1.7646,1.7627,1.7187,1.623,1.5361,1.4019,0.0,0.0,0.0,0.0,0.0,0.0,0.0,0.0,0.0,0.0,0.0,0.7877,0.6528,0.0,0.0,0.0,0.8863,0.9626,1.1003,1.1733,0.0,0.0,0.0,0.0,0.0,0.0,0.0,1.4306,1.3983,1.3057,1.1709,1.4741,1.7432,1.8138,1.8126,1.7562,1.6269,0.0,1.3615,1.3653,1.3656,1.4345,1.6301,2.0255,2.3107,2.3108,2.2086,2.1606,2.2473,2.2949,2.3086,2.3057,2.3083,2.3118,2.3077,2.2526,2.198,2.1604,2.0751,2.0166,2.04,2.0225,2.0059,1.9036,1.9652,1.6546,1.5966,1.6862,1.713,1.8564,2.0864,2.0961,2.1841,2.3252,2.248,2.1855,2.1309,2.0127,0.0,2.085,2.1279,2.1924,2.2734,2.3164,2.3555,2.3877,2.3896,2.4072,2.4394,2.4023,2.3437,2.2646,2.1875,2.083,1.957,1.9141,1.828,1.7241,1.8514,1.8956,1.8387,1.965,1.9554,1.8033,1.7224,1.7241,1.8115,1.8008,1.7959,1.7959,1.792,1.7734,1.7324,1.6523,1.5312,1.365,0.0,0.0,0.0,0.0,0.0,0.0,0.0,0.0,0.0,0.0,0.0,0.0,0.0,0.0,0.0,1.119,0.0,1.3486,1.3273,0.0,0.0,0.0,1.3366,1.4193,1.4638,1.4731,1.4537,0.0,0.0,1.3274,1.4627,1.6895,1.9887,1.9186,1.7718,1.5874,1.6831,1.736,1.5809,1.5775,1.7382,2.0643,2.2485,2.3275,2.328,2.3154,2.3271,2.3682,2.3525,2.3231,2.3066,2.3063,2.3115,2.3066,2.3721,2.428,2.3395,2.225,2.1387,2.1406,2.1299,2.1201,1.9341,1.9426,1.8386,1.8955,2.0712,2.1793,2.2909,2.3872,2.5013,2.5141,2.4609,2.4404,2.3701,2.2666,2.2363,2.2519,2.3037,2.3467,2.3945,2.4482,2.4912,2.5,2.4766,2.4766,2.4639,2.4414,2.4316,2.416,2.3955,2.376,2.3008,2.1797,2.1641,2.0313,1.7909,1.8455,1.8883,1.9058,1.8499,1.8339,1.8467,1.8583,1.8749,1.8975,1.8037,1.7539,1.7529,1.7217,1.6992,1.6885,1.6357,1.5625,1.4538,1.2443,0.0,0.0,0.0,0.0,0.0,0.0,0.0,0.0,0.0,0.9815,0.7996,0.0,1.1519,0.0,1.2421,1.3443,1.4389,1.4338,0.0,0.0,1.4289,1.4307,1.5186,1.4723,1.4813,1.6008,1.5292,1.5033,1.5768,1.5826,1.6204,1.7527,2.0043,2.1236,1.9549,1.7502,1.6228,1.5917,1.5825,1.6197,1.7933,2.134,2.4023,2.3861,2.3981,2.415,2.4248,2.4199,2.3909,2.3275,2.3107,2.3098,2.3155,2.4277,2.524,2.5023,2.3787,2.2685,2.2685,2.2197,2.1738,1.9366,1.9352,1.9192,1.9654,2.0467,2.129,2.2128,2.2953,2.4446,2.5024,2.5003,2.5624,2.5537,2.4883,2.4863,2.4893,2.4961,2.5185,2.5322,2.5381,2.5625,2.5305,2.4456,2.4456,2.4035,2.3208,2.3026,2.284,2.284,2.2677,2.2251,2.1617,2.1527,2.058,1.8592,1.9146,1.9619,1.9853,1.9231,1.9242,2.0074,1.9146,1.8512,1.8276,1.693,1.6019,1.5623,1.5811,1.5832,1.5643,1.5467,1.5048,1.4392,1.2378,1.0677,0.0,0.0,0.0,0.0,0.0,0.0,0.0,0.0,0.0,0.0,0.0,1.2776,1.3241,1.3997,1.4828,1.5603,1.565,1.5687,1.5685,1.5501,1.5592,1.624,1.5856,1.5849,1.6572,1.5606,1.533,1.658,1.6711,1.6737,1.7069,1.9122,2.0572,2.0051,1.8031,1.6559,1.6594,1.6642,1.7623,1.9677,2.2902,2.4844,2.4463,2.4414,2.4463,2.4545,2.4531,2.4351,2.4272,2.4297,2.4249,2.4291,2.4962,2.5658,2.5521,2.4829,2.3994,2.375,2.3203,2.2734,1.9366,1.9366,1.9366,1.9072,1.8604,1.8604,1.9264,2.0479,2.1972,2.3372,2.4593,2.5816,2.6583,2.6695,2.6471,2.6279,2.6155,2.5944,2.5743,2.5604,2.5537,2.4998,2.4071,2.4016,2.3276,2.1946,2.1727,2.1477,2.1362,2.0964,2.074,2.0616,2.0408,1.9841,1.8977,1.9787,2.0106,2.0001,2.0184,2.0595,2.1218,1.8916,1.7424,1.6842,1.536,1.4212,1.3432,1.4188,1.4502,1.4159,1.4177,1.4051,1.3642,1.1961,1.0473,0.0,0.8501,0.0,0.0,0.0,0.0,0.0,0.0,0.0,0.0,1.2448,1.3929,1.533,1.5752,1.6129,1.6785,1.6871,1.6876,1.6818,1.6766,1.6866,1.7174,1.7124,1.6971,1.6794,1.6199,1.6085,1.67,1.7271,1.7622,1.7636,1.7701,1.8246,1.8865,1.8214,1.747,1.7587,1.7566,1.9148,2.3795,2.5454,2.5466,2.5066,2.479,2.4707,2.4964,2.4759,2.4839,2.5411,2.553,2.5628,2.571,2.5664,2.5668,2.5722,2.5342,2.4961,2.4551,2.4111,2.3887,1.9366,1.9366,1.9366,1.9305,1.9199,1.9199,1.9514,2.0015,2.1566,2.2459,2.2753,2.3153,2.4027,2.5081,2.3913,2.3983,2.4981,2.3809,2.3878,2.4948,2.4628,2.4894,2.5823,2.5487,2.4618,2.3475,2.4328,2.4291,2.3169,2.3098,2.2584,2.1494,2.0423,1.9261,1.8137,0.0,0.0,0.0,1.8154,1.8608,1.7746,1.7058,1.6544,1.6165,1.4647,0.0,1.3277,1.3101,1.2999,1.294,1.3152,0.0,0.0,0.0,0.0,0.0,0.0,0.0,0.0,0.0,0.0,0.0,1.1176,1.1319,1.2882,1.3991,1.4871,1.5519,1.7403,1.8197,1.7376,1.6937,1.6854,1.7182,1.6928,1.6773,1.681,1.6605,1.6653,1.7007,1.6369,1.6228,1.7237,1.7533,1.7637,1.7617,1.7644,1.7644,1.7936,1.7818,1.7572,1.7569,1.7763,1.9721,2.4899,2.5661,2.5653,2.5518,2.5498,2.5498,2.545,2.5527,2.5469,2.5712,2.5692,2.573,2.5712,2.5732,2.5732,2.5723,2.5664,2.5478,2.5029,2.46,2.4297,1.9366,1.9366,1.9366,1.9205,0.0,1.8931,1.8851,1.8848,2.0955,2.2304,2.3029,2.3094,2.3603,2.4343,2.3866,2.3599,2.3514,2.304,2.3073,2.3229,2.3039,2.3151,2.3522,2.3229,2.2311,2.0916,2.1631,2.1431,2.0743,2.0641,2.0373,1.9673,1.8979,1.8339,1.7676,1.7611,1.7323,1.7032,1.7973,1.8319,1.8087,1.7115,1.6404,1.5942,1.4198,0.0,0.0,0.0,0.0,0.0,0.0,0.0,0.0,0.0,0.0,1.1048,1.0921,1.1177,1.21,1.2173,1.2772,1.4221,1.3885,1.3806,1.4063,1.4661,1.5606,1.6916,1.7717,1.8048,1.7993,1.7428,1.7187,1.7232,1.7034,1.6974,1.7108,1.7025,1.7085,1.7315,1.7003,1.6951,1.7555,1.7589,1.7589,1.7589,1.7589,1.7589,1.7562,1.7603,1.7592,1.7709,2.0147,2.2503,2.5023,2.5664,2.5732,2.5732,2.5732,2.5732,2.5732,2.5732,2.5732,2.5732,2.5732,2.5732,2.5732,2.5732,2.5732,2.5732,2.5732,2.5684,2.543,2.5215,2.5068,1.9366,1.9366,1.9366,1.9092,1.8644,1.8644,1.8364,1.8057,2.0122,0.0,0.0,2.2999,2.3151,2.3446,2.3736,2.3199,2.2249,2.2486,2.2266,2.1713,2.1553,2.1312,2.1,2.0846,2.0047,1.8543,1.8596,1.8538,1.8078,1.8023,1.7996,1.7891,1.7681,1.7589,1.7569,1.7295,1.7541,1.8279,1.7911,1.8073,1.8632,1.7113,1.6048,1.5464,1.378,1.2458,1.169,1.1955,1.2028,1.184,1.1819,1.1855,1.1848,1.1352,1.1056,1.1122,1.155,1.2332,1.3688,1.4212,1.51,1.6472,1.6386,1.5922,1.4998,1.516,1.6097,1.8065,1.7394,1.7225,1.8156,1.7853,1.7472,1.7298,1.7228,1.7321,1.7542,1.7589,1.7555,1.7589,1.7569,1.7582,1.7582,1.7589,1.7589,1.7589,1.7589,1.7562,1.7752,1.8715,1.9583,1.9844,2.2745,2.5405,2.5079,2.5506,2.5576,2.5235,2.5528,2.5732,2.5732,2.5732,2.5732,2.5732,2.5732,2.5732,2.5732,2.5732,2.5732,2.5732,2.5732,2.5732,2.5732,2.5723,2.5684,1.9366,1.9366,1.9366,1.9319,1.9245,1.9245,1.9192,1.9085,1.8982,1.9042,1.9292,1.9811,2.0709,2.1805,2.0723,2.0779,2.1601,2.0528,2.0507,2.1511,2.1231,2.1697,2.2768,2.236,2.1441,2.0308,2.1007,2.0942,1.982,1.9464,1.9324,1.9117,1.8199,1.7589,1.7562,1.7295,1.7272,1.7379,1.6326,1.5784,1.5604,1.485,1.4294,1.3954,1.344,1.2966,1.2654,1.2668,1.2702,1.2668,1.2844,1.2986,1.2986,1.2889,1.2953,1.3186,1.3287,1.3487,1.3966,1.4164,1.4464,1.5225,1.564,1.5957,1.6177,1.6155,1.6245,1.6629,1.6697,1.6874,1.7286,1.7482,1.763,1.7502,1.7522,1.7542,1.7595,1.7602,1.7615,1.7629,1.7589,1.7602,1.7635,1.7622,1.7642,1.7609,1.7675,1.766,1.8269,2.1595,2.4275,2.4583,2.5117,2.4757,2.3311,2.4297,2.4975,2.4134,2.502,2.5732,2.5732,2.5732,2.5732,2.5732,2.5732,2.5732,2.5732,2.5732,2.5732,2.5732,2.5732,2.5732,2.5732,2.5732,2.5732,1.9366,1.9366,1.9366,1.9366,1.9366,1.9366,1.9366,1.9345,1.9085,1.8965,1.8998,1.9252,1.9815,2.0336,2.0019,1.9871,1.985,1.9519,1.9548,1.9843,1.9717,2.0165,2.1023,2.0898,2.0402,1.9688,2.0091,1.9845,1.8999,1.883,1.8682,1.852,1.7891,1.7589,1.7575,1.7455,1.7308,1.7237,1.6466,1.5965,1.5678,1.5411,1.513,1.483,1.4396,1.4102,1.3948,1.3722,1.3554,1.3474,1.3607,1.3687,1.3687,1.3681,1.3748,1.3881,1.4188,1.4416,1.4549,1.4856,1.515,1.5418,1.5825,1.615,1.6327,1.6313,1.6406,1.6714,1.677,1.6865,1.7361,1.7508,1.7589,1.7589,1.7589,1.7655,1.7802,1.7709,1.7769,1.8029,1.7826,1.759,1.7583,1.7833,1.8076,1.807,1.7833,1.7613,1.7636,1.9611,2.1375,2.155,2.3684,2.4307,2.2295,2.2577,2.3746,2.4482,2.5333,2.5635,2.5732,2.5732,2.5732,2.5732,2.5732,2.5732,2.5732,2.5732,2.5732,2.5732,2.5732,2.5732,2.5732,2.5732,2.5732,1.9366,1.9366,1.9366,1.9366,1.9366,1.9366,1.9366,1.9366,1.9366,1.9366,1.9366,1.9366,1.9366,1.9428,1.9857,1.9549,1.884,1.916,1.9203,1.8769,1.8684,1.8931,1.9332,1.9366,1.9245,1.9032,1.8958,1.8691,1.8277,1.8116,1.7889,1.7615,1.7589,1.7589,1.7589,1.7589,1.7468,1.7248,1.7021,1.6727,1.6386,1.6373,1.6226,1.5925,1.5491,1.5224,1.5144,1.4723,1.4482,1.4476,1.4482,1.4476,1.4476,1.4482,1.4476,1.4522,1.4903,1.519,1.5277,1.5671,1.5952,1.6032,1.6233,1.64,1.646,1.6473,1.6653,1.7068,1.6975,1.7107,1.7522,1.7582,1.7609,1.7669,1.7689,1.7822,1.809,1.7906,1.7978,1.8333,1.8236,1.7981,1.7988,1.836,1.8594,1.8457,1.8112,1.7903,1.7991,1.8041,1.799,1.8415,2.1282,2.2681,2.1241,2.2131,2.3347,2.5045,2.5459,2.5635,2.5732,2.5732,2.5732,2.5732,2.5732,2.5732,2.5732,2.5732,2.5732,2.5732,2.5732,2.5732,2.5732,2.5732,2.5732,1.9366,1.9366,1.9366,1.9366,1.9366,1.9366,1.9366,1.9366,1.9366,1.9366,1.9366,1.9366,1.9366,1.9359,1.9516,1.9367,1.9259,1.934,1.932,1.9252,1.9285,1.9312,1.9366,1.9366,1.9352,1.9279,1.9058,1.8905,1.8764,1.829,1.7889,1.7615,1.7589,1.7589,1.7589,1.7589,1.7569,1.7542,1.7515,1.7228,1.6707,1.6667,1.6526,1.6246,1.6179,1.6025,1.5758,1.5698,1.5665,1.5671,1.5651,1.5665,1.5658,1.5665,1.5665,1.5658,1.5718,1.5865,1.6112,1.6206,1.6339,1.6587,1.6633,1.6774,1.7007,1.7054,1.7081,1.7194,1.7388,1.7528,1.7575,1.7595,1.7716,1.7936,1.7989,1.8123,1.8384,1.8444,1.8457,1.8484,1.882,1.9008,1.8564,1.8938,1.9042,1.8702,1.8479,1.8577,1.8911,1.9085,1.8712,1.7928,1.8381,1.8593,1.8724,2.2336,2.4065,2.3821,2.4659,2.5369,2.5516,2.5654,2.5655,2.5712,2.5732,2.5742,2.5732,2.5732,2.5732,2.5732,2.5732,2.5732,2.5732,2.5732,2.5732,1.9366,1.9366,1.9366,1.9366,1.9366,1.9366,1.9366,1.9366,1.9366,1.9366,1.9366,1.9366,1.9366,1.9366,1.9366,1.9366,1.9366,1.9366,1.9366,1.9366,1.9366,1.9366,1.9366,1.9366,1.9366,1.9359,1.9245,1.9098,1.8851,1.833,1.7889,1.7615,1.7589,1.7589,1.7589,1.7589,1.7589,1.7589,1.7589,1.7462,1.7241,1.7054,1.6827,1.6567,1.6526,1.6486,1.6359,1.6346,1.6353,1.6346,1.6346,1.6353,1.6346,1.6346,1.6346,1.6346,1.6346,1.64,1.652,1.6526,1.658,1.67,1.6874,1.7027,1.7141,1.7308,1.7402,1.7422,1.7515,1.7589,1.7602,1.7875,1.8043,1.8056,1.8203,1.8424,1.8711,1.8612,1.8665,1.8965,1.9266,1.9266,1.9139,1.9266,1.9266,1.9011,1.8998,1.9112,1.9373,1.9378,1.9217,1.8798,1.8632,1.8665,1.8951,2.1894,2.3717,2.3687,2.3566,2.4021,2.534,2.5006,2.4902,2.5543,2.5672,2.5684,2.5732,2.5732,2.5732,2.5732,2.5732,2.5732,2.5732,2.5732,2.5732,1.9366,1.9366,1.9366,1.9366,1.9366,1.9366,1.9366,1.9366,1.9366,1.9366,1.9366,1.9366,1.9366,1.9366,1.9366,1.9366,1.9366,1.9366,1.9366,1.9366,1.9366,1.9366,1.9366,1.9366,1.9366,1.9366,1.9366,1.9212,1.8898,1.8424,1.8009,1.7742,1.7629,1.7589,1.7589,1.7589,1.7589,1.7589,1.7589,1.7589,1.7549,1.7375,1.7128,1.686,1.6827,1.6794,1.6707,1.6707,1.6707,1.6707,1.6707,1.6707,1.6707,1.6707,1.6707,1.6707,1.6707,1.6747,1.682,1.6827,1.686,1.6947,1.7154,1.7268,1.7301,1.7462,1.7615,1.7709,1.7702,1.7603,1.7736,1.8225,1.8435,1.829,1.8497,1.8724,1.8991,1.8797,1.8869,1.9325,1.9428,1.9366,1.9366,1.9461,1.9325,1.9325,1.9339,1.9366,1.9352,1.9435,1.9388,1.9448,1.9415,1.9384,1.9583,2.0918,2.2352,2.2624,2.229,2.3182,2.4491,2.4052,2.4485,2.5488,2.5586,2.5722,2.5712,2.5673,2.5732,2.5732,2.5732,2.5732,2.5732,2.5732,2.5732,1.9366,1.9366,1.9366,1.9366,1.9366,1.9366,1.9366,1.9366,1.9366,1.9366,1.9366,1.9366,1.9366,1.9366,1.9366,1.9366,1.9366,1.9366,1.9366,1.9366,1.9366,1.9366,1.9366,1.9366,1.9366,1.9366,1.9366,1.9212,1.8925,1.8624,1.8323,1.8023,1.7749,1.7595,1.7589,1.7589,1.7589,1.7589,1.7589,1.7589,1.7589,1.7562,1.7408,1.7154,1.7134,1.7007,1.678,1.672,1.6727,1.672,1.6747,1.6734,1.6727,1.6727,1.6747,1.674,1.6727,1.6847,1.7088,1.7134,1.7235,1.7462,1.7502,1.7555,1.7522,1.7562,1.7702,1.7989,1.7774,1.778,1.7968,1.8426,1.8689,1.8791,1.8871,1.9038,1.9299,1.9299,1.9339,1.9366,1.9366,1.9366,1.9366,1.9366,1.9366,1.9366,1.9366,1.9366,1.9366,1.9461,1.9461,1.9468,1.9441,1.9367,1.9473,2.0026,2.0014,2.0252,2.1378,2.218,2.2601,2.3178,2.4359,2.5533,2.5812,2.5867,2.5794,2.571,2.5703,2.5732,2.5732,2.5732,2.5732,2.5732,2.5732,1.9539,1.9366,1.9366,1.9366,1.9366,1.9366,1.9366,1.9366,1.9366,1.9366,1.9366,1.9366,1.9366,1.9366,1.9366,1.9366,1.9366,1.9366,1.9366,1.9366,1.9366,1.9366,1.9366,1.9366,1.9366,1.9366,1.9366,1.9212,1.8945,1.8811,1.8517,1.8103,1.7943,1.7789,1.7622,1.7589,1.7589,1.7589,1.7589,1.7589,1.7589,1.7589,1.7528,1.7435,1.7428,1.7382,1.7275,1.7268,1.7268,1.7261,1.7268,1.7268,1.7268,1.7261,1.7268,1.7268,1.7268,1.7315,1.7408,1.7428,1.7468,1.7562,1.7589,1.7589,1.7589,1.7595,1.7716,1.7996,1.8121,1.8267,1.8584,1.8843,1.9063,1.8925,1.9092,1.9232,1.9332,1.9366,1.9366,1.9366,1.9366,1.9366,1.9366,1.9366,1.9366,1.9366,1.9366,1.9366,1.9366,1.9366,1.9366,1.9366,1.9366,1.9461,1.9387,1.9422,1.9435,1.9621,2.0047,2.0379,2.0757,2.1603,2.2711,2.5371,2.5999,2.5935,2.5737,2.5865,2.5849,2.5869,2.5859,2.5908,2.5732,2.582,2.5801,1.9553,1.9379,1.9366,1.9366,1.9366,1.9366,1.9366,1.9366,1.9366,1.9366,1.9366,1.9366,1.9366,1.9366,1.9366,1.9366,1.9366,1.9366,1.9366,1.9366,1.9366,1.9366,1.9366,1.9366,1.9366,1.9366,1.9366,1.9259,1.9078,1.8971,1.8718,1.8357,1.8163,1.7943,1.7749,1.7635,1.7589,1.7589,1.7589,1.7589,1.7589,1.7589,1.7589,1.7589,1.7589,1.7589,1.7589,1.7589,1.7589,1.7589,1.7589,1.7589,1.7589,1.7589,1.7589,1.7589,1.7582,1.7589,1.7589,1.7589,1.7582,1.7589,1.7589,1.7589,1.7589,1.7589,1.7776,1.8116,1.8357,1.8631,1.8965,1.9314,1.932,1.9092,1.9245,1.9366,1.9366,1.9366,1.9366,1.9366,1.9366,1.9366,1.9366,1.9366,1.9366,1.9366,1.9366,1.9366,1.9366,1.9366,1.9366,1.9366,1.9366,1.9366,1.9448,1.9408,1.9387,1.9483,1.9577,1.9441,1.9673,2.0465,2.1638,2.4488,2.5865,2.5866,2.5871,2.5996,2.6022,2.6133,2.624,2.6357,2.6172,2.5977,2.5928,1.9372,1.9366,1.9366,1.9366,1.9366,1.9366,1.9366,1.9366,1.9366,1.9366,1.9366,1.9366,1.9366,1.9366,1.9366,1.9366,1.9366,1.9366,1.9366,1.9366,1.9366,1.9366,1.9366,1.9366,1.9366,1.9366,1.9366,1.9366,1.9319,1.9092,1.8918,1.8798,1.8357,1.8123,1.805,1.7782,1.7615,1.7615,1.7615,1.7589,1.7589,1.7589,1.7589,1.7589,1.7589,1.7589,1.7589,1.7589,1.7589,1.7589,1.7589,1.7589,1.7589,1.7589,1.7589,1.7589,1.7589,1.7589,1.7589,1.7589,1.7589,1.7589,1.7589,1.7589,1.7589,1.7589,1.7816,1.8323,1.849,1.8704,1.9199,1.9332,1.9441,1.9352,1.9359,1.9366,1.9366,1.9366,1.9366,1.9366,1.9366,1.9366,1.9366,1.9366,1.9366,1.9366,1.9366,1.9366,1.9366,1.9366,1.9366,1.9366,1.9366,1.9366,1.9366,1.9366,1.9359,1.9468,1.9455,1.9482,1.9591,2.013,2.0238,2.2534,2.5564,2.5742,2.654,2.6715,2.6797,2.6849,2.6927,2.6748,2.6543,2.6318,2.6103,1.9366,1.9366,1.9366,1.9366,1.9366,1.9366,1.9366,1.9366,1.9366,1.9366,1.9366,1.9366,1.9366,1.9366,1.9366,1.9366,1.9366,1.9366,1.9366,1.9366,1.9366,1.9366,1.9366,1.9366,1.9366,1.9366,1.9366,1.9366,1.9345,1.9272,1.9138,1.8911,1.8744,1.8544,1.8343,1.8063,1.7903,1.7876,1.7689,1.7589,1.7589,1.7589,1.7589,1.7589,1.7589,1.7589,1.7589,1.7589,1.7589,1.7589,1.7589,1.7589,1.7589,1.7589,1.7589,1.7589,1.7589,1.7589,1.7589,1.7589,1.7589,1.7589,1.7589,1.7589,1.7589,1.7589,1.7856,1.8384,1.8504,1.8731,1.9219,1.9366,1.9366,1.9366,1.9366,1.9366,1.9366,1.9366,1.9366,1.9366,1.9366,1.9366,1.9366,1.9366,1.9366,1.9366,1.9366,1.9366,1.9366,1.9366,1.9366,1.9366,1.9366,1.9366,1.9366,1.9366,1.9366,1.9366,1.9366,1.9366,1.9591,1.9686,1.9807,2.106,2.3955,2.6188,2.6893,2.7324,2.7388,2.7505,2.7343,2.7104,2.6836,2.6621,2.6396,1.9466,1.9372,1.9366,1.9366,1.9366,1.9366,1.9366,1.9366,1.9366,1.9366,1.9366,1.9366,1.9366,1.9366,1.9366,1.9366,1.9366,1.9366,1.9366,1.9366,1.9366,1.9366,1.9366,1.9366,1.9366,1.9366,1.9366,1.9366,1.9366,1.9359,1.9272,1.9112,1.8985,1.8838,1.8617,1.8257,1.8043,1.8003,1.7736,1.7589,1.7589,1.7589,1.7589,1.7589,1.7589,1.7589,1.7589,1.7589,1.7589,1.7589,1.7589,1.7589,1.7589,1.7589,1.7589,1.7589,1.7589,1.7589,1.7589,1.7589,1.7589,1.7589,1.7589,1.7589,1.7589,1.7589,1.7849,1.8364,1.8497,1.8731,1.9232,1.9366,1.9366,1.9366,1.9366,1.9366,1.9366,1.9366,1.9366,1.9366,1.9366,1.9366,1.9366,1.9366,1.9366,1.9366,1.9366,1.9366,1.9366,1.9366,1.9366,1.9366,1.9366,1.9366,1.9366,1.9366,1.9366,1.9366,1.9366,1.9366,1.9482,1.9468,1.9516,2.1188,2.3701,2.6689,2.7843,2.7773,2.779,2.7776,2.7811,2.7668,2.7344,2.6924,2.6641,1.9613,1.9379,1.9366,1.9366,1.9366,1.9366,1.9366,1.9366,1.9366,1.9366,1.9366,1.9366,1.9366,1.9366,1.9366,1.9366,1.9366,1.9366,1.9366,1.9366,1.9366,1.9366,1.9366,1.9366,1.9366,1.9366,1.9366,1.9366,1.9366,1.9366,1.9366,1.9312,1.9098,1.8958,1.8858,1.839,1.8143,1.8076,1.7796,1.7642,1.7595,1.7589,1.7589,1.7589,1.7589,1.7589,1.7589,1.7589,1.7589,1.7589,1.7589,1.7589,1.7589,1.7589,1.7589,1.7589,1.7589,1.7589,1.7589,1.7589,1.7589,1.7589,1.7589,1.7589,1.7589,1.7602,1.7802,1.8343,1.8464,1.8711,1.9172,1.9359,1.9359,1.9366,1.9366,1.9366,1.9366,1.9366,1.9366,1.9366,1.9366,1.9366,1.9366,1.9366,1.9366,1.9366,1.9366,1.9366,1.9366,1.9366,1.9366,1.9366,1.9366,1.9366,1.9366,1.9366,1.9366,1.9366,1.9366,1.9366,1.9366,1.9359,1.9449,2.1129,2.385,2.6709,2.8252,2.8115,2.8037,2.8123,2.8094,2.8018,2.7773,2.7344,2.7012,1.9432,1.9366,1.9366,1.9366,1.9366,1.9366,1.9366,1.9366,1.9366,1.9366,1.9366,1.9366,1.9366,1.9366,1.9366,1.9366,1.9366,1.9366,1.9366,1.9366,1.9366,1.9366,1.9366,1.9366,1.9366,1.9366,1.9366,1.9366,1.9366,1.9366,1.9366,1.9366,1.9285,1.9239,1.9185,1.8851,1.8584,1.8364,1.8076,1.7796,1.7615,1.7589,1.7589,1.7589,1.7589,1.7589,1.7589,1.7589,1.7589,1.7589,1.7589,1.7589,1.7589,1.7589,1.7589,1.7589,1.7589,1.7589,1.7589,1.7589,1.7589,1.7589,1.7589,1.7589,1.7589,1.7589,1.7776,1.8123,1.835,1.8644,1.8998,1.9245,1.9345,1.9366,1.9366,1.9366,1.9366,1.9366,1.9366,1.9366,1.9366,1.9366,1.9366,1.9366,1.9366,1.9366,1.9366,1.9366,1.9366,1.9366,1.9366,1.9366,1.9366,1.9366,1.9366,1.9366,1.9366,1.9366,1.9366,1.9366,1.9366,1.9366,1.9354,1.9998,2.465,2.8062,2.8309,2.8223,2.8281,2.8038,2.8019,2.7806,2.796,2.7678,2.7415,1.9479,1.9366,1.9366,1.9366,1.9366,1.9366,1.9366,1.9366,1.9366,1.9366,1.9366,1.9366,1.9366,1.9366,1.9366,1.9366,1.9366,1.9366,1.9366,1.9366,1.9366,1.9366,1.9366,1.9366,1.9366,1.9366,1.9366,1.9366,1.9366,1.9366,1.9366,1.9366,1.9366,1.9366,1.9339,1.9078,1.8851,1.8624,1.8277,1.7949,1.7789,1.7642,1.7589,1.7589,1.7589,1.7589,1.7589,1.7589,1.7589,1.7589,1.7589,1.7589,1.7589,1.7589,1.7589,1.7589,1.7589,1.7589,1.7589,1.7589,1.7589,1.7589,1.7589,1.7589,1.7589,1.7589,1.7729,1.821,1.8156,1.8434,1.9032,1.9272,1.9352,1.9366,1.9366,1.9366,1.9366,1.9366,1.9366,1.9366,1.9366,1.9366,1.9366,1.9366,1.9366,1.9366,1.9366,1.9366,1.9366,1.9366,1.9366,1.9366,1.9366,1.9366,1.9366,1.9366,1.9366,1.9366,1.9366,1.9366,1.9366,1.9468,1.9455,2.0612,2.5181,2.829,2.8308,2.796,2.7289,2.7173,2.7327,2.7346,2.728,2.7496,2.7276,1.9626,1.9366,1.9366,1.9366,1.9366,1.9366,1.9366,1.9366,1.9366,1.9366,1.9366,1.9366,1.9366,1.9366,1.9366,1.9366,1.9366,1.9366,1.9366,1.9366,1.9366,1.9366,1.9366,1.9366,1.9366,1.9366,1.9366,1.9366,1.9366,1.9366,1.9366,1.9366,1.9366,1.9366,1.9332,1.9112,1.8971,1.8824,1.8464,1.8156,1.7996,1.7796,1.7669,1.7589,1.7589,1.7589,1.7589,1.7589,1.7589,1.7589,1.7589,1.7589,1.7589,1.7589,1.7589,1.7589,1.7589,1.7589,1.7589,1.7589,1.7589,1.7589,1.7589,1.7589,1.7589,1.7595,1.7789,1.829,1.7955,1.8381,1.9077,1.9366,1.9366,1.9366,1.9366,1.9366,1.9366,1.9366,1.9366,1.9366,1.9366,1.9366,1.9366,1.9366,1.9366,1.9366,1.9366,1.9366,1.9366,1.9366,1.9366,1.9366,1.9366,1.9366,1.9366,1.9366,1.9366,1.9366,1.9366,1.9366,1.9366,1.9421,1.9462,2.1112,2.5172,2.7465,2.8259,2.7657,2.6516,2.5748,2.5566,2.5864,2.6127,2.6424,2.6463,1.9626,1.9366,1.9366,1.9366,1.9366,1.9366,1.9366,1.9366,1.9366,1.9366,1.9366,1.9366,1.9366,1.9366,1.9366,1.9366,1.9366,1.9366,1.9366,1.9366,1.9366,1.9366,1.9366,1.9366,1.9366,1.9366,1.9366,1.9366,1.9366,1.9366,1.9366,1.9366,1.9366,1.9366,1.9345,1.9285,1.9138,1.8945,1.8764,1.847,1.8136,1.7989,1.7802,1.7622,1.7589,1.7589,1.7589,1.7589,1.7589,1.7589,1.7589,1.7589,1.7589,1.7589,1.7589,1.7589,1.7589,1.7589,1.7589,1.7589,1.7589,1.7589,1.7589,1.7589,1.7589,1.7602,1.7776,1.8116,1.8227,1.8632,1.9259,1.9366,1.9366,1.9366,1.9366,1.9366,1.9366,1.9366,1.9366,1.9366,1.9366,1.9366,1.9366,1.9366,1.9366,1.9366,1.9366,1.9366,1.9366,1.9366,1.9366,1.9366,1.9366,1.9366,1.9366,1.9366,1.9366,1.9366,1.9366,1.9366,1.9366,1.9455,1.9408,2.1509,2.4666,2.6136,2.63,2.6546,2.5322,2.4624,2.3946,2.4734,2.5235,2.5439,2.6279,1.9512,1.9372,1.9366,1.9366,1.9366,1.9366,1.9366,1.9366,1.9366,1.9366,1.9366,1.9366,1.9366,1.9366,1.9366,1.9366,1.9366,1.9366,1.9366,1.9366,1.9366,1.9366,1.9366,1.9366,1.9366,1.9366,1.9366,1.9366,1.9366,1.9366,1.9366,1.9366,1.9366,1.9366,1.9366,1.9366,1.9292,1.9138,1.8978,1.8744,1.8497,1.817,1.7896,1.7649,1.7589,1.7589,1.7589,1.7589,1.7589,1.7589,1.7589,1.7589,1.7589,1.7589,1.7589,1.7589,1.7589,1.7589,1.7589,1.7589,1.7589,1.7589,1.7589,1.7682,1.7756,1.7796,1.8029,1.8357,1.8631,1.8885,1.9299,1.9366,1.9366,1.9366,1.9366,1.9366,1.9366,1.9366,1.9366,1.9366,1.9366,1.9366,1.9366,1.9366,1.9366,1.9366,1.9366,1.9366,1.9366,1.9366,1.9366,1.9366,1.9366,1.9366,1.9366,1.9366,1.9366,1.9366,1.9366,1.9366,1.9366,1.9448,1.9394,2.1377,2.3091,2.271,2.2902,2.331,2.3776,2.2448,2.2035,2.3286,2.425,2.4522,2.5855,1.9406,1.9366,1.9366,1.9366,1.9366,1.9366,1.9366,1.9366,1.9366,1.9366,1.9366,1.9366,1.9366,1.9366,1.9366,1.9366,1.9366,1.9366,1.9366,1.9366,1.9366,1.9366,1.9366,1.9366,1.9366,1.9366,1.9366,1.9366,1.9366,1.9366,1.9366,1.9366,1.9366,1.9366,1.9366,1.9366,1.9352,1.9292,1.9132,1.8958,1.8798,1.8384,1.7996,1.7649,1.7589,1.7589,1.7589,1.7589,1.7589,1.7589,1.7589,1.7589,1.7589,1.7589,1.7589,1.7589,1.7589,1.7589,1.7589,1.7589,1.7589,1.7589,1.7589,1.7736,1.7936,1.8043,1.8297,1.8671,1.8951,1.9078,1.9332,1.9366,1.9366,1.9366,1.9366,1.9366,1.9366,1.9366,1.9366,1.9366,1.9366,1.9366,1.9366,1.9366,1.9366,1.9366,1.9366,1.9366,1.9366,1.9366,1.9366,1.9366,1.9366,1.9366,1.9366,1.9366,1.9366,1.9366,1.9366,1.9366,1.9366,1.9461,1.9414,1.9435,2.0195,2.0288,2.0619,2.1459,2.1255,1.9883,2.0274,2.1768,2.271,2.3487,2.5388,1.9586,1.9366,1.9366,1.9366,1.9366,1.9366,1.9366,1.9366,1.9366,1.9366,1.9366,1.9366,1.9366,1.9366,1.9366,1.9366,1.9366,1.9366,1.9366,1.9366,1.9366,1.9366,1.9366,1.9366,1.9366,1.9366,1.9366,1.9366,1.9366,1.9366,1.9366,1.9366,1.9366,1.9366,1.9366,1.9366,1.9366,1.9366,1.9279,1.9158,1.8925,1.8571,1.813,1.7689,1.7609,1.7589,1.7589,1.7589,1.7589,1.7589,1.7589,1.7589,1.7589,1.7589,1.7589,1.7589,1.7589,1.7589,1.7589,1.7589,1.7589,1.7589,1.7615,1.7756,1.7969,1.811,1.8437,1.8818,1.9145,1.9305,1.9352,1.9366,1.9366,1.9366,1.9366,1.9366,1.9366,1.9366,1.9366,1.9366,1.9366,1.9366,1.9366,1.9366,1.9366,1.9366,1.9366,1.9366,1.9366,1.9366,1.9366,1.9366,1.9366,1.9366,1.9366,1.9366,1.9366,1.9366,1.9366,1.9366,1.9366,1.9366,1.9435,1.9483,1.9449,1.9651,2.0009,2.0259,2.0109,1.9603,1.9922,2.0364,2.1707,2.3151,2.4488,1.9492,1.9372,1.9366,1.9366,1.9366,1.9366,1.9366,1.9366,1.9366,1.9366,1.9366,1.9366,1.9366,1.9366,1.9366,1.9366,1.9366,1.9366,1.9366,1.9366,1.9366,1.9366,1.9366,1.9366,1.9366,1.9366,1.9366,1.9366,1.9366,1.9366,1.9366,1.9366,1.9366,1.9366,1.9366,1.9366,1.9366,1.9366,1.9359,1.9299,1.9105,1.8731,1.8243,1.7923,1.7655,1.7595,1.7589,1.7589,1.7589,1.7589,1.7589,1.7589,1.7589,1.7589,1.7589,1.7589,1.7589,1.7589,1.7589,1.7589,1.7589,1.7602,1.7709,1.7963,1.8223,1.845,1.8684,1.9038,1.9225,1.9366,1.9366,1.9366,1.9366,1.9366,1.9366,1.9366,1.9366,1.9366,1.9366,1.9366,1.9366,1.9366,1.9366,1.9366,1.9366,1.9366,1.9366,1.9366,1.9366,1.9366,1.9366,1.9366,1.9366,1.9366,1.9366,1.9366,1.9366,1.9366,1.9366,1.9366,1.9829,1.9945,1.9713,1.957,1.9441,1.9374,1.9537,1.9883,1.9605,1.9456,1.9639,2.0148,2.1479,2.2814,2.4267,1.9366,1.9366,1.9366,1.9366,1.9366,1.9366,1.9366,1.9366,1.9366,1.9366,1.9366,1.9366,1.9366,1.9366,1.9366,1.9366,1.9366,1.9366,1.9366,1.9366,1.9366,1.9366,1.9366,1.9366,1.9366,1.9366,1.9366,1.9366,1.9366,1.9366,1.9366,1.9366,1.9366,1.9366,1.9366,1.9366,1.9366,1.9366,1.9366,1.9359,1.9158,1.8771,1.835,1.8056,1.7742,1.7589,1.7589,1.7589,1.7589,1.7589,1.7589,1.7589,1.7589,1.7589,1.7589,1.7589,1.7589,1.7589,1.7589,1.7589,1.7622,1.7722,1.7909,1.8196,1.8551,1.8818,1.9092,1.9312,1.9366,1.9366,1.9366,1.9366,1.9366,1.9366,1.9366,1.9366,1.9366,1.9366,1.9366,1.9366,1.9366,1.9366,1.9366,1.9366,1.9366,1.9366,1.9366,1.9366,1.9366,1.9366,1.9366,1.9366,1.9366,1.9366,1.9366,1.9366,1.9366,1.9366,1.9366,1.9366,2.006,2.0759,2.0658,2.0578,1.9476,1.9428,1.9401,1.9359,1.9441,1.9428,1.9468,1.9815,2.0709,2.2258,2.4044,1.9366,1.9366,1.9366,1.9366,1.9366,1.9366,1.9366,1.9366,1.9366,1.9366,1.9366,1.9366,1.9366,1.9366,1.9366,1.9366,1.9366,1.9366,1.9366,1.9366,1.9366,1.9366,1.9366,1.9366,1.9366,1.9366,1.9366,1.9366,1.9366,1.9366,1.9366,1.9366,1.9366,1.9366,1.9366,1.9366,1.9366,1.9366,1.9366,1.9252,1.9005,1.8684,1.8357,1.8076,1.7776,1.7589,1.7589,1.7589,1.7589,1.7589,1.7589,1.7589,1.7589,1.7589,1.7589,1.7589,1.7589,1.7589,1.7589,1.7629,1.7722,1.7896,1.8063,1.835,1.8764,1.9092,1.9292,1.9339,1.9366,1.9366,1.9366,1.9366,1.9366,1.9366,1.9366,1.9366,1.9366,1.9366,1.9366,1.9366,1.9366,1.9366,1.9366,1.9366,1.9366,1.9366,1.9366,1.9366,1.9366,1.9366,1.9366,1.9366,1.9366,1.9366,1.9366,1.9366,1.9366,1.9366,1.97,1.97,2.0615,2.1561,2.2536,2.2269,2.0887,1.9576,1.9401,1.9354,1.9441,1.9339,1.9305,1.9332,1.9475,2.1472,2.3673,1.9366,1.9366,1.9366,1.9366,1.9366,1.9366,1.9366,1.9366,1.9366,1.9366,1.9366,1.9366,1.9366,1.9366,1.9366,1.9366,1.9366,1.9366,1.9366,1.9366,1.9366,1.9366,1.9366,1.9366,1.9366,1.9366,1.9366,1.9366,1.9366,1.9366,1.9366,1.9366,1.9366,1.9366,1.9366,1.9366,1.9366,1.9366,1.9359,1.9305,1.9092,1.8751,1.843,1.8283,1.7836,1.7642,1.7595,1.7589,1.7589,1.7589,1.7589,1.7589,1.7589,1.7589,1.7589,1.7595,1.7762,1.7756,1.7635,1.7756,1.7923,1.811,1.8343,1.8758,1.9105,1.9272,1.9366,1.9366,1.9366,1.9366,1.9366,1.9366,1.9366,1.9366,1.9366,1.9366,1.9366,1.9366,1.9366,1.9366,1.9366,1.9366,1.9366,1.9366,1.9366,1.9366,1.9366,1.9366,1.9366,1.9366,1.9366,1.9366,1.9366,1.9366,1.9366,1.9366,1.9366,1.9591,2.0702,2.0816,2.1373,2.2358,2.3262,2.3658,2.2799,2.1444,2.0217,1.9644,1.9897,1.9632,1.9232,1.9523,2.0018,2.1314,2.3653,1.9366,1.9366,1.9366,1.9366,1.9366,1.9366,1.9366,1.9366,1.9366,1.9366,1.9366,1.9366,1.9366,1.9366,1.9366,1.9366,1.9366,1.9366,1.9366,1.9366,1.9366,1.9366,1.9366,1.9366,1.9366,1.9366,1.9366,1.9366,1.9366,1.9366,1.9366,1.9366,1.9366,1.9366,1.9366,1.9366,1.9366,1.9366,1.9366,1.9352,1.9259,1.8871,1.8671,1.8424,1.8076,1.7695,1.7689,1.7602,1.7589,1.7589,1.7589,1.7589,1.7589,1.7589,1.7655,1.7729,1.7916,1.7976,1.7956,1.805,1.817,1.8397,1.8671,1.9092,1.9272,1.9366,1.9366,1.9366,1.9366,1.9366,1.9366,1.9366,1.9366,1.9366,1.9366,1.9366,1.9366,1.9366,1.9366,1.9366,1.9366,1.9366,1.9366,1.9366,1.9366,1.9366,1.9366,1.9366,1.9366,1.9366,1.9366,1.9366,1.9366,1.9366,1.9366,1.9366,1.9366,1.9924,2.0923,2.1314,2.1511,2.2735,2.413,2.4234,2.4116,2.4488,2.3813,2.2032,2.0451,2.0615,2.0794,2.0348,2.0759,2.2121,2.3657,1.9366,1.9366,1.9366,1.9366,1.9366,1.9366,1.9366,1.9366,1.9366,1.9366,1.9366,1.9366,1.9366,1.9366,1.9366,1.9366,1.9366,1.9366,1.9366,1.9366,1.9366,1.9366,1.9366,1.9366,1.9366,1.9366,1.9366,1.9366,1.9366,1.9366,1.9366,1.9366,1.9366,1.9366,1.9366,1.9366,1.9366,1.9366,1.9366,1.9366,1.9285,1.9052,1.8871,1.8744,1.8357,1.8016,1.7996,1.7809,1.7662,1.7662,1.7709,1.7662,1.7689,1.7722,1.7829,1.7996,1.8123,1.8237,1.8343,1.8417,1.8591,1.8851,1.9098,1.9292,1.9359,1.9366,1.9366,1.9366,1.9366,1.9366,1.9366,1.9366,1.9366,1.9366,1.9366,1.9366,1.9366,1.9366,1.9366,1.9366,1.9366,1.9366,1.9366,1.9366,1.9366,1.9366,1.9366,1.9366,1.9366,1.9366,1.9366,1.9366,1.9366,1.9366,1.9366,1.9482,1.9597,2.0378,2.1373,2.1141,2.0925,2.2601,2.5484,2.4859,2.4841,2.6218,2.7011,2.4505,2.2727,2.256,2.2299,2.1845,2.1997,2.3039,2.4503,1.9366,1.9366,1.9366,1.9366,1.9366,1.9366,1.9366,1.9366,1.9366,1.9366,1.9366,1.9366,1.9366,1.9366,1.9366,1.9366,1.9366,1.9366,1.9366,1.9366,1.9366,1.9366,1.9366,1.9366,1.9366,1.9366,1.9366,1.9366,1.9366,1.9366,1.9366,1.9366,1.9366,1.9366,1.9366,1.9366,1.9366,1.9366,1.9366,1.9366,1.9305,1.9092,1.8925,1.8878,1.8571,1.8337,1.8303,1.8217,1.805,1.7949,1.8023,1.7963,1.7889,1.7983,1.8143,1.8317,1.8437,1.8604,1.8711,1.8771,1.8891,1.9132,1.9299,1.9366,1.9366,1.9366,1.9366,1.9366,1.9366,1.9366,1.9366,1.9366,1.9366,1.9366,1.9366,1.9366,1.9366,1.9366,1.9366,1.9366,1.9366,1.9366,1.9366,1.9366,1.9366,1.9366,1.9366,1.9366,1.9366,1.9352,1.9461,1.9428,1.9421,1.9917,1.9917,1.9924,1.9815,2.0931,2.1934,2.2158,2.2386,2.502,2.7112,2.6245,2.5576,2.6639,2.67,2.58,2.4969,2.4436,2.3811,2.3174,2.3609,2.4106,2.508,1.9366,1.9366,1.9366,1.9366,1.9366,1.9366,1.9366,1.9366,1.9366,1.9366,1.9366,1.9366,1.9366,1.9366,1.9366,1.9366,1.9366,1.9366,1.9366,1.9366,1.9366,1.9366,1.9366,1.9366,1.9366,1.9366,1.9366,1.9366,1.9366,1.9366,1.9366,1.9366,1.9366,1.9366,1.9366,1.9366,1.9366,1.9366,1.9366,1.9366,1.9325,1.9185,1.9072,1.9032,1.8771,1.8637,1.8577,1.8477,1.827,1.8163,1.815,1.8196,1.8183,1.8237,1.843,1.8624,1.8798,1.8951,1.9032,1.9085,1.9145,1.9305,1.9345,1.9366,1.9366,1.9366,1.9366,1.9366,1.9366,1.9366,1.9366,1.9366,1.9366,1.9366,1.9366,1.9366,1.9366,1.9366,1.9366,1.9366,1.9366,1.9366,1.9366,1.9366,1.9366,1.9366,1.9366,1.9366,1.9366,1.9461,1.9421,1.9381,1.9442,2.0064,2.0694,2.1281,2.1972,2.2266,2.3367,2.4344,2.53,2.7375,2.8291,2.7561,2.7078,2.7179,2.6616,2.5656,2.582,2.6238,2.5356,2.4293,2.4463,2.4864,2.5102,1.9366,1.9366,1.9366,1.9366,1.9366,1.9366,1.9366,1.9366,1.9366,1.9366,1.9366,1.9366,1.9366,1.9366,1.9366,1.9366,1.9366,1.9366,1.9366,1.9366,1.9366,1.9366,1.9366,1.9366,1.9366,1.9366,1.9366,1.9366,1.9366,1.9366,1.9366,1.9345,1.9325,1.9325,1.9359,1.9366,1.9366,1.9359,1.9332,1.9319,1.9299,1.9245,1.9225,1.9219,1.9052,1.8918,1.8878,1.8751,1.8537,1.8317,1.825,1.8257,1.8237,1.821,1.8457,1.8885,1.8925,1.9078,1.9299,1.9332,1.9319,1.9345,1.9366,1.9366,1.9366,1.9366,1.9366,1.9366,1.9366,1.9366,1.9366,1.9366,1.9366,1.9352,1.9352,1.9279,1.9265,1.9394,1.9374,1.9394,1.9448,1.9366,1.9366,1.9366,1.9366,1.9366,1.9366,1.9366,1.9366,1.9455,1.9414,2.0336,2.0523,2.2534,2.3529,2.3609,2.4008,2.4292,2.4701,2.5463,2.6227,2.7473,2.8048,2.8184,2.8086,2.7592,2.675,2.5722,2.5918,2.6145,2.5971,2.5398,2.5567,2.5567,2.5664,1.9366,1.9366,1.9366,1.9366,1.9366,1.9366,1.9366,1.9366,1.9366,1.9366,1.9366,1.9366,1.9366,1.9366,1.9366,1.9366,1.9366,1.9366,1.9366,1.9366,1.9366,1.9366,1.9366,1.9366,1.9366,1.9366,1.9366,1.9366,1.9366,1.9366,1.9366,1.9345,1.9245,1.9199,1.9312,1.9345,1.9299,1.9105,1.9065,1.9072,1.9072,1.9085,1.9172,1.9339,1.9225,1.9192,1.9185,1.9032,1.8851,1.8591,1.8537,1.8531,1.8544,1.8544,1.8758,1.9112,1.9199,1.9245,1.9285,1.9239,1.9178,1.9272,1.9339,1.9339,1.9366,1.9366,1.9366,1.9366,1.9366,1.9366,1.9366,1.9366,1.9359,1.9312,1.9259,1.9098,1.9045,1.93,1.9428,1.9374,1.9435,1.9408,1.9441,1.9359,1.9366,1.9366,1.9366,1.9366,1.9366,1.9461,1.9543,2.1211,2.2518,2.4955,2.6435,2.5918,2.5459,2.5353,2.5691,2.6264,2.7041,2.7814,2.8048,2.8291,2.8153,2.7973,2.6869,2.5914,2.5724,2.5712,2.5693,2.5742,2.5635,2.5635,2.5664,1.9366,1.9366,1.9366,1.9366,1.9366,1.9366,1.9366,1.9366,1.9366,1.9366,1.9366,1.9366,1.9366,1.9366,1.9366,1.9366,1.9366,1.9366,1.9366,1.9366,1.9366,1.9366,1.9366,1.9366,1.9366,1.9366,1.9366,1.9366,1.9366,1.9366,1.9366,1.9319,1.9172,1.9158,1.9185,1.9085,1.8945,1.8791,1.8771,1.8778,1.8804,1.8878,1.9025,1.9178,1.9265,1.9352,1.9359,1.9325,1.9239,1.8998,1.8844,1.8791,1.8784,1.8811,1.8925,1.9118,1.9212,1.9145,1.8998,1.8905,1.8911,1.9152,1.9205,1.9272,1.9332,1.9366,1.9366,1.9366,1.9359,1.9366,1.9366,1.9366,1.9345,1.9305,1.9212,1.9058,1.9018,1.9287,1.9165,1.9226,1.9319,1.9327,1.9361,1.9455,1.9366,1.9366,1.9366,1.9366,1.9366,1.9461,1.951,2.1094,2.3553,2.6225,2.753,2.7663,2.7082,2.6426,2.6769,2.7168,2.7511,2.8165,2.8184,2.8252,2.8199,2.7796,2.6754,2.6109,2.579,2.5723,2.5664,2.5732,2.5732,2.5732,2.5732,1.9366,1.9366,1.9366,1.9366,1.9366,1.9366,1.9366,1.9366,1.9366,1.9366,1.9366,1.9366,1.9366,1.9366,1.9366,1.9366,1.9366,1.9366,1.9366,1.9366,1.9366,1.9366,1.9366,1.9366,1.9366,1.9366,1.9366,1.9366,1.9366,1.9366,1.9366,1.9345,1.9252,1.9138,1.8965,1.8718,1.8557,1.8484,1.8477,1.8517,1.8591,1.8744,1.8918,1.9085,1.9252,1.9345,1.9366,1.9345,1.9192,1.8951,1.8677,1.8571,1.8504,1.8484,1.8664,1.8824,1.8905,1.8778,1.8637,1.8564,1.8637,1.8851,1.8865,1.9052,1.9212,1.9272,1.9252,1.9292,1.9312,1.9345,1.9366,1.9366,1.9366,1.9312,1.9252,1.9172,1.9125,1.9038,1.8971,1.889,1.9027,1.9101,1.9178,1.9193,1.9259,1.9401,1.9414,1.9366,1.9366,1.9366,1.972,2.0408,2.3343,2.7298,2.8314,2.8269,2.8124,2.7229,2.758,2.796,2.8291,2.8301,2.8301,2.83,2.8131,2.7589,2.6413,2.5966,2.5732,2.5732,2.5732,2.5732,2.5732,2.5732,2.5732,1.9366,1.9366,1.9366,1.9366,1.9366,1.9366,1.9366,1.9366,1.9366,1.9366,1.9366,1.9366,1.9366,1.9366,1.9366,1.9366,1.9366,1.9366,1.9366,1.9366,1.9366,1.9366,1.9366,1.9366,1.9366,1.9366,1.9366,1.9366,1.9366,1.9366,1.9366,1.9352,1.9178,1.9018,1.8778,1.843,1.827,1.817,1.817,1.8263,1.841,1.8571,1.8804,1.9078,1.9272,1.9352,1.9366,1.9339,1.9178,1.8931,1.8637,1.849,1.8484,1.8317,1.8303,1.8564,1.8611,1.8571,1.847,1.8283,1.829,1.8484,1.8444,1.8631,1.8865,1.9058,1.9065,1.9192,1.9299,1.9352,1.9339,1.9325,1.9345,1.9325,1.9178,1.8931,1.8865,1.883,1.8648,1.8377,1.8406,1.8581,1.8769,1.9038,1.9092,1.926,1.9456,1.9435,1.9366,1.9366,1.9557,2.0224,2.2362,2.6059,2.7962,2.83,2.8291,2.8184,2.8301,2.8301,2.8301,2.8301,2.8301,2.8047,2.7627,2.6904,2.5956,2.5684,2.5732,2.5732,2.5732,2.5732,2.5732,2.5732,2.5732,1.9366,1.9366,1.9366,1.9366,1.9366,1.9366,1.9366,1.9366,1.9366,1.9366,1.9366,1.9366,1.9366,1.9366,1.9366,1.9366,1.9366,1.9366,1.9366,1.9366,1.9366,1.9366,1.9366,1.9366,1.9366,1.9366,1.9366,1.9366,1.9352,1.9359,1.9366,1.9339,1.9065,1.8871,1.8651,1.831,1.8009,1.7909,1.7889,1.7983,1.8143,1.8364,1.8731,1.8991,1.9178,1.9325,1.9435,1.9387,1.9078,1.8865,1.8584,1.8317,1.8303,1.8143,1.8083,1.8303,1.831,1.8217,1.8083,1.7949,1.8056,1.8143,1.8063,1.817,1.849,1.8771,1.8965,1.9158,1.9279,1.9359,1.9305,1.9272,1.9312,1.9352,1.8978,1.8604,1.8561,1.8529,1.8245,1.7741,1.7793,1.7862,1.8203,1.8592,1.8951,1.9287,1.9422,1.9441,1.9366,1.9366,1.9381,1.9668,2.1838,2.4599,2.6318,2.8291,2.8262,2.8213,2.8301,2.8301,2.8291,2.8329,2.827,2.7649,2.6927,2.6232,2.5683,2.5684,2.5732,2.5732,2.5732,2.5732,2.5732,2.5732,2.5732,1.9366,1.9366,1.9366,1.9366,1.9366,1.9366,1.9366,1.9366,1.9366,1.9366,1.9366,1.9366,1.9366,1.9366,1.9366,1.9366,1.9366,1.9366,1.9366,1.9366,1.9366,1.9366,1.9366,1.9366,1.9366,1.9366,1.9352,1.9325,1.9312,1.9265,1.9232,1.9285,1.8998,1.8758,1.8531,1.8223,1.7969,1.7822,1.7729,1.7729,1.7862,1.8136,1.8484,1.8611,1.8925,1.9347,1.9408,1.9172,1.8871,1.8776,1.8437,1.8096,1.8003,1.7989,1.7996,1.7996,1.8003,1.7909,1.7796,1.7689,1.7782,1.7829,1.7769,1.7889,1.8203,1.8484,1.8704,1.8971,1.9065,1.9159,1.9139,1.8958,1.8965,1.8925,1.8684,1.8464,1.837,1.8279,1.8017,1.7662,1.7589,1.7754,1.7725,1.8207,1.8446,1.905,1.9373,1.9408,1.93,1.9415,1.9642,1.9808,2.2926,2.538,2.6732,2.8213,2.8202,2.8202,2.8115,2.8154,2.8057,2.8123,2.8325,2.7688,2.6914,2.6226,2.5731,2.5723,2.5732,2.5732,2.5732,2.5732,2.5732,2.5732,2.5732,1.9366,1.9366,1.9366,1.9366,1.9366,1.9366,1.9366,1.9366,1.9366,1.9366,1.9366,1.9366,1.9366,1.9366,1.9366,1.9366,1.9366,1.9366,1.9366,1.9366,1.9366,1.9366,1.9366,1.9366,1.9366,1.9366,1.9339,1.9225,1.9072,1.9005,1.8911,1.8738,1.8597,1.8517,1.8437,1.815,1.7929,1.7796,1.7675,1.7695,1.7883,1.8009,1.8243,1.8424,1.8724,1.9417,1.9375,1.9097,1.9304,1.9506,1.8577,1.8037,1.7716,1.7709,1.7702,1.7695,1.7729,1.7669,1.7635,1.7589,1.7655,1.7662,1.7675,1.7816,1.7983,1.8163,1.833,1.8581,1.882,1.8816,1.885,1.8664,1.8492,1.8406,1.8397,1.833,1.827,1.8003,1.7815,1.7675,1.7669,1.7609,1.7569,1.7727,1.8048,1.85,1.9167,1.941,1.9264,1.9264,2.0005,2.1018,2.4989,2.7328,2.7961,2.79,2.7725,2.7588,2.7539,2.7637,2.7773,2.7859,2.7979,2.765,2.7112,2.631,2.5731,2.5693,2.5732,2.5732,2.5732,2.5732,2.5732,2.5732,2.5732,1.9366,1.9366,1.9366,1.9366,1.9366,1.9366,1.9366,1.9366,1.9366,1.9366,1.9366,1.9366,1.9366,1.9366,1.9366,1.9366,1.9366,1.9366,1.9366,1.9366,1.9366,1.9366,1.9366,1.9345,1.9366,1.9352,1.9192,1.9025,1.8778,1.8724,1.8624,1.8457,1.839,1.8283,1.8243,1.8016,1.7856,1.7816,1.7649,1.7709,1.7889,1.7976,1.809,1.8277,1.8611,1.9283,1.9488,1.9241,1.9262,1.9277,1.8545,1.7896,1.7635,1.7615,1.7602,1.7602,1.7602,1.7589,1.7589,1.7589,1.7589,1.7589,1.7589,1.7729,1.7729,1.7916,1.815,1.8413,1.8601,1.8715,1.8524,1.834,1.836,1.832,1.813,1.7916,1.7883,1.7769,1.7629,1.7622,1.7622,1.7629,1.7623,1.7567,1.7859,1.783,1.857,1.8707,1.8653,2.0069,2.0565,2.1814,2.5649,2.7034,2.6807,2.6862,2.6927,2.6904,2.7012,2.7158,2.7324,2.7486,2.7584,2.7201,2.6814,2.6152,2.5712,2.5674,2.5732,2.5732,2.5732,2.5732,2.5732,2.5732,2.5732,1.9366,1.9366,1.9366,1.9366,1.9366,1.9366,1.9366,1.9366,1.9366,1.9366,1.9366,1.9366,1.9366,1.9366,1.9366,1.9366,1.9366,1.9366,1.9366,1.9366,1.9366,1.9299,1.9265,1.9279,1.9212,1.9105,1.8951,1.8704,1.8437,1.8424,1.8397,1.8337,1.8176,1.7989,1.7903,1.7769,1.7629,1.7649,1.7589,1.7589,1.7709,1.7829,1.7929,1.8076,1.8319,1.9206,1.965,1.9535,1.9256,1.9042,1.878,1.7867,1.7602,1.7589,1.7589,1.7589,1.7589,1.7589,1.7589,1.7589,1.7589,1.7589,1.7589,1.7589,1.7602,1.7722,1.7956,1.8103,1.829,1.833,1.8134,1.8107,1.8134,1.8121,1.7869,1.7615,1.7602,1.7595,1.7589,1.7589,1.7589,1.7589,1.7576,1.7635,1.7593,1.7564,1.7597,1.761,1.8273,2.0803,2.2429,2.3425,2.575,2.6404,2.5888,2.6053,2.6377,2.6579,2.6722,2.6748,2.6865,2.7137,2.714,2.6704,2.6261,2.577,2.5673,2.5655,2.5732,2.5732,2.5732,2.5732,2.5732,2.5732,2.5732,1.9366,1.9366,1.9366,1.9366,1.9366,1.9366,1.9366,1.9366,1.9366,1.9366,1.9366,1.9366,1.9366,1.9366,1.9366,1.9345,1.9299,1.9312,1.9352,1.9366,1.9252,1.9158,1.9072,1.9005,1.8858,1.8724,1.8584,1.8404,1.8163,1.8116,1.8009,1.7816,1.7789,1.7695,1.7682,1.7589,1.7589,1.7589,1.7582,1.7687,1.7793,1.7761,1.7649,1.7709,1.7722,1.9396,2.0289,1.9962,2.0346,2.0205,1.9063,1.801,1.7589,1.7589,1.7589,1.7589,1.7589,1.7589,1.7589,1.7589,1.7589,1.7589,1.7589,1.7589,1.7595,1.7595,1.7742,1.7742,1.7862,1.7856,1.7809,1.7802,1.7822,1.7822,1.7615,1.7595,1.7589,1.7589,1.7589,1.7589,1.7589,1.7589,1.7602,1.7576,1.7569,1.7623,1.7609,1.7702,1.8087,2.0885,2.4061,2.5061,2.6187,2.601,2.5752,2.5727,2.6014,2.6152,2.6329,2.6457,2.6545,2.6784,2.6636,2.633,2.6084,2.5723,2.5732,2.5732,2.5732,2.5732,2.5732,2.5732,2.5732,2.5732,2.5732]},{"header":{"parameterUnit":"m.s-1","parameterCategory":1,"la1":31.0,"la2":29.5877,"lo1":-88.7671,"lo2":-86.6584,"dy":0.0162,"dx":0.0185,"nx":115,"ny":88,"refTime":"2024-07-31T12:00:00:Z","depth":0,"parameterNumber":3,"parameterNumberName":"V-component_of_WINDS"},"data":[0.0,0.0,0.0,0.0,0.0,0.0,0.0,0.0,0.0,0.0,0.0,0.0,0.0,0.0,0.0,0.0,0.0,0.0,0.0,0.0,0.0,0.0,0.0,0.0,0.0,0.0,0.0,0.0,0.0,0.0,0.0,0.0,0.0,0.0,0.0,0.0,0.0,0.0,0.0,0.0,0.0,0.0,0.0,0.0,0.0,0.0,0.0,0.0,0.0,0.0,0.0,0.0,0.0,0.0,0.0,0.0,0.0,0.0,0.0,0.0,0.0,0.0,0.0,0.0,0.0,0.0,0.0,0.0,0.0,0.0,0.0,0.0,0.0,0.0,0.0,0.0,0.0,0.0,0.0,0.0,0.0,0.0,0.0,0.0,0.0,0.0,0.0,0.0,0.0,0.0,0.0,0.0,0.0,0.0,0.0,0.0,0.0,0.0,0.0,0.0,0.0,0.0,0.0,0.0,0.0,0.0,0.0,0.0,0.0,0.0,0.0,0.0,0.0,0.0,0.0,0.0,0.0,0.0,0.0,0.0,0.0,0.0,0.0,0.0,0.0,0.0,0.0,0.0,0.0,0.0,0.0,0.0,0.0,0.0,0.0,0.0,0.0,0.0,0.0,0.0,0.0,0.0,0.0,0.0,0.0,0.0,0.0,0.0,0.0,0.0,0.0,0.0,0.0,0.0,0.0,0.0,0.0,0.0,0.0,0.0,0.0,0.0,0.0,0.0,0.0,0.0,0.0,0.0,0.0,0.0,0.0,0.0,0.0,0.0,0.0,0.0,0.0,0.0,0.0,0.0,0.0,0.0,0.0,0.0,0.0,0.0,0.0,0.0,0.0,0.0,0.0,0.0,0.0,0.0,0.0,0.0,0.0,0.0,0.0,0.0,0.0,0.0,0.0,0.0,0.0,0.0,0.0,0.0,0.0,0.0,0.0,0.0,0.0,0.0,0.0,0.0,0.0,0.0,0.0,0.0,0.0,0.0,0.0,0.0,0.0,0.0,0.0,0.0,0.0,0.0,0.0,0.0,0.0,0.0,0.0,0.0,0.0,0.0,0.0,0.0,0.0,0.0,0.0,0.0,0.0,0.0,0.0,0.0,0.0,0.0,0.0,0.0,0.0,0.0,0.0,0.0,0.0,0.0,0.0,0.0,0.0,0.0,0.0,0.0,0.0,0.0,0.0,0.0,0.0,0.0,0.0,0.0,0.0,0.0,0.0,0.0,0.0,0.0,0.0,0.0,0.0,0.0,0.0,0.0,0.0,0.0,0.0,0.0,0.0,0.0,0.0,0.0,0.0,0.0,0.0,0.0,0.0,0.0,0.0,0.0,0.0,0.0,0.0,0.0,0.0,0.0,0.0,0.0,0.0,0.0,0.0,0.0,0.0,0.0,0.0,0.0,0.0,0.0,0.0,0.0,0.0,0.0,0.0,0.0,0.0,0.0,0.0,0.0,0.0,0.0,0.0,0.0,0.0,0.0,0.0,0.0,0.0,0.0,0.0,0.0,0.0,0.0,0.0,0.0,0.0,0.0,0.0,0.0,0.0,0.0,0.0,0.0,0.0,0.0,0.0,0.0,0.0,0.0,0.0,0.0,0.0,0.0,0.0,0.0,0.0,0.0,0.0,0.0,0.0,0.0,0.0,0.0,0.0,0.0,0.0,0.0,0.0,0.0,0.0,0.0,0.0,0.0,0.0,0.0,0.0,0.0,0.0,0.0,0.0,0.0,0.0,0.0,0.0,0.0,0.0,0.0,0.0,0.0,0.0,0.0,0.0,0.0,0.0,0.0,0.0,0.0,0.0,0.0,0.0,0.0,0.0,0.0,0.0,0.0,0.0,0.0,0.0,0.0,0.0,0.0,0.0,0.0,0.0,0.0,0.0,0.0,0.0,0.0,0.0,0.0,0.0,0.0,0.0,0.0,0.0,0.0,0.0,0.0,0.0,0.0,0.0,0.0,0.0,0.0,0.0,0.0,0.0,0.0,0.0,0.0,0.0,0.0,0.0,0.0,0.0,0.0,0.0,0.0,0.0,0.0,0.0,0.0,0.0,0.0,0.0,0.0,0.0,0.0,0.0,0.0,0.0,0.0,0.0,0.0,0.0,0.0,0.0,0.0,0.0,0.0,0.0,0.0,0.0,0.0,0.0,0.0,0.0,0.0,0.0,0.0,0.0,0.0,0.0,0.0,0.0,0.0,0.0,0.0,0.0,0.0,0.0,0.0,0.0,0.0,0.0,0.0,0.0,0.0,0.0,0.0,0.0,0.0,0.0,0.0,0.0,0.0,0.0,0.0,0.0,0.0,0.0,0.0,0.0,0.0,0.0,0.0,0.0,0.0,0.0,0.0,0.0,0.0,0.0,0.0,0.0,0.0,0.0,0.0,0.0,0.0,0.0,0.0,0.0,0.0,0.0,0.0,0.0,0.0,0.0,0.0,0.0,0.0,0.0,0.0,0.0,0.0,0.0,0.0,0.0,0.0,0.0,0.0,0.0,0.0,0.0,0.0,0.0,0.0,0.0,0.0,0.0,0.0,0.0,0.0,0.0,0.0,0.0,0.0,0.0,0.0,0.0,0.0,0.0,0.0,0.0,0.0,0.0,0.0,0.0,0.0,0.0,0.0,0.0,0.0,0.0,0.0,0.0,0.0,0.0,0.0,0.0,0.0,0.0,0.0,0.0,0.0,0.0,0.0,0.0,0.0,0.0,0.0,0.0,0.0,0.0,0.0,0.0,0.0,0.0,0.0,0.0,0.0,0.0,0.0,0.0,0.0,0.0,0.0,0.0,0.0,0.0,0.0,0.0,0.0,0.0,0.0,0.0,0.0,0.0,0.0,0.0,0.0,0.0,0.0,0.0,0.0,0.0,0.0,0.0,0.0,0.0,0.0,0.0,0.0,0.0,0.0,0.0,0.0,0.0,0.0,0.0,0.0,0.0,0.0,0.0,0.0,0.0,0.0,0.0,0.0,0.0,0.0,0.0,0.0,0.0,0.0,0.0,0.0,0.0,0.0,0.0,0.0,0.0,0.0,0.0,0.0,0.0,0.0,0.0,0.0,0.0,0.0,0.0,0.0,0.0,0.0,0.0,0.0,0.0,0.0,0.0,0.0,0.0,0.0,0.0,0.0,0.0,0.0,0.0,0.0,0.0,0.0,0.0,0.0,0.0,0.0,0.0,0.0,0.0,0.0,0.0,0.0,0.0,0.0,0.0,0.0,0.0,0.0,0.0,0.0,0.0,0.0,0.0,0.0,0.0,0.0,0.0,0.0,0.0,0.0,0.0,0.0,0.0,0.0,0.0,0.0,0.0,0.0,0.0,0.0,0.0,0.0,0.0,0.0,0.0,0.0,0.0,0.0,0.0,0.0,0.0,0.0,0.0,0.0,0.0,0.0,0.0,0.0,0.0,0.0,0.0,0.0,0.0,0.0,0.0,0.0,0.0,0.0,0.0,0.0,0.0,0.0,0.0,0.0,0.0,0.0,0.0,0.0,0.0,0.0,0.0,0.0,0.0,0.0,0.0,0.0,0.0,0.0,0.0,0.0,0.0,0.0,0.0,0.0,0.0,0.0,0.0,0.0,0.0,0.0,0.0,0.0,0.0,0.0,0.0,0.0,0.0,0.0,0.0,0.0,0.0,0.0,0.0,0.0,0.0,0.0,0.0,0.0,0.0,0.0,0.0,0.0,0.0,0.0,0.0,0.0,0.0,0.0,0.0,0.0,0.0,0.0,0.0,0.0,0.0,0.0,0.0,0.0,0.0,0.0,0.0,0.0,0.0,0.0,0.0,0.0,0.0,0.0,0.0,0.0,0.0,0.0,0.0,0.0,0.0,0.0,0.0,0.0,0.0,0.0,0.0,0.0,0.0,0.0,0.0,0.0,0.0,0.0,0.0,0.0,0.0,0.0,0.0,0.0,0.0,0.0,0.0,0.0,0.0,0.0,0.0,0.0,0.0,0.0,0.0,0.0,0.0,0.0,0.0,0.0,0.0,0.0,0.0,0.0,0.0,0.0,0.0,0.0,0.0,0.0,0.0,0.0,0.0,0.0,0.0,0.0,0.0,0.0,0.0,0.0,0.0,0.0,0.0,0.0,0.0,0.0,0.0,0.0,0.0,0.0,0.0,0.0,0.0,0.0,0.0,0.0,0.0,0.0,0.0,0.0,0.0,0.0,0.0,0.0,0.0,0.0,0.0,0.0,0.0,0.0,0.0,0.0,0.0,0.0,0.0,0.0,0.0,0.0,0.0,0.0,0.0,0.0,0.0,0.0,0.0,0.0,-1.1641,0.0,0.0,0.0,0.0,0.0,0.0,0.0,0.0,0.0,0.0,0.0,0.0,0.0,0.0,0.0,0.0,0.0,0.0,0.0,0.0,0.0,0.0,0.0,0.0,0.0,0.0,0.0,0.0,0.0,0.0,0.0,0.0,0.0,0.0,0.0,0.0,0.0,0.0,0.0,0.0,0.0,0.0,0.0,0.0,0.0,0.0,0.0,0.0,0.0,0.0,0.0,0.0,0.0,0.0,0.0,0.0,0.0,0.0,0.0,0.0,0.0,0.0,0.0,0.0,0.0,0.0,0.0,0.0,0.0,0.0,0.0,0.0,0.0,0.0,0.0,0.0,0.0,0.0,0.0,0.0,0.0,0.0,0.0,0.0,0.0,0.0,0.0,0.0,0.0,0.0,0.0,0.0,0.0,0.0,0.0,0.0,0.0,0.0,0.0,0.0,0.0,0.0,0.0,0.0,0.0,0.0,0.0,0.0,0.0,0.0,-1.5,-1.4121,-1.332,-1.25,-1.166,0.0,0.0,0.0,0.0,0.0,0.0,0.0,0.0,0.0,0.0,0.0,0.0,0.0,0.0,0.0,0.0,0.0,0.0,0.0,0.0,0.0,0.0,0.0,0.0,0.0,0.0,0.0,0.0,0.0,0.0,0.0,0.0,0.0,0.0,0.0,0.0,0.0,0.0,0.0,0.0,0.0,0.0,0.0,0.0,0.0,0.0,0.0,0.0,0.0,0.0,0.0,0.0,0.0,0.0,0.0,0.0,0.0,0.0,0.0,0.0,0.0,0.0,0.0,0.0,0.0,0.0,0.0,0.0,0.0,0.0,0.0,0.0,0.0,0.0,0.0,0.0,0.0,0.0,0.0,0.0,0.0,0.0,0.0,0.0,0.0,0.0,0.0,0.0,0.0,0.0,0.0,0.0,0.0,0.0,0.0,0.0,0.0,0.0,0.0,0.0,0.0,0.0,0.0,0.0,0.0,0.0,0.0,0.0,0.0,0.0,0.0,0.0,-1.3862,-1.3138,-1.2498,0.0,0.0,0.0,0.0,0.0,0.0,0.0,0.0,0.0,0.0,0.0,0.0,0.0,0.0,0.0,0.0,0.0,0.0,0.0,0.0,0.0,0.0,0.0,0.0,0.0,0.0,0.0,0.0,0.0,0.0,0.0,0.0,0.0,0.0,0.0,0.0,0.0,0.0,0.0,0.0,0.0,0.0,0.0,0.0,0.0,0.0,0.0,0.0,0.0,0.0,0.0,0.0,0.0,0.0,0.0,0.0,0.0,0.0,0.0,0.0,0.0,0.0,0.0,0.0,0.0,0.0,0.0,0.0,0.0,0.0,0.0,0.0,0.0,0.0,0.0,0.0,0.0,0.0,0.0,0.0,0.0,0.0,0.0,0.0,0.0,0.0,0.0,0.0,0.0,0.0,0.0,0.0,0.0,0.0,0.0,0.0,0.0,0.0,0.0,0.0,0.0,0.0,0.0,0.0,0.0,0.0,0.0,0.0,0.0,0.0,-1.4077,-1.6286,-1.5523,0.0,-1.4974,0.0,0.0,0.0,0.0,0.0,0.0,0.0,0.0,0.0,0.0,0.0,0.0,0.0,0.0,0.0,0.0,0.0,0.0,0.0,0.0,0.0,0.0,0.0,0.0,0.0,0.0,0.0,0.0,0.0,0.0,0.0,0.0,0.0,0.0,0.0,0.0,0.0,0.0,0.0,0.0,0.0,0.0,0.0,0.0,0.0,0.0,0.0,0.0,0.0,0.0,0.0,0.0,0.0,0.0,0.0,0.0,0.0,0.0,0.0,0.0,0.0,0.0,0.0,0.0,0.0,0.0,0.0,0.0,0.0,0.0,0.0,0.0,0.0,0.0,0.0,0.0,0.0,0.0,0.0,0.0,0.0,0.0,0.0,0.0,0.0,0.0,0.0,0.0,0.0,0.0,0.0,0.0,0.0,0.0,0.0,0.0,0.0,0.0,0.0,0.0,0.0,0.0,0.0,0.0,0.0,0.0,0.0,0.0,0.0,0.0,-1.5299,-1.5802,-1.4981,-1.4778,0.0,0.0,0.0,0.0,0.0,0.0,0.0,0.0,0.0,0.0,0.0,0.0,0.0,0.0,0.0,0.0,0.0,0.0,0.0,0.0,0.0,0.0,0.0,0.0,0.0,0.0,0.0,0.0,0.0,0.0,0.0,0.0,0.0,0.0,0.0,0.0,0.0,0.0,0.0,0.0,0.0,0.0,0.0,0.0,0.0,0.0,0.0,0.0,0.0,0.0,0.0,0.0,0.0,0.0,0.0,0.0,0.0,0.0,0.0,0.0,0.0,0.0,0.0,0.0,0.0,0.0,0.0,0.0,0.0,0.0,0.0,0.0,0.0,0.0,0.0,0.0,0.0,0.0,0.0,0.0,0.0,0.0,0.0,0.0,0.0,0.0,0.0,0.0,0.0,0.0,0.0,0.0,0.0,0.0,0.0,0.0,0.0,0.0,0.0,0.0,0.0,0.0,0.0,0.0,0.0,0.0,0.0,0.0,0.0,0.0,-1.5395,0.0,-1.5925,-1.5139,-1.475,-1.491,0.0,0.0,0.0,0.0,0.0,0.0,0.0,0.0,0.0,0.0,0.0,0.0,0.0,0.0,0.0,0.0,0.0,0.0,0.0,0.0,0.0,0.0,0.0,0.0,0.0,0.0,0.0,0.0,0.0,0.0,0.0,0.0,0.0,0.0,0.0,0.0,0.0,0.0,0.0,0.0,0.0,0.0,0.0,0.0,0.0,0.0,0.0,0.0,0.0,0.0,0.0,0.0,0.0,0.0,0.0,0.0,0.0,0.0,0.0,0.0,0.0,0.0,0.0,0.0,0.0,0.0,0.0,0.0,0.0,0.0,0.0,0.0,0.0,0.0,0.0,0.0,0.0,0.0,0.0,0.0,0.0,0.0,0.0,0.0,0.0,0.0,0.0,0.0,0.0,0.0,0.0,0.0,0.0,0.0,0.0,0.0,0.0,0.0,0.0,0.0,0.0,0.0,0.0,0.0,0.0,0.0,0.0,0.0,0.0,-1.56,-1.5183,-1.7484,-1.6811,-1.5632,0.0,0.0,0.0,0.0,0.0,0.0,0.0,0.0,0.0,0.0,0.0,0.0,0.0,0.0,0.0,0.0,0.0,0.0,0.0,0.0,0.0,0.0,0.0,0.0,0.0,0.0,0.0,0.0,0.0,0.0,0.0,0.0,0.0,0.0,0.0,0.0,0.0,0.0,0.0,0.0,0.0,0.0,0.0,0.0,0.0,0.0,0.0,0.0,0.0,0.0,0.0,0.0,0.0,0.0,0.0,0.0,0.0,0.0,0.0,0.0,0.0,0.0,0.0,0.0,0.0,0.0,0.0,0.0,0.0,0.0,0.0,0.0,0.0,0.0,0.0,0.0,0.0,0.0,0.0,0.0,0.0,0.0,0.0,0.0,0.0,0.0,0.0,0.0,0.0,0.0,0.0,0.0,0.0,0.0,0.0,0.0,0.0,0.0,0.0,0.0,0.0,0.0,0.0,0.0,0.0,0.0,0.0,0.0,0.0,-1.3228,-1.369,-1.5651,-1.9081,-1.6439,-1.5055,0.0,0.0,0.0,0.0,0.0,0.0,0.0,0.0,0.0,0.0,0.0,0.0,0.0,0.0,0.0,0.0,0.0,0.0,0.0,0.0,0.0,0.0,0.0,0.0,0.0,0.0,0.0,0.0,0.0,0.0,0.0,0.0,0.0,0.0,0.0,0.0,0.0,0.0,0.0,0.0,0.0,0.0,0.0,0.0,0.0,0.0,0.0,0.0,0.0,0.0,0.0,0.0,0.0,0.0,0.0,0.0,0.0,0.0,0.0,0.0,0.0,0.0,0.0,0.0,0.0,0.0,0.0,0.0,0.0,0.0,0.0,0.0,0.0,0.0,0.0,0.0,0.0,0.0,0.0,0.0,0.0,0.0,0.0,0.0,0.0,0.0,0.0,0.0,0.0,0.0,0.0,0.0,0.0,0.0,0.0,0.0,0.0,0.0,0.0,0.0,0.0,0.0,0.0,0.0,0.0,0.0,0.0,0.0,0.0,-1.245,0.0,-1.7066,0.0,-1.6066,-1.434,0.0,0.0,0.0,0.0,0.0,0.0,0.0,0.0,0.0,0.0,0.0,0.0,0.0,0.0,0.0,0.0,0.0,0.0,0.0,0.0,0.0,0.0,0.0,0.0,0.0,0.0,0.0,0.0,0.0,0.0,0.0,0.0,0.0,0.0,0.0,0.0,0.0,0.0,0.0,0.0,0.0,0.0,0.0,0.0,0.0,0.0,0.0,0.0,0.0,0.0,0.0,0.0,0.0,0.0,0.0,0.0,0.0,0.0,0.0,0.0,0.0,0.0,0.0,0.0,0.0,0.0,0.0,0.0,0.0,0.0,0.0,0.0,0.0,0.0,0.0,0.0,0.0,0.0,0.0,0.0,0.0,0.0,0.0,0.0,0.0,0.0,0.0,0.0,0.0,0.0,0.0,0.0,0.0,0.0,0.0,0.0,0.0,0.0,0.0,0.0,0.0,0.0,0.0,0.0,0.0,0.0,0.0,0.0,-1.2439,-1.6961,-1.8997,-1.9073,-1.7387,-1.5841,-1.3513,0.0,0.0,0.0,0.0,0.0,0.0,0.0,0.0,0.0,0.0,0.0,0.0,0.0,0.0,0.0,0.0,0.0,0.0,0.0,0.0,0.0,0.0,0.0,0.0,0.0,0.0,0.0,0.0,0.0,0.0,0.0,0.0,0.0,0.0,0.0,0.0,0.0,0.0,0.0,0.0,0.0,0.0,0.0,0.0,0.0,0.0,0.0,0.0,0.0,0.0,0.0,0.0,0.0,0.0,0.0,0.0,0.0,0.0,0.0,0.0,0.0,0.0,0.0,0.0,0.0,0.0,0.0,0.0,0.0,0.0,0.0,0.0,0.0,0.0,0.0,0.0,0.0,0.0,0.0,0.0,0.0,0.0,0.0,0.0,0.0,0.0,0.0,0.0,0.0,0.0,0.0,0.0,0.0,0.0,0.0,0.0,0.0,0.0,0.0,0.0,0.0,0.0,0.0,0.0,0.0,0.0,0.0,0.0,0.0,-1.4858,-1.6422,-1.7545,-1.8001,-1.5433,-1.4063,0.0,0.0,0.0,0.0,0.0,0.0,0.0,0.0,0.0,0.0,0.0,0.0,0.0,0.0,0.0,0.0,0.0,0.0,0.0,0.0,0.0,0.0,0.0,0.0,0.0,0.0,0.0,0.0,0.0,0.0,0.0,0.0,0.0,0.0,0.0,0.0,0.0,0.0,0.0,0.0,0.0,0.0,0.0,0.0,0.0,0.0,0.0,0.0,0.0,0.0,0.0,0.0,0.0,0.0,0.0,0.0,0.0,0.0,0.0,0.0,0.0,0.0,0.0,0.0,0.0,0.0,0.0,0.0,0.0,0.0,0.0,0.0,0.0,0.0,0.0,0.0,0.0,0.0,0.0,0.0,0.0,0.0,0.0,0.0,0.0,0.0,0.0,0.0,0.0,0.0,0.0,0.0,0.0,0.0,0.0,0.0,0.0,0.0,0.0,0.0,0.0,0.0,0.0,0.0,0.0,0.0,0.0,0.0,0.0,-1.6467,-1.82,-1.9338,-1.9731,-1.6855,-1.5402,-1.546,0.0,0.0,0.0,0.0,0.0,0.0,0.0,0.0,0.0,0.0,0.0,0.0,0.0,0.0,0.0,0.0,0.0,0.0,0.0,0.0,0.0,0.0,0.0,0.0,0.0,0.0,0.0,0.0,0.0,0.0,0.0,0.0,0.0,0.0,0.0,0.0,0.0,0.0,0.0,0.0,0.0,0.0,0.0,0.0,0.0,0.0,0.0,0.0,0.0,0.0,0.0,0.0,0.0,0.0,0.0,0.0,0.0,0.0,0.0,0.0,0.0,0.0,0.0,0.0,0.0,0.0,0.0,0.0,0.0,0.0,0.0,0.0,0.0,0.0,0.0,0.0,0.0,0.0,0.0,0.0,0.0,0.0,0.0,0.0,0.0,0.0,0.0,0.0,0.0,0.0,0.0,0.0,0.0,0.0,0.0,0.0,0.0,0.0,0.0,0.0,0.0,0.0,0.0,0.0,0.0,0.0,0.0,0.0,-2.0886,-2.3502,-2.3908,-2.204,-1.9722,-1.7367,0.0,0.0,0.0,0.0,0.0,0.0,0.0,0.0,0.0,0.0,0.0,0.0,0.0,0.0,0.0,0.0,0.0,0.0,0.0,0.0,0.0,0.0,0.0,0.0,0.0,0.0,0.0,0.0,0.0,0.0,0.0,0.0,0.0,0.0,0.0,0.0,0.0,0.0,0.0,0.0,0.0,0.0,0.0,0.0,0.0,0.0,0.0,0.0,0.0,0.0,0.0,0.0,0.0,0.0,0.0,0.0,0.0,0.0,0.0,0.0,0.0,0.0,0.0,0.0,0.0,0.0,0.0,0.0,0.0,0.0,0.0,0.0,0.0,0.0,0.0,0.0,0.0,0.0,0.0,0.0,0.0,0.0,0.0,0.0,0.0,0.0,0.0,0.0,0.0,0.0,0.0,0.0,0.0,0.0,0.0,0.0,0.0,0.0,0.0,0.0,0.0,0.0,0.0,0.0,0.0,0.0,0.0,0.0,0.0,-2.3271,-2.5705,-2.6204,-2.4466,-2.1524,-1.9368,0.0,0.0,0.0,0.0,0.0,0.0,0.0,0.0,0.0,0.0,0.0,0.0,0.0,0.0,0.0,0.0,0.0,0.0,0.0,0.0,0.0,0.0,0.0,0.0,0.0,0.0,0.0,0.0,0.0,0.0,0.0,0.0,0.0,0.0,0.0,0.0,0.0,0.0,0.0,0.0,0.0,0.0,0.0,0.0,0.0,0.0,0.0,0.0,0.0,0.0,0.0,0.0,0.0,0.0,0.0,0.0,0.0,0.0,0.0,0.0,0.0,0.0,0.0,0.0,0.0,0.0,0.0,0.0,0.0,0.0,0.0,0.0,0.0,0.0,0.0,0.0,0.0,0.0,0.0,0.0,0.0,0.0,0.0,0.0,0.0,0.0,0.0,0.0,0.0,0.0,0.0,0.0,0.0,0.0,0.0,0.0,0.0,0.0,0.0,0.0,0.0,0.0,0.0,0.0,0.0,0.0,0.0,0.0,-2.274,-2.5181,-2.7567,-2.8356,-2.7438,-2.3933,-2.1345,0.0,0.0,0.0,0.0,0.0,0.0,0.0,0.0,0.0,0.0,0.0,0.0,0.0,0.0,0.0,0.0,0.0,0.0,0.0,0.0,0.0,0.0,0.0,0.0,0.0,0.0,0.0,0.0,0.0,0.0,0.0,0.0,0.0,0.0,0.0,0.0,0.0,0.0,0.0,0.0,0.0,0.0,0.0,0.0,0.0,0.0,0.0,0.0,0.0,0.0,0.0,0.0,0.0,0.0,0.0,0.0,0.0,0.0,0.0,0.0,0.0,0.0,0.0,0.0,0.0,0.0,0.0,0.0,0.0,0.0,0.0,0.0,0.0,0.0,0.0,0.0,0.0,0.0,0.0,0.0,0.0,0.0,0.0,0.0,0.0,0.0,0.0,0.0,0.0,0.0,0.0,0.0,0.0,0.0,0.0,0.0,0.0,0.0,0.0,0.0,0.0,0.0,0.0,0.0,0.0,0.0,0.0,0.0,-2.4392,-2.6686,-2.909,-3.032,-3.0228,-2.6521,-2.329,0.0,0.0,0.0,0.0,0.0,0.0,0.0,0.0,0.0,0.0,0.0,0.0,0.0,0.0,0.0,0.0,0.0,0.0,0.0,0.0,0.0,0.0,0.0,0.0,0.0,0.0,0.0,0.0,0.0,0.0,0.0,0.0,0.0,0.0,0.0,0.0,0.0,0.0,0.0,0.0,0.0,0.0,0.0,0.0,0.0,0.0,0.0,0.0,0.0,0.0,0.0,0.0,0.0,0.0,0.0,0.0,0.0,0.0,0.0,0.0,0.0,0.0,0.0,0.0,0.0,0.0,0.0,0.0,0.0,0.0,0.0,0.0,0.0,0.0,0.0,0.0,0.0,0.0,0.0,0.0,0.0,0.0,0.0,0.0,0.0,0.0,0.0,0.0,0.0,0.0,0.0,0.0,0.0,0.0,0.0,0.0,0.0,0.0,0.0,0.0,0.0,0.0,0.0,0.0,0.0,0.0,0.0,0.0,-2.5731,-2.753,-2.9898,-3.1146,-3.1127,-2.786,-2.4961,0.0,0.0,0.0,0.0,0.0,0.0,0.0,0.0,0.0,0.0,0.0,0.0,0.0,0.0,0.0,0.0,0.0,0.0,0.0,0.0,0.0,0.0,0.0,0.0,0.0,0.0,0.0,0.0,0.0,0.0,0.0,0.0,0.0,0.0,0.0,0.0,0.0,0.0,0.0,0.0,0.0,0.0,0.0,0.0,0.0,0.0,0.0,0.0,-1.4916,0.0,0.0,0.0,0.0,0.0,0.0,0.0,0.0,0.0,0.0,0.0,0.0,0.0,0.0,0.0,0.0,0.0,0.0,0.0,0.0,0.0,0.0,0.0,0.0,0.0,0.0,0.0,0.0,0.0,0.0,0.0,0.0,0.0,0.0,0.0,0.0,0.0,0.0,0.0,0.0,0.0,0.0,0.0,0.0,0.0,0.0,0.0,0.0,0.0,0.0,0.0,0.0,0.0,0.0,0.0,0.0,0.0,0.0,0.0,-2.6924,-2.8888,-3.0907,-3.1971,-3.188,-2.9567,-2.6814,0.0,0.0,0.0,0.0,0.0,0.0,0.0,0.0,0.0,0.0,0.0,0.0,0.0,0.0,0.0,0.0,0.0,0.0,0.0,0.0,0.0,0.0,0.0,0.0,0.0,0.0,0.0,0.0,0.0,0.0,0.0,0.0,0.0,0.0,0.0,0.0,0.0,0.0,0.0,0.0,0.0,0.0,0.0,0.0,0.0,0.0,0.0,0.0,0.0,0.0,0.0,0.0,0.0,0.0,0.0,0.0,0.0,0.0,0.0,0.0,0.0,0.0,0.0,0.0,0.0,0.0,0.0,0.0,0.0,0.0,0.0,0.0,0.0,0.0,0.0,0.0,0.0,0.0,0.0,0.0,0.0,0.0,0.0,0.0,0.0,0.0,0.0,0.0,0.0,0.0,0.0,0.0,0.0,0.0,0.0,0.0,0.0,0.0,0.0,0.0,0.0,0.0,0.0,0.0,0.0,0.0,0.0,-2.4722,-2.7842,-3.0301,-3.1971,-3.2771,-3.2761,-3.1127,-2.8429,-2.4704,0.0,0.0,0.0,0.0,0.0,0.0,0.0,0.0,0.0,0.0,0.0,0.0,0.0,0.0,0.0,0.0,0.0,0.0,0.0,0.0,0.0,0.0,0.0,0.0,0.0,0.0,0.0,0.0,0.0,0.0,0.0,0.0,0.0,0.0,0.0,0.0,0.0,0.0,-1.3792,-1.5331,0.0,0.0,0.0,0.0,0.0,0.0,0.0,0.0,-1.6517,0.0,0.0,0.0,0.0,0.0,0.0,0.0,0.0,0.0,0.0,0.0,0.0,0.0,0.0,0.0,0.0,0.0,0.0,0.0,0.0,0.0,0.0,0.0,0.0,0.0,0.0,0.0,0.0,0.0,0.0,0.0,0.0,0.0,0.0,0.0,0.0,0.0,0.0,0.0,0.0,0.0,0.0,0.0,0.0,0.0,0.0,0.0,0.0,0.0,0.0,0.0,0.0,0.0,0.0,0.0,0.0,-2.3511,-2.5585,-2.8099,-3.1127,-3.2779,-3.3605,-3.3532,-3.1403,-2.8943,-2.6245,0.0,0.0,0.0,0.0,0.0,0.0,0.0,0.0,0.0,0.0,0.0,0.0,0.0,0.0,0.0,0.0,0.0,0.0,0.0,0.0,0.0,0.0,0.0,0.0,0.0,0.0,0.0,0.0,0.0,0.0,0.0,0.0,0.0,0.0,0.0,0.0,0.0,0.0,0.0,-1.8227,-1.8943,0.0,0.0,0.0,0.0,0.0,0.0,0.0,0.0,-1.6847,0.0,0.0,0.0,0.0,0.0,0.0,0.0,0.0,0.0,0.0,0.0,0.0,0.0,0.0,0.0,0.0,0.0,0.0,0.0,0.0,0.0,0.0,0.0,0.0,0.0,0.0,0.0,0.0,0.0,0.0,0.0,0.0,0.0,0.0,0.0,0.0,0.0,0.0,0.0,0.0,0.0,0.0,0.0,0.0,0.0,0.0,0.0,0.0,0.0,0.0,0.0,0.0,0.0,0.0,0.0,-2.2868,-2.6594,-2.942,-3.1347,-3.2963,-3.3605,-3.3146,-3.0834,-2.8448,0.0,0.0,0.0,0.0,0.0,0.0,0.0,0.0,0.0,0.0,0.0,0.0,0.0,0.0,0.0,0.0,0.0,0.0,0.0,0.0,0.0,0.0,0.0,0.0,0.0,0.0,0.0,0.0,0.0,0.0,0.0,0.0,0.0,0.0,0.0,0.0,0.0,0.0,0.0,0.0,-1.917,-2.0008,-2.088,0.0,0.0,0.0,0.0,0.0,0.0,-1.8185,-1.7809,0.0,0.0,0.0,0.0,0.0,0.0,0.0,0.0,0.0,0.0,0.0,0.0,0.0,0.0,0.0,0.0,0.0,0.0,0.0,0.0,0.0,0.0,0.0,0.0,0.0,0.0,0.0,0.0,0.0,0.0,0.0,0.0,0.0,0.0,0.0,0.0,0.0,0.0,0.0,0.0,0.0,0.0,0.0,0.0,0.0,0.0,0.0,0.0,0.0,0.0,0.0,0.0,0.0,0.0,0.0,-2.1858,-2.7016,-3.0265,-3.1403,-3.2963,-3.3421,-3.2596,-3.0265,-2.7879,0.0,0.0,0.0,0.0,0.0,0.0,0.0,0.0,0.0,0.0,0.0,0.0,0.0,0.0,0.0,0.0,0.0,0.0,0.0,0.0,0.0,0.0,0.0,0.0,0.0,0.0,0.0,0.0,0.0,0.0,0.0,0.0,0.0,0.0,0.0,0.0,0.0,0.0,0.0,0.0,0.0,-2.1148,-2.2936,-2.1376,0.0,0.0,0.0,0.0,-1.8992,-1.9289,0.0,0.0,0.0,0.0,0.0,0.0,0.0,0.0,0.0,0.0,0.0,0.0,0.0,0.0,0.0,0.0,0.0,0.0,0.0,0.0,0.0,0.0,0.0,0.0,0.0,0.0,0.0,0.0,0.0,0.0,0.0,0.0,0.0,0.0,0.0,0.0,0.0,0.0,0.0,0.0,0.0,0.0,0.0,0.0,0.0,0.0,0.0,0.0,0.0,0.0,0.0,0.0,0.0,0.0,0.0,0.0,-2.1784,-2.5933,-2.9163,-3.1329,-3.2963,-3.3403,-3.257,-3.0241,-2.7879,0.0,0.0,0.0,0.0,0.0,0.0,0.0,0.0,0.0,0.0,0.0,0.0,0.0,0.0,0.0,0.0,0.0,0.0,0.0,0.0,0.0,0.0,0.0,0.0,0.0,0.0,0.0,0.0,0.0,0.0,0.0,0.0,0.0,0.0,0.0,0.0,0.0,0.0,0.0,0.0,0.0,-2.3046,-2.2059,-2.2167,-2.2142,0.0,0.0,-2.2104,-2.2648,-2.2286,0.0,0.0,0.0,0.0,0.0,0.0,0.0,0.0,0.0,0.0,0.0,0.0,0.0,0.0,0.0,0.0,0.0,0.0,0.0,0.0,0.0,0.0,0.0,0.0,0.0,0.0,0.0,0.0,0.0,0.0,0.0,0.0,0.0,0.0,0.0,0.0,0.0,0.0,0.0,0.0,0.0,0.0,0.0,0.0,0.0,0.0,0.0,0.0,0.0,0.0,0.0,0.0,0.0,0.0,0.0,-1.9289,-2.252,-2.7328,-3.0338,-3.1384,-3.2963,-3.3201,-3.1935,-2.9586,-2.6936,0.0,0.0,0.0,0.0,0.0,0.0,0.0,0.0,0.0,0.0,0.0,0.0,0.0,0.0,0.0,0.0,0.0,0.0,0.0,0.0,0.0,0.0,0.0,0.0,0.0,0.0,0.0,0.0,0.0,0.0,0.0,0.0,0.0,0.0,0.0,0.0,0.0,0.0,0.0,0.0,0.0,0.0,-2.3506,-2.3315,0.0,0.0,0.0,-2.2754,-2.2248,0.0,0.0,0.0,0.0,0.0,0.0,0.0,0.0,0.0,0.0,0.0,0.0,0.0,0.0,0.0,0.0,0.0,0.0,0.0,0.0,0.0,0.0,0.0,0.0,0.0,0.0,0.0,0.0,0.0,0.0,0.0,0.0,0.0,0.0,0.0,0.0,0.0,0.0,0.0,0.0,0.0,0.0,0.0,0.0,0.0,0.0,0.0,0.0,0.0,0.0,0.0,0.0,0.0,0.0,0.0,0.0,0.0,-2.3052,-2.8539,-3.1403,-3.1439,-3.2963,-3.301,-3.1302,-2.9302,0.0,0.0,0.0,0.0,0.0,0.0,0.0,0.0,0.0,0.0,0.0,0.0,0.0,0.0,0.0,0.0,0.0,0.0,0.0,0.0,0.0,0.0,0.0,0.0,0.0,0.0,0.0,-1.0002,0.0,0.0,0.0,0.0,0.0,0.0,0.0,0.0,0.0,0.0,0.0,0.0,0.0,0.0,-2.3319,-2.4563,-2.4149,-2.3781,0.0,0.0,-2.3359,-2.2458,-2.3851,-2.4046,0.0,0.0,0.0,0.0,0.0,0.0,0.0,0.0,0.0,0.0,0.0,0.0,0.0,0.0,0.0,0.0,0.0,0.0,0.0,0.0,0.0,0.0,0.0,0.0,0.0,0.0,0.0,0.0,0.0,0.0,0.0,0.0,0.0,0.0,0.0,0.0,0.0,0.0,0.0,0.0,0.0,0.0,0.0,0.0,0.0,0.0,0.0,0.0,0.0,0.0,0.0,0.0,0.0,0.0,-2.0519,-2.3088,-2.8539,-3.1403,-3.1439,-3.2963,-3.2885,-3.0993,-2.999,-2.7155,0.0,0.0,0.0,0.0,0.0,0.0,0.0,0.0,0.0,0.0,0.0,0.0,0.0,0.0,0.0,0.0,0.0,0.0,0.0,0.0,0.0,0.0,0.0,0.0,0.0,0.0,0.0,0.0,0.0,0.0,0.0,0.0,0.0,0.0,0.0,0.0,0.0,0.0,0.0,0.0,0.0,-2.4269,-2.41,-2.4265,-2.4804,0.0,-2.5108,-2.4624,-2.5196,-2.6,-2.5559,-2.2603,0.0,0.0,0.0,0.0,0.0,0.0,0.0,0.0,0.0,0.0,0.0,0.0,0.0,0.0,0.0,0.0,0.0,0.0,0.0,0.0,0.0,0.0,0.0,0.0,0.0,0.0,0.0,0.0,0.0,0.0,0.0,0.0,0.0,0.0,0.0,0.0,0.0,0.0,0.0,0.0,0.0,0.0,0.0,0.0,0.0,0.0,0.0,0.0,0.0,0.0,0.0,0.0,0.0,-2.151,-2.4465,-2.9035,-3.1503,-3.1801,-3.2873,-3.2701,-3.1159,-2.9875,-2.713,0.0,0.0,0.0,0.0,0.0,0.0,0.0,0.0,0.0,0.0,0.0,0.0,0.0,0.0,0.0,0.0,0.0,0.0,0.0,0.0,0.0,0.0,0.0,0.0,0.0,0.0,0.0,0.0,-1.4685,-1.5037,-1.5172,0.0,0.0,0.0,0.0,0.0,0.0,0.0,0.0,0.0,0.0,-2.4773,-2.5563,-2.5765,0.0,0.0,-2.6135,-2.5639,-2.4996,-2.5916,-2.5696,-2.2775,-2.2295,0.0,0.0,0.0,0.0,0.0,0.0,0.0,0.0,0.0,0.0,0.0,0.0,0.0,0.0,0.0,0.0,0.0,0.0,0.0,0.0,0.0,0.0,0.0,0.0,0.0,0.0,0.0,0.0,0.0,0.0,0.0,0.0,0.0,0.0,0.0,0.0,0.0,0.0,0.0,0.0,0.0,0.0,0.0,0.0,0.0,0.0,0.0,0.0,0.0,0.0,0.0,0.0,-2.1972,-2.5059,-2.9138,-3.1465,-3.1993,-3.2787,-3.2588,-3.1349,-3.0287,-2.7707,0.0,0.0,0.0,0.0,0.0,0.0,0.0,0.0,0.0,0.0,0.0,0.0,0.0,0.0,0.0,0.0,0.0,0.0,0.0,0.0,0.0,0.0,0.0,0.0,0.0,0.0,0.0,0.0,-1.5987,-1.6174,-1.5646,0.0,0.0,0.0,0.0,0.0,0.0,0.0,0.0,0.0,0.0,-2.5558,-2.6535,-2.6699,-2.6708,-2.6697,-2.6309,-2.5782,-2.4933,-2.5732,-2.5518,-2.3048,0.0,0.0,0.0,0.0,0.0,0.0,0.0,0.0,0.0,0.0,0.0,0.0,0.0,0.0,0.0,0.0,0.0,0.0,0.0,0.0,0.0,0.0,0.0,0.0,0.0,0.0,0.0,-1.3763,0.0,0.0,-1.1631,0.0,0.0,0.0,0.0,0.0,0.0,0.0,0.0,0.0,0.0,0.0,0.0,0.0,0.0,0.0,0.0,0.0,0.0,0.0,0.0,0.0,0.0,-2.1682,-2.4332,-2.8649,-3.1225,-3.2,-3.2769,-3.2606,-3.1416,-3.1345,-2.9148,-2.4584,0.0,0.0,0.0,0.0,0.0,0.0,0.0,0.0,0.0,0.0,0.0,0.0,0.0,0.0,0.0,0.0,0.0,0.0,0.0,0.0,0.0,0.0,0.0,0.0,0.0,0.0,-1.2638,-1.4344,-1.5629,0.0,0.0,0.0,0.0,0.0,0.0,0.0,0.0,0.0,-2.3622,-2.5468,-2.6671,-2.6694,-2.6708,-2.6742,-2.6759,-2.5548,-2.4837,-2.5496,-2.563,-2.5115,0.0,0.0,0.0,0.0,0.0,0.0,0.0,0.0,0.0,0.0,0.0,0.0,0.0,0.0,0.0,0.0,0.0,0.0,0.0,0.0,0.0,0.0,0.0,0.0,0.0,0.0,0.0,-1.8163,-1.7223,0.0,0.0,0.0,0.0,0.0,0.0,0.0,0.0,0.0,0.0,0.0,-2.4458,-2.4934,0.0,0.0,0.0,0.0,0.0,0.0,0.0,0.0,0.0,0.0,0.0,0.0,-2.3378,-2.5915,-2.9349,-3.1363,-3.186,-3.2124,-3.1952,-3.1278,-3.0797,-2.8631,-2.4625,0.0,0.0,0.0,0.0,0.0,0.0,0.0,0.0,0.0,0.0,0.0,0.0,0.0,0.0,0.0,0.0,0.0,0.0,0.0,0.0,0.0,0.0,0.0,0.0,0.0,-1.4763,0.0,0.0,0.0,0.0,0.0,0.0,0.0,0.0,0.0,0.0,0.0,-2.349,-2.5495,-2.6303,-2.6869,-2.7343,-2.7437,-2.7637,0.0,0.0,0.0,0.0,0.0,0.0,0.0,0.0,0.0,0.0,0.0,0.0,0.0,0.0,-2.5224,-2.0499,-1.9887,-2.0196,-2.0685,0.0,0.0,0.0,0.0,0.0,0.0,0.0,0.0,0.0,0.0,0.0,0.0,0.0,0.0,-2.1684,-2.1194,-2.0686,0.0,0.0,0.0,0.0,0.0,0.0,0.0,0.0,-2.571,-2.7503,-2.8653,-2.9144,-2.9245,-2.8975,-2.7774,-2.4661,0.0,0.0,0.0,0.0,0.0,0.0,0.0,0.0,-2.4427,-2.6532,-2.9495,-3.139,-3.1987,-3.188,-3.177,-3.164,-3.0653,-2.8839,-2.6166,-2.4137,-2.2038,0.0,0.0,0.0,0.0,0.0,0.0,0.0,0.0,0.0,0.0,0.0,0.0,0.0,0.0,0.0,0.0,0.0,0.0,0.0,0.0,0.0,0.0,0.0,-1.5903,0.0,0.0,0.0,0.0,0.0,0.0,0.0,0.0,0.0,-2.2141,-2.3532,-2.5312,-2.739,-2.7555,-2.7724,-2.8306,0.0,0.0,0.0,0.0,0.0,0.0,0.0,-2.7309,-2.7083,-2.7588,-2.846,-2.9879,-3.1532,-3.261,-3.2371,0.0,0.0,-2.4514,-2.3276,-2.3274,-2.3733,-2.4431,-2.5084,-2.5541,-2.6251,-2.664,0.0,0.0,0.0,0.0,-2.4707,0.0,0.0,0.0,-2.5998,-2.593,0.0,-2.4374,0.0,0.0,0.0,0.0,-2.1617,-2.4374,0.0,0.0,-3.1393,-3.3119,-3.2476,-3.2534,-3.2848,-3.344,-3.2713,-3.0835,-2.7841,-2.3714,0.0,0.0,0.0,0.0,0.0,0.0,-2.4774,-2.6295,-2.9161,-3.1203,-3.2348,-3.1986,-3.2004,-3.2384,-3.0932,-2.9786,-2.8975,-2.7537,-2.5439,-2.2564,-2.0297,0.0,0.0,0.0,0.0,0.0,0.0,0.0,0.0,0.0,0.0,0.0,0.0,0.0,0.0,0.0,0.0,0.0,0.0,0.0,0.0,-1.5697,0.0,0.0,0.0,0.0,0.0,0.0,0.0,0.0,0.0,0.0,-2.4277,-2.5684,-2.7408,-2.9175,0.0,0.0,0.0,0.0,-3.0398,-2.945,-2.9321,-2.9407,-2.9436,-3.0143,-3.0714,-3.0796,0.0,0.0,-3.3634,-3.3592,-3.349,-3.2736,-3.376,-3.368,-3.0857,-2.8498,-2.7068,-2.7031,-2.759,-2.7975,-2.8095,-2.8738,-2.9161,-3.6882,0.0,0.0,0.0,0.0,-3.0495,-3.155,-3.3541,-3.2983,-3.185,-3.0328,-2.9922,0.0,0.0,0.0,0.0,0.0,0.0,-3.0057,-3.2341,-3.4726,-3.5977,-3.6315,-3.6823,-3.6637,-3.5808,-3.5588,-3.4489,-3.2577,-3.1309,-2.7249,-2.0679,0.0,0.0,0.0,0.0,-2.6686,-2.8185,-3.0057,-3.1206,-3.1545,-3.1466,-3.1449,-3.1562,-3.1125,-3.0531,-2.9803,-2.9364,-2.7994,-2.5558,-2.3799,0.0,0.0,0.0,0.0,0.0,0.0,0.0,0.0,0.0,0.0,0.0,0.0,0.0,0.0,0.0,0.0,0.0,0.0,0.0,-1.6191,-1.7811,-1.8589,0.0,0.0,0.0,0.0,0.0,0.0,0.0,0.0,0.0,-2.95,-2.8647,-2.8427,0.0,0.0,-2.936,-2.9172,-3.0856,-3.21,-3.2014,-3.2475,0.0,-3.3535,-3.262,-3.2112,-3.2912,-3.4996,-3.6492,-3.6593,-3.7466,-3.8122,-3.7865,-3.7334,-3.6605,-3.5819,-3.384,-3.2369,-3.2235,-3.2059,-3.2002,-3.2459,-3.2391,-3.2138,-4.429,-3.9752,-3.7554,-3.6577,-3.6397,-3.5749,-3.6451,-3.8014,-3.7507,-3.657,-3.5351,-3.4776,-3.3085,-3.0649,-2.9753,0.0,0.0,0.0,-3.4032,-3.6332,-3.755,-3.8497,-3.9208,-3.9665,-3.9563,-3.8971,-3.8667,-3.7736,-3.6265,-3.5673,-3.2239,-2.6234,0.0,-2.6165,-2.6073,-2.825,-2.9878,-3.0925,-3.2269,-3.2744,-3.2371,-3.1773,-3.1351,-3.119,-3.119,-3.0987,-3.0565,-3.0531,-2.977,-2.8112,-2.6607,-2.4404,0.0,0.0,0.0,0.0,0.0,0.0,0.0,0.0,0.0,0.0,0.0,-1.3922,-1.1364,0.0,0.0,0.0,-1.5586,-1.6927,-1.9154,-2.0018,0.0,0.0,0.0,0.0,0.0,0.0,0.0,-2.7629,-3.0158,-3.2115,-3.3066,-3.2346,-3.1939,-3.2554,-3.2202,-3.1846,-3.1759,0.0,-3.4563,-3.4884,-3.5574,-3.6186,-3.6613,-3.58,-3.5413,-3.6272,-3.7494,-3.8581,-3.9122,-3.9749,-4.0189,-4.0341,-3.9581,-3.8858,-3.9177,-3.8051,-3.658,-3.5255,-3.488,-3.4928,-3.5334,-3.503,-3.4742,-5.0245,-4.8641,-4.3962,-4.1592,-4.0962,-4.0851,-4.0735,-4.0509,-4.0481,-4.0435,-4.0273,-3.8937,-3.7855,-3.6907,-3.4861,0.0,-3.6113,-3.6857,-3.7973,-3.9377,-4.0121,-4.0798,-4.1356,-4.139,-4.1694,-4.2252,-4.161,-4.0595,-3.9225,-3.7889,-3.6079,-3.3897,-3.3152,-3.2474,-3.1754,-3.2723,-3.3505,-3.3865,-3.4908,-3.5096,-3.4276,-3.2738,-3.1754,-3.1376,-3.119,-3.1106,-3.1106,-3.1038,-3.0717,-3.0006,-2.8619,-2.6927,-2.488,0.0,0.0,0.0,0.0,0.0,0.0,0.0,0.0,0.0,0.0,0.0,0.0,0.0,0.0,0.0,-1.9879,0.0,-2.3359,-2.2534,0.0,0.0,0.0,-2.4746,-2.878,-2.9846,-3.1059,-3.3037,0.0,0.0,-3.574,-3.6662,-3.7288,-3.7206,-3.6274,-3.5731,-3.6076,-3.6932,-3.7656,-3.7931,-3.8558,-3.904,-3.9237,-3.934,-3.9514,-3.9919,-4.0307,-4.051,-4.1018,-4.0747,-4.0646,-4.1188,-4.0764,-4.0442,-4.1188,-4.1085,-4.021,-3.69,-3.6668,-3.7043,-3.7077,-3.6891,-3.6721,-5.2425,-5.1956,-5.0175,-4.812,-4.598,-4.5434,-4.5451,-4.5858,-4.5357,-4.4211,-4.2625,-4.2269,-4.1052,-3.9259,-3.8734,-3.9005,-3.9901,-4.0646,-4.1474,-4.2405,-4.3149,-4.3301,-4.2895,-4.2895,-4.2675,-4.2286,-4.2117,-4.1847,-4.1491,-4.1153,-3.9851,-3.7753,-3.7483,-3.5362,-3.1494,-3.2127,-3.2872,-3.3515,-3.4249,-3.5042,-3.5856,-3.4048,-3.2971,-3.2865,-3.1241,-3.0378,-3.0362,-2.982,-2.9431,-2.9245,-2.8332,-2.7063,-2.5435,-2.1661,0.0,0.0,0.0,0.0,0.0,0.0,0.0,0.0,0.0,-1.8362,-1.3989,0.0,-2.0052,0.0,-2.2525,-2.4504,-2.5048,-2.6685,0.0,0.0,-2.9624,-3.1213,-3.3324,-3.4064,-3.4896,-3.6166,-3.7848,-3.9418,-4.081,-4.1499,-4.2212,-4.2842,-3.9765,-3.7534,-3.7957,-3.9777,-4.1196,-4.1464,-4.177,-4.2193,-4.2505,-4.2108,-4.161,-4.1748,-4.1747,-4.183,-4.1999,-4.1914,-4.1833,-4.1988,-4.1902,-4.1885,-4.1988,-4.2049,-4.1799,-4.0833,-3.9982,-3.9292,-3.9292,-3.8447,-3.7652,-5.3206,-5.317,-5.2729,-5.1201,-4.9109,-4.8672,-4.8555,-4.8667,-4.7979,-4.6818,-4.534,-4.506,-4.4231,-4.3098,-4.3064,-4.3115,-4.3234,-4.3623,-4.3859,-4.3961,-4.4384,-4.45,-4.4348,-4.4348,-4.4267,-4.4111,-4.3765,-4.3642,-4.3642,-4.3331,-4.2518,-4.1306,-4.1353,-3.9534,-3.6099,-3.4541,-3.3981,-3.4387,-3.4694,-3.5624,-3.6972,-3.4898,-3.3396,-3.2633,-3.1345,-3.0127,-2.9076,-2.8819,-2.8562,-2.822,-2.7759,-2.7009,-2.5831,-2.3037,-2.0842,0.0,0.0,0.0,0.0,0.0,0.0,0.0,0.0,0.0,0.0,0.0,-2.2931,-2.305,-2.5514,-2.7597,-2.8887,-3.0386,-3.1811,-3.307,-3.4211,-3.5858,-3.8258,-3.8757,-3.9476,-4.1017,-4.202,-4.2993,-4.4053,-4.4401,-4.4766,-4.5351,-4.3203,-4.1488,-4.1569,-4.2739,-4.3707,-4.409,-4.4218,-4.4173,-4.4196,-4.3301,-4.2601,-4.2371,-4.2286,-4.2371,-4.2729,-4.2489,-4.239,-4.2683,-4.2511,-4.2426,-4.2717,-4.2804,-4.2914,-4.311,-4.2362,-4.1559,-4.1136,-4.0189,-3.9377,-5.3206,-5.3206,-5.3206,-5.2399,-5.1114,-5.1114,-5.0514,-4.9442,-4.8776,-4.8186,-4.775,-4.73,-4.6986,-4.6944,-4.7026,-4.6686,-4.5994,-4.609,-4.5733,-4.5026,-4.4907,-4.5097,-4.5511,-4.5407,-4.5681,-4.627,-4.5552,-4.5282,-4.5293,-4.4703,-4.4226,-4.3961,-4.4015,-4.3287,-4.1641,-3.801,-3.6085,-3.5898,-3.6041,-3.6774,-3.8082,-3.5576,-3.3471,-3.2012,-3.1319,-2.9964,-2.7848,-2.7997,-2.7858,-2.7199,-2.7234,-2.6991,-2.6346,-2.4524,-2.298,0.0,-1.9667,0.0,0.0,0.0,0.0,0.0,0.0,0.0,0.0,-2.5242,-2.6615,-2.7656,-2.9162,-3.115,-3.3665,-3.4211,-3.5381,-3.7773,-3.8329,-3.9733,-4.2775,-4.3194,-4.3925,-4.5828,-4.6063,-4.6061,-4.6195,-4.6193,-4.6207,-4.6243,-4.6114,-4.5733,-4.5544,-4.5367,-4.5512,-4.6116,-4.6061,-4.5384,-4.4285,-4.3647,-4.3233,-4.2766,-4.2723,-4.2794,-4.3457,-4.3102,-4.2807,-4.3356,-4.3127,-4.2864,-4.3429,-4.3569,-4.3794,-4.4328,-4.3893,-4.3234,-4.2523,-4.1762,-4.1373,-5.3206,-5.3206,-5.3206,-5.3041,-5.2747,-5.2747,-5.0836,-4.7731,-4.7051,-4.7086,-4.7703,-4.827,-4.819,-4.7672,-4.8225,-4.8103,-4.7482,-4.8015,-4.7893,-4.7168,-4.6564,-4.6089,-4.5643,-4.5048,-4.5106,-4.5579,-4.5041,-4.4972,-4.5473,-4.5333,-4.4324,-4.2643,-4.3058,-4.2263,-4.0263,0.0,0.0,0.0,-3.8276,-3.9012,-3.9626,-3.6374,-3.411,-3.3143,-3.0709,0.0,-2.7836,-2.7313,-2.6951,-2.6827,-2.7419,0.0,0.0,0.0,0.0,0.0,0.0,0.0,0.0,0.0,0.0,0.0,-2.8555,-2.8015,-2.7007,-3.0176,-3.2631,-3.3472,-3.4906,-3.63,-3.7476,-3.966,-4.1197,-4.1738,-4.325,-4.4565,-4.526,-4.5315,-4.5755,-4.6728,-4.6872,-4.7128,-4.7683,-4.7846,-4.7807,-4.7752,-4.7826,-4.7826,-4.7654,-4.7031,-4.6998,-4.7624,-4.6885,-4.5627,-4.3786,-4.4002,-4.4209,-4.4198,-4.4164,-4.4164,-4.4304,-4.4215,-4.4113,-4.4311,-4.4277,-4.412,-4.4311,-4.4345,-4.4345,-4.4553,-4.4451,-4.413,-4.3352,-4.2608,-4.2083,-5.3206,-5.3206,-5.3206,-5.2766,0.0,-5.2013,-5.0419,-4.7847,-4.8775,-4.9226,-4.9387,-4.9809,-4.9764,-4.9363,-4.8662,-4.8118,-4.7681,-4.6978,-4.6788,-4.7103,-4.6718,-4.6946,-4.7699,-4.7364,-4.7307,-4.7535,-4.7193,-4.7026,-4.6864,-4.691,-4.6302,-4.5244,-4.5539,-4.5106,-4.4025,-4.3588,-4.2082,-3.9406,-3.9437,-3.9966,-4.0864,-3.8667,-3.6845,-3.5597,-3.3247,0.0,0.0,0.0,0.0,0.0,0.0,0.0,0.0,0.0,0.0,-2.7345,-2.7374,-2.784,-2.8855,-2.9755,-3.1219,-3.3301,-3.4582,-3.4172,-3.1773,-3.392,-3.6107,-3.7772,-3.8652,-3.9832,-4.1629,-4.3136,-4.4197,-4.4892,-4.5865,-4.6636,-4.7003,-4.7095,-4.7261,-4.7572,-4.7684,-4.7868,-4.8233,-4.8324,-4.8324,-4.8324,-4.8324,-4.8324,-4.8251,-4.7716,-4.7366,-4.7364,-4.6613,-4.5632,-4.4681,-4.4451,-4.457,-4.457,-4.457,-4.457,-4.457,-4.457,-4.457,-4.457,-4.457,-4.457,-4.457,-4.457,-4.457,-4.457,-4.457,-4.4485,-4.4045,-4.3673,-4.342,-5.3206,-5.3206,-5.3206,-5.2454,-5.1224,-5.1224,-5.0453,-4.9276,-5.1082,0.0,0.0,-5.1355,-5.1393,-5.1152,-4.9485,-4.8637,-4.8263,-4.6618,-4.642,-4.737,-4.7293,-4.815,-4.9775,-4.9712,-4.9619,-4.9596,-4.9409,-4.893,-4.8352,-4.8206,-4.8132,-4.8172,-4.8249,-4.8324,-4.8269,-4.7517,-4.5401,-4.2038,-4.0706,-4.0592,-4.1604,-4.0561,-3.9227,-3.7799,-3.6133,-3.4229,-3.2118,-3.1144,-3.034,-2.9678,-2.9813,-2.9904,-2.9886,-3.0161,-3.0375,-3.0558,-3.1733,-3.2985,-3.4093,-3.5398,-3.6681,-3.7882,-3.9806,-3.9657,-3.666,-3.7522,-3.9102,-4.13,-4.1735,-4.2902,-4.5222,-4.5615,-4.6117,-4.7204,-4.7333,-4.759,-4.8196,-4.8324,-4.8233,-4.8324,-4.8269,-4.8306,-4.8306,-4.8324,-4.8324,-4.8324,-4.8324,-4.8251,-4.8119,-4.7816,-4.7277,-4.6467,-4.6122,-4.5832,-4.5477,-4.5082,-4.4749,-4.4831,-4.4665,-4.457,-4.457,-4.457,-4.457,-4.457,-4.457,-4.457,-4.457,-4.457,-4.457,-4.457,-4.457,-4.457,-4.457,-4.4553,-4.4485,-5.3206,-5.3206,-5.3206,-5.3078,-5.2876,-5.2876,-5.2729,-5.2435,-5.1454,-5.0931,-5.0921,-5.2291,-5.2572,-5.2,-5.2273,-5.2082,-5.1513,-5.1782,-5.1728,-5.1297,-5.0631,-5.0199,-4.9959,-4.935,-4.931,-4.9639,-4.8603,-4.8163,-4.8446,-4.7874,-4.753,-4.7614,-4.8035,-4.8324,-4.8251,-4.7517,-4.6818,-4.6174,-4.3377,-4.1661,-4.1186,-3.9717,-3.8486,-3.7571,-3.6677,-3.5624,-3.4532,-3.4339,-3.4202,-3.411,-3.4816,-3.52,-3.52,-3.5174,-3.5587,-3.6229,-3.6505,-3.7055,-3.7857,-3.8138,-3.8944,-4.0452,-4.2111,-4.2118,-4.0039,-4.2084,-4.3741,-4.4181,-4.526,-4.6361,-4.6854,-4.7386,-4.7789,-4.8086,-4.8141,-4.8196,-4.8343,-4.8361,-4.8398,-4.8434,-4.8324,-4.8361,-4.8453,-4.8416,-4.8471,-4.8379,-4.8563,-4.8194,-4.7904,-4.7939,-4.7386,-4.6234,-4.6502,-4.6562,-4.5751,-4.5457,-4.5289,-4.5389,-4.4906,-4.457,-4.457,-4.457,-4.457,-4.457,-4.457,-4.457,-4.457,-4.457,-4.457,-4.457,-4.457,-4.457,-4.457,-4.457,-4.457,-5.3206,-5.3206,-5.3206,-5.3206,-5.3206,-5.3206,-5.3206,-5.3151,-5.2435,-5.2105,-5.2197,-5.2894,-5.2999,-5.2634,-5.1814,-5.1431,-5.1377,-5.052,-5.0593,-5.1358,-5.103,-5.1191,-5.171,-5.1402,-5.1139,-5.0958,-5.0359,-4.9742,-4.9172,-4.8735,-4.8352,-4.7933,-4.8172,-4.8324,-4.8288,-4.7957,-4.7553,-4.7039,-4.5241,-4.3864,-4.3075,-4.2341,-4.157,-4.0744,-3.9551,-3.8744,-3.8322,-3.7448,-3.6989,-3.7019,-3.7386,-3.7606,-3.7606,-3.7588,-3.7771,-3.8138,-3.8982,-3.9606,-3.9974,-4.0818,-4.1625,-4.2359,-4.3479,-4.3776,-4.2813,-4.3924,-4.5076,-4.592,-4.6709,-4.7298,-4.77,-4.8104,-4.8324,-4.8324,-4.8324,-4.8508,-4.8912,-4.8987,-4.9152,-4.9536,-4.9651,-4.9673,-4.9654,-4.9669,-4.9664,-4.9646,-4.9669,-4.9395,-4.8785,-4.8847,-4.8293,-4.6478,-4.6482,-4.6446,-4.5712,-4.553,-4.5373,-4.5091,-4.4776,-4.4626,-4.457,-4.457,-4.457,-4.457,-4.457,-4.457,-4.457,-4.457,-4.457,-4.457,-4.457,-4.457,-4.457,-4.457,-4.457,-5.3206,-5.3206,-5.3206,-5.3206,-5.3206,-5.3206,-5.3206,-5.3206,-5.3206,-5.3206,-5.3206,-5.3206,-5.3206,-5.3017,-5.1395,-5.0927,-5.1069,-4.9591,-4.97,-5.122,-5.1334,-5.2013,-5.3115,-5.3206,-5.2876,-5.2289,-5.2087,-5.1353,-5.0215,-4.9774,-4.915,-4.8398,-4.8324,-4.8324,-4.8324,-4.8324,-4.7994,-4.7388,-4.6764,-4.5957,-4.5021,-4.4984,-4.458,-4.3754,-4.2561,-4.1827,-4.1607,-4.0451,-3.979,-3.9772,-3.979,-3.9772,-3.9772,-3.979,-3.9772,-3.99,-4.0946,-4.1735,-4.1974,-4.3057,-4.3828,-4.4048,-4.4599,-4.5057,-4.5223,-4.5259,-4.5755,-4.6893,-4.7279,-4.7647,-4.8141,-4.8306,-4.8379,-4.8545,-4.86,-4.8967,-4.9701,-4.9871,-5.0073,-5.0714,-5.079,-5.0777,-5.0796,-5.0787,-5.0743,-5.071,-5.0793,-5.0556,-5.011,-4.9905,-4.9093,-4.7974,-4.7244,-4.7023,-4.634,-4.6139,-4.5821,-4.5183,-4.4771,-4.4626,-4.457,-4.457,-4.457,-4.457,-4.457,-4.457,-4.457,-4.457,-4.457,-4.457,-4.457,-4.457,-4.457,-4.457,-4.457,-5.3206,-5.3206,-5.3206,-5.3206,-5.3206,-5.3206,-5.3206,-5.3206,-5.3206,-5.3206,-5.3206,-5.3206,-5.3206,-5.3188,-5.2901,-5.2852,-5.2913,-5.2779,-5.2724,-5.2894,-5.2986,-5.3059,-5.3206,-5.3206,-5.317,-5.2968,-5.2362,-5.194,-5.1555,-5.0251,-4.915,-4.8398,-4.8324,-4.8324,-4.8324,-4.8324,-4.8269,-4.8196,-4.8122,-4.7333,-4.5902,-4.5792,-4.5406,-4.4635,-4.4452,-4.403,-4.3296,-4.313,-4.3039,-4.3057,-4.3002,-4.3039,-4.302,-4.3039,-4.3039,-4.302,-4.3185,-4.3589,-4.4268,-4.4525,-4.4892,-4.5571,-4.57,-4.6085,-4.6728,-4.6856,-4.6929,-4.7241,-4.7774,-4.8159,-4.8288,-4.8343,-4.8673,-4.9279,-4.9426,-4.9793,-5.0508,-5.0674,-5.071,-5.0784,-5.1014,-5.084,-5.1004,-5.0991,-5.0931,-5.1037,-5.1118,-5.1041,-5.0918,-5.0707,-5.0721,-5.0278,-4.9823,-4.9076,-4.8462,-4.79,-4.723,-4.65,-4.5417,-4.5069,-4.5099,-4.4885,-4.466,-4.4987,-4.457,-4.4587,-4.457,-4.457,-4.457,-4.457,-4.457,-4.457,-4.457,-4.457,-4.457,-5.3206,-5.3206,-5.3206,-5.3206,-5.3206,-5.3206,-5.3206,-5.3206,-5.3206,-5.3206,-5.3206,-5.3206,-5.3206,-5.3206,-5.3206,-5.3206,-5.3206,-5.3206,-5.3206,-5.3206,-5.3206,-5.3206,-5.3206,-5.3206,-5.3206,-5.3188,-5.2876,-5.2472,-5.1793,-5.0362,-4.915,-4.8398,-4.8324,-4.8324,-4.8324,-4.8324,-4.8324,-4.8324,-4.8324,-4.7976,-4.737,-4.6856,-4.6232,-4.5516,-4.5406,-4.5296,-4.4947,-4.4911,-4.4929,-4.4911,-4.4911,-4.4929,-4.4911,-4.4911,-4.4911,-4.4911,-4.4911,-4.5057,-4.5388,-4.5406,-4.5553,-4.5883,-4.6361,-4.6783,-4.7095,-4.7553,-4.781,-4.7865,-4.8122,-4.8324,-4.8361,-4.8781,-4.9239,-4.9609,-5.0013,-5.0618,-5.1408,-5.1485,-5.1632,-5.2105,-5.2223,-5.2223,-5.2229,-5.2223,-5.2223,-5.2234,-5.2197,-5.2155,-5.2163,-5.1828,-5.1742,-5.1999,-5.154,-5.0593,-4.9693,-4.9174,-4.8626,-4.8032,-4.7525,-4.7143,-4.6914,-4.6295,-4.5863,-4.5845,-4.5145,-4.471,-4.457,-4.457,-4.457,-4.457,-4.457,-4.457,-4.457,-4.457,-4.457,-5.3206,-5.3206,-5.3206,-5.3206,-5.3206,-5.3206,-5.3206,-5.3206,-5.3206,-5.3206,-5.3206,-5.3206,-5.3206,-5.3206,-5.3206,-5.3206,-5.3206,-5.3206,-5.3206,-5.3206,-5.3206,-5.3206,-5.3206,-5.3206,-5.3206,-5.3206,-5.3206,-5.2784,-5.1922,-5.0618,-4.9481,-4.8746,-4.8434,-4.8324,-4.8324,-4.8324,-4.8324,-4.8324,-4.8324,-4.8324,-4.8214,-4.7737,-4.7058,-4.6324,-4.6232,-4.614,-4.5902,-4.5902,-4.5902,-4.5902,-4.5902,-4.5902,-4.5902,-4.5902,-4.5902,-4.5902,-4.5902,-4.6012,-4.6214,-4.6232,-4.6324,-4.6562,-4.7131,-4.7443,-4.7535,-4.7976,-4.8398,-4.8655,-4.8636,-4.8693,-4.8728,-4.9402,-4.997,-5.0251,-5.082,-5.1444,-5.2179,-5.2353,-5.2555,-5.3096,-5.3017,-5.3206,-5.3206,-5.3109,-5.3096,-5.3096,-5.3133,-5.3206,-5.317,-5.2682,-5.2553,-5.3072,-5.2627,-5.1846,-5.0684,-5.019,-4.9911,-4.9359,-4.891,-4.8602,-4.8853,-4.7718,-4.7036,-4.67,-4.5687,-4.5004,-4.4987,-4.4919,-4.457,-4.457,-4.457,-4.457,-4.457,-4.457,-4.457,-5.3206,-5.3206,-5.3206,-5.3206,-5.3206,-5.3206,-5.3206,-5.3206,-5.3206,-5.3206,-5.3206,-5.3206,-5.3206,-5.3206,-5.3206,-5.3206,-5.3206,-5.3206,-5.3206,-5.3206,-5.3206,-5.3206,-5.3206,-5.3206,-5.3206,-5.3206,-5.3206,-5.2784,-5.1995,-5.1169,-5.0343,-4.9517,-4.8765,-4.8343,-4.8324,-4.8324,-4.8324,-4.8324,-4.8324,-4.8324,-4.8324,-4.8251,-4.7829,-4.7131,-4.7076,-4.6728,-4.6104,-4.5938,-4.5957,-4.5938,-4.6012,-4.5975,-4.5957,-4.5957,-4.6012,-4.5993,-4.5957,-4.6287,-4.6948,-4.7076,-4.7352,-4.7976,-4.8086,-4.8233,-4.8141,-4.8251,-4.8636,-4.9426,-4.9504,-4.9522,-4.9703,-5.0285,-5.1,-5.1628,-5.1848,-5.2307,-5.3023,-5.3023,-5.3133,-5.3206,-5.3206,-5.3206,-5.3206,-5.3206,-5.3206,-5.3206,-5.3206,-5.3206,-5.3206,-5.3109,-5.3109,-5.3127,-5.3054,-5.2852,-5.2084,-5.1497,-5.0809,-5.0442,-5.006,-4.9239,-4.8746,-4.8322,-4.8067,-4.752,-4.6567,-4.5954,-4.5592,-4.5213,-4.4744,-4.457,-4.457,-4.457,-4.457,-4.457,-4.457,-5.3683,-5.3206,-5.3206,-5.3206,-5.3206,-5.3206,-5.3206,-5.3206,-5.3206,-5.3206,-5.3206,-5.3206,-5.3206,-5.3206,-5.3206,-5.3206,-5.3206,-5.3206,-5.3206,-5.3206,-5.3206,-5.3206,-5.3206,-5.3206,-5.3206,-5.3206,-5.3206,-5.2784,-5.205,-5.1683,-5.0875,-4.9738,-4.9297,-4.8875,-4.8416,-4.8324,-4.8324,-4.8324,-4.8324,-4.8324,-4.8324,-4.8324,-4.8159,-4.7902,-4.7884,-4.7755,-4.7462,-4.7443,-4.7443,-4.7425,-4.7443,-4.7443,-4.7443,-4.7425,-4.7443,-4.7443,-4.7443,-4.7572,-4.7829,-4.7884,-4.7994,-4.8251,-4.8324,-4.8324,-4.8324,-4.8343,-4.8673,-4.9444,-5.0126,-5.053,-5.1059,-5.1422,-5.1674,-5.1995,-5.2454,-5.2839,-5.3115,-5.3206,-5.3206,-5.3206,-5.3206,-5.3206,-5.3206,-5.3206,-5.3206,-5.3206,-5.3206,-5.3206,-5.3206,-5.3206,-5.3206,-5.3206,-5.3206,-5.3109,-5.2907,-5.2645,-5.2328,-5.2133,-5.1887,-5.1736,-5.1375,-5.0282,-4.9834,-4.926,-4.8134,-4.6789,-4.643,-4.5484,-4.4998,-4.4807,-4.479,-4.4874,-4.457,-4.4722,-4.4688,-5.372,-5.3243,-5.3206,-5.3206,-5.3206,-5.3206,-5.3206,-5.3206,-5.3206,-5.3206,-5.3206,-5.3206,-5.3206,-5.3206,-5.3206,-5.3206,-5.3206,-5.3206,-5.3206,-5.3206,-5.3206,-5.3206,-5.3206,-5.3206,-5.3206,-5.3206,-5.3206,-5.2913,-5.2417,-5.2123,-5.1426,-5.0435,-4.9903,-4.9297,-4.8765,-4.8453,-4.8324,-4.8324,-4.8324,-4.8324,-4.8324,-4.8324,-4.8324,-4.8324,-4.8324,-4.8324,-4.8324,-4.8324,-4.8324,-4.8324,-4.8324,-4.8324,-4.8324,-4.8324,-4.8324,-4.8324,-4.8306,-4.8324,-4.8324,-4.8324,-4.8306,-4.8324,-4.8324,-4.8324,-4.8324,-4.8324,-4.8838,-4.9774,-5.0435,-5.1187,-5.2105,-5.2352,-5.237,-5.2454,-5.2876,-5.3206,-5.3206,-5.3206,-5.3206,-5.3206,-5.3206,-5.3206,-5.3206,-5.3206,-5.3206,-5.3206,-5.3206,-5.3206,-5.3206,-5.3206,-5.3206,-5.3206,-5.3206,-5.3206,-5.3072,-5.2962,-5.2907,-5.281,-5.2712,-5.3054,-5.2969,-5.1954,-5.1286,-5.077,-4.9686,-4.8139,-4.6914,-4.5949,-4.5529,-4.5263,-4.5449,-4.5652,-4.5331,-4.4993,-4.4908,-5.3225,-5.3206,-5.3206,-5.3206,-5.3206,-5.3206,-5.3206,-5.3206,-5.3206,-5.3206,-5.3206,-5.3206,-5.3206,-5.3206,-5.3206,-5.3206,-5.3206,-5.3206,-5.3206,-5.3206,-5.3206,-5.3206,-5.3206,-5.3206,-5.3206,-5.3206,-5.3206,-5.3206,-5.3078,-5.2454,-5.1977,-5.1646,-5.0435,-4.9793,-4.9591,-4.8857,-4.8398,-4.8398,-4.8398,-4.8324,-4.8324,-4.8324,-4.8324,-4.8324,-4.8324,-4.8324,-4.8324,-4.8324,-4.8324,-4.8324,-4.8324,-4.8324,-4.8324,-4.8324,-4.8324,-4.8324,-4.8324,-4.8324,-4.8324,-4.8324,-4.8324,-4.8324,-4.8324,-4.8324,-4.8324,-4.8324,-4.8948,-5.0343,-5.0802,-5.1389,-5.2747,-5.3115,-5.3054,-5.317,-5.3188,-5.3206,-5.3206,-5.3206,-5.3206,-5.3206,-5.3206,-5.3206,-5.3206,-5.3206,-5.3206,-5.3206,-5.3206,-5.3206,-5.3206,-5.3206,-5.3206,-5.3206,-5.3206,-5.3206,-5.3206,-5.3206,-5.3188,-5.3127,-5.3091,-5.3164,-5.3103,-5.2441,-5.2043,-5.1518,-5.0171,-4.867,-4.7391,-4.6506,-4.6413,-4.627,-4.6406,-4.6329,-4.5974,-4.5585,-4.5213,-5.3206,-5.3206,-5.3206,-5.3206,-5.3206,-5.3206,-5.3206,-5.3206,-5.3206,-5.3206,-5.3206,-5.3206,-5.3206,-5.3206,-5.3206,-5.3206,-5.3206,-5.3206,-5.3206,-5.3206,-5.3206,-5.3206,-5.3206,-5.3206,-5.3206,-5.3206,-5.3206,-5.3206,-5.3151,-5.2949,-5.2582,-5.1958,-5.1499,-5.0949,-5.0398,-4.9627,-4.9187,-4.9114,-4.86,-4.8324,-4.8324,-4.8324,-4.8324,-4.8324,-4.8324,-4.8324,-4.8324,-4.8324,-4.8324,-4.8324,-4.8324,-4.8324,-4.8324,-4.8324,-4.8324,-4.8324,-4.8324,-4.8324,-4.8324,-4.8324,-4.8324,-4.8324,-4.8324,-4.8324,-4.8324,-4.8324,-4.9058,-5.0508,-5.0839,-5.1463,-5.2803,-5.3206,-5.3206,-5.3206,-5.3206,-5.3206,-5.3206,-5.3206,-5.3206,-5.3206,-5.3206,-5.3206,-5.3206,-5.3206,-5.3206,-5.3206,-5.3206,-5.3206,-5.3206,-5.3206,-5.3206,-5.3206,-5.3206,-5.3206,-5.3206,-5.3206,-5.3206,-5.3206,-5.3206,-5.3206,-5.3103,-5.3005,-5.2626,-5.18,-5.0505,-4.9252,-4.8021,-4.7327,-4.72,-4.6928,-4.6887,-4.671,-4.6481,-4.6109,-4.572,-5.3482,-5.3225,-5.3206,-5.3206,-5.3206,-5.3206,-5.3206,-5.3206,-5.3206,-5.3206,-5.3206,-5.3206,-5.3206,-5.3206,-5.3206,-5.3206,-5.3206,-5.3206,-5.3206,-5.3206,-5.3206,-5.3206,-5.3206,-5.3206,-5.3206,-5.3206,-5.3206,-5.3206,-5.3206,-5.3188,-5.2949,-5.2509,-5.216,-5.1756,-5.1151,-5.016,-4.9572,-4.9462,-4.8728,-4.8324,-4.8324,-4.8324,-4.8324,-4.8324,-4.8324,-4.8324,-4.8324,-4.8324,-4.8324,-4.8324,-4.8324,-4.8324,-4.8324,-4.8324,-4.8324,-4.8324,-4.8324,-4.8324,-4.8324,-4.8324,-4.8324,-4.8324,-4.8324,-4.8324,-4.8324,-4.8324,-4.904,-5.0453,-5.082,-5.1463,-5.2839,-5.3206,-5.3206,-5.3206,-5.3206,-5.3206,-5.3206,-5.3206,-5.3206,-5.3206,-5.3206,-5.3206,-5.3206,-5.3206,-5.3206,-5.3206,-5.3206,-5.3206,-5.3206,-5.3206,-5.3206,-5.3206,-5.3206,-5.3206,-5.3206,-5.3206,-5.3206,-5.3206,-5.3206,-5.3206,-5.3164,-5.3127,-5.2901,-5.179,-5.0539,-4.967,-4.847,-4.8105,-4.7892,-4.7629,-4.745,-4.7443,-4.7361,-4.6633,-4.6143,-5.3885,-5.3243,-5.3206,-5.3206,-5.3206,-5.3206,-5.3206,-5.3206,-5.3206,-5.3206,-5.3206,-5.3206,-5.3206,-5.3206,-5.3206,-5.3206,-5.3206,-5.3206,-5.3206,-5.3206,-5.3206,-5.3206,-5.3206,-5.3206,-5.3206,-5.3206,-5.3206,-5.3206,-5.3206,-5.3206,-5.3206,-5.3059,-5.2472,-5.2087,-5.1811,-5.0527,-4.9848,-4.9664,-4.8893,-4.8471,-4.8343,-4.8324,-4.8324,-4.8324,-4.8324,-4.8324,-4.8324,-4.8324,-4.8324,-4.8324,-4.8324,-4.8324,-4.8324,-4.8324,-4.8324,-4.8324,-4.8324,-4.8324,-4.8324,-4.8324,-4.8324,-4.8324,-4.8324,-4.8324,-4.8324,-4.8361,-4.8912,-5.0398,-5.0729,-5.1408,-5.2674,-5.3188,-5.3188,-5.3206,-5.3206,-5.3206,-5.3206,-5.3206,-5.3206,-5.3206,-5.3206,-5.3206,-5.3206,-5.3206,-5.3206,-5.3206,-5.3206,-5.3206,-5.3206,-5.3206,-5.3206,-5.3206,-5.3206,-5.3206,-5.3206,-5.3206,-5.3206,-5.3206,-5.3206,-5.3206,-5.3206,-5.3188,-5.2718,-5.1646,-5.0857,-4.997,-4.9182,-4.8697,-4.8562,-4.8467,-4.8416,-4.8528,-4.8105,-4.7361,-4.6786,-5.339,-5.3206,-5.3206,-5.3206,-5.3206,-5.3206,-5.3206,-5.3206,-5.3206,-5.3206,-5.3206,-5.3206,-5.3206,-5.3206,-5.3206,-5.3206,-5.3206,-5.3206,-5.3206,-5.3206,-5.3206,-5.3206,-5.3206,-5.3206,-5.3206,-5.3206,-5.3206,-5.3206,-5.3206,-5.3206,-5.3206,-5.3206,-5.2986,-5.2858,-5.2711,-5.1793,-5.1059,-5.0453,-4.9664,-4.8893,-4.8398,-4.8324,-4.8324,-4.8324,-4.8324,-4.8324,-4.8324,-4.8324,-4.8324,-4.8324,-4.8324,-4.8324,-4.8324,-4.8324,-4.8324,-4.8324,-4.8324,-4.8324,-4.8324,-4.8324,-4.8324,-4.8324,-4.8324,-4.8324,-4.8324,-4.8324,-4.8838,-4.9793,-5.0417,-5.1224,-5.2197,-5.2876,-5.3151,-5.3206,-5.3206,-5.3206,-5.3206,-5.3206,-5.3206,-5.3206,-5.3206,-5.3206,-5.3206,-5.3206,-5.3206,-5.3206,-5.3206,-5.3206,-5.3206,-5.3206,-5.3206,-5.3206,-5.3206,-5.3206,-5.3206,-5.3206,-5.3206,-5.3206,-5.3206,-5.3206,-5.3206,-5.3206,-5.2462,-5.1424,-5.1104,-5.0366,-4.9531,-4.8883,-4.8984,-4.9057,-4.9023,-4.8897,-4.8673,-4.8182,-4.7725,-5.3518,-5.3206,-5.3206,-5.3206,-5.3206,-5.3206,-5.3206,-5.3206,-5.3206,-5.3206,-5.3206,-5.3206,-5.3206,-5.3206,-5.3206,-5.3206,-5.3206,-5.3206,-5.3206,-5.3206,-5.3206,-5.3206,-5.3206,-5.3206,-5.3206,-5.3206,-5.3206,-5.3206,-5.3206,-5.3206,-5.3206,-5.3206,-5.3206,-5.3206,-5.3133,-5.2417,-5.1793,-5.1169,-5.0215,-4.9315,-4.8875,-4.8471,-4.8324,-4.8324,-4.8324,-4.8324,-4.8324,-4.8324,-4.8324,-4.8324,-4.8324,-4.8324,-4.8324,-4.8324,-4.8324,-4.8324,-4.8324,-4.8324,-4.8324,-4.8324,-4.8324,-4.8324,-4.8324,-4.8324,-4.8324,-4.8324,-4.871,-5.0031,-5.057,-5.1342,-5.2289,-5.2949,-5.317,-5.3206,-5.3206,-5.3206,-5.3206,-5.3206,-5.3206,-5.3206,-5.3206,-5.3206,-5.3206,-5.3206,-5.3206,-5.3206,-5.3206,-5.3206,-5.3206,-5.3206,-5.3206,-5.3206,-5.3206,-5.3206,-5.3206,-5.3206,-5.3206,-5.3206,-5.3206,-5.3206,-5.3206,-5.3127,-5.2383,-5.1665,-5.1345,-5.0776,-4.978,-4.9168,-4.9231,-4.9274,-4.93,-4.9334,-4.9214,-4.8848,-4.8456,-5.3922,-5.3206,-5.3206,-5.3206,-5.3206,-5.3206,-5.3206,-5.3206,-5.3206,-5.3206,-5.3206,-5.3206,-5.3206,-5.3206,-5.3206,-5.3206,-5.3206,-5.3206,-5.3206,-5.3206,-5.3206,-5.3206,-5.3206,-5.3206,-5.3206,-5.3206,-5.3206,-5.3206,-5.3206,-5.3206,-5.3206,-5.3206,-5.3206,-5.3206,-5.3115,-5.2509,-5.2123,-5.172,-5.0729,-4.9884,-4.9444,-4.8893,-4.8545,-4.8324,-4.8324,-4.8324,-4.8324,-4.8324,-4.8324,-4.8324,-4.8324,-4.8324,-4.8324,-4.8324,-4.8324,-4.8324,-4.8324,-4.8324,-4.8324,-4.8324,-4.8324,-4.8324,-4.8324,-4.8324,-4.8324,-4.8343,-4.8875,-5.0251,-5.0704,-5.1547,-5.2771,-5.3206,-5.3206,-5.3206,-5.3206,-5.3206,-5.3206,-5.3206,-5.3206,-5.3206,-5.3206,-5.3206,-5.3206,-5.3206,-5.3206,-5.3206,-5.3206,-5.3206,-5.3206,-5.3206,-5.3206,-5.3206,-5.3206,-5.3206,-5.3206,-5.3206,-5.3206,-5.3206,-5.3206,-5.3206,-5.3206,-5.2999,-5.2401,-5.1927,-5.161,-5.0849,-4.9695,-4.9385,-4.9608,-4.9725,-4.9907,-4.9951,-4.9924,-4.9436,-4.8993,-5.3922,-5.3206,-5.3206,-5.3206,-5.3206,-5.3206,-5.3206,-5.3206,-5.3206,-5.3206,-5.3206,-5.3206,-5.3206,-5.3206,-5.3206,-5.3206,-5.3206,-5.3206,-5.3206,-5.3206,-5.3206,-5.3206,-5.3206,-5.3206,-5.3206,-5.3206,-5.3206,-5.3206,-5.3206,-5.3206,-5.3206,-5.3206,-5.3206,-5.3206,-5.3151,-5.2986,-5.2582,-5.205,-5.1555,-5.0747,-4.9829,-4.9426,-4.8912,-4.8416,-4.8324,-4.8324,-4.8324,-4.8324,-4.8324,-4.8324,-4.8324,-4.8324,-4.8324,-4.8324,-4.8324,-4.8324,-4.8324,-4.8324,-4.8324,-4.8324,-4.8324,-4.8324,-4.8324,-4.8324,-4.8324,-4.8361,-4.8838,-4.9774,-5.042,-5.154,-5.2913,-5.3206,-5.3206,-5.3206,-5.3206,-5.3206,-5.3206,-5.3206,-5.3206,-5.3206,-5.3206,-5.3206,-5.3206,-5.3206,-5.3206,-5.3206,-5.3206,-5.3206,-5.3206,-5.3206,-5.3206,-5.3206,-5.3206,-5.3206,-5.3206,-5.3206,-5.3206,-5.3206,-5.3206,-5.3206,-5.3206,-5.3091,-5.2608,-5.225,-5.2005,-5.1019,-4.9988,-5.0189,-5.0512,-5.0487,-5.0488,-5.0433,-5.0337,-4.9928,-4.9424,-5.361,-5.3225,-5.3206,-5.3206,-5.3206,-5.3206,-5.3206,-5.3206,-5.3206,-5.3206,-5.3206,-5.3206,-5.3206,-5.3206,-5.3206,-5.3206,-5.3206,-5.3206,-5.3206,-5.3206,-5.3206,-5.3206,-5.3206,-5.3206,-5.3206,-5.3206,-5.3206,-5.3206,-5.3206,-5.3206,-5.3206,-5.3206,-5.3206,-5.3206,-5.3206,-5.3206,-5.3004,-5.2582,-5.2142,-5.1499,-5.082,-4.9921,-4.9169,-4.8489,-4.8324,-4.8324,-4.8324,-4.8324,-4.8324,-4.8324,-4.8324,-4.8324,-4.8324,-4.8324,-4.8324,-4.8324,-4.8324,-4.8324,-4.8324,-4.8324,-4.8324,-4.8324,-4.8324,-4.8581,-4.8783,-4.8893,-4.9536,-5.0435,-5.1187,-5.1885,-5.3023,-5.3206,-5.3206,-5.3206,-5.3206,-5.3206,-5.3206,-5.3206,-5.3206,-5.3206,-5.3206,-5.3206,-5.3206,-5.3206,-5.3206,-5.3206,-5.3206,-5.3206,-5.3206,-5.3206,-5.3206,-5.3206,-5.3206,-5.3206,-5.3206,-5.3206,-5.3206,-5.3206,-5.3206,-5.3206,-5.3206,-5.3072,-5.2926,-5.2578,-5.2169,-5.1611,-5.0841,-5.115,-5.128,-5.1321,-5.1287,-5.1096,-5.0841,-5.0558,-4.9933,-5.3316,-5.3206,-5.3206,-5.3206,-5.3206,-5.3206,-5.3206,-5.3206,-5.3206,-5.3206,-5.3206,-5.3206,-5.3206,-5.3206,-5.3206,-5.3206,-5.3206,-5.3206,-5.3206,-5.3206,-5.3206,-5.3206,-5.3206,-5.3206,-5.3206,-5.3206,-5.3206,-5.3206,-5.3206,-5.3206,-5.3206,-5.3206,-5.3206,-5.3206,-5.3206,-5.3206,-5.317,-5.3004,-5.2564,-5.2087,-5.1646,-5.0508,-4.9444,-4.8489,-4.8324,-4.8324,-4.8324,-4.8324,-4.8324,-4.8324,-4.8324,-4.8324,-4.8324,-4.8324,-4.8324,-4.8324,-4.8324,-4.8324,-4.8324,-4.8324,-4.8324,-4.8324,-4.8324,-4.8728,-4.9279,-4.9572,-5.027,-5.1298,-5.2068,-5.2417,-5.3115,-5.3206,-5.3206,-5.3206,-5.3206,-5.3206,-5.3206,-5.3206,-5.3206,-5.3206,-5.3206,-5.3206,-5.3206,-5.3206,-5.3206,-5.3206,-5.3206,-5.3206,-5.3206,-5.3206,-5.3206,-5.3206,-5.3206,-5.3206,-5.3206,-5.3206,-5.3206,-5.3206,-5.3206,-5.3206,-5.3206,-5.3109,-5.2981,-5.2682,-5.2269,-5.1835,-5.1683,-5.1806,-5.1953,-5.2138,-5.2134,-5.191,-5.1611,-5.1241,-5.0369,-5.3812,-5.3206,-5.3206,-5.3206,-5.3206,-5.3206,-5.3206,-5.3206,-5.3206,-5.3206,-5.3206,-5.3206,-5.3206,-5.3206,-5.3206,-5.3206,-5.3206,-5.3206,-5.3206,-5.3206,-5.3206,-5.3206,-5.3206,-5.3206,-5.3206,-5.3206,-5.3206,-5.3206,-5.3206,-5.3206,-5.3206,-5.3206,-5.3206,-5.3206,-5.3206,-5.3206,-5.3206,-5.3206,-5.2968,-5.2637,-5.1995,-5.1022,-4.9811,-4.86,-4.8379,-4.8324,-4.8324,-4.8324,-4.8324,-4.8324,-4.8324,-4.8324,-4.8324,-4.8324,-4.8324,-4.8324,-4.8324,-4.8324,-4.8324,-4.8324,-4.8324,-4.8324,-4.8398,-4.8783,-4.937,-4.9756,-5.0655,-5.1701,-5.2601,-5.3041,-5.317,-5.3206,-5.3206,-5.3206,-5.3206,-5.3206,-5.3206,-5.3206,-5.3206,-5.3206,-5.3206,-5.3206,-5.3206,-5.3206,-5.3206,-5.3206,-5.3206,-5.3206,-5.3206,-5.3206,-5.3206,-5.3206,-5.3206,-5.3206,-5.3206,-5.3206,-5.3206,-5.3206,-5.3206,-5.3206,-5.3206,-5.3206,-5.3036,-5.281,-5.2718,-5.256,-5.2466,-5.2433,-5.2386,-5.2432,-5.2583,-5.2707,-5.2083,-5.1393,-5.077,-5.3555,-5.3225,-5.3206,-5.3206,-5.3206,-5.3206,-5.3206,-5.3206,-5.3206,-5.3206,-5.3206,-5.3206,-5.3206,-5.3206,-5.3206,-5.3206,-5.3206,-5.3206,-5.3206,-5.3206,-5.3206,-5.3206,-5.3206,-5.3206,-5.3206,-5.3206,-5.3206,-5.3206,-5.3206,-5.3206,-5.3206,-5.3206,-5.3206,-5.3206,-5.3206,-5.3206,-5.3206,-5.3206,-5.3188,-5.3023,-5.2491,-5.1463,-5.0123,-4.9242,-4.8508,-4.8343,-4.8324,-4.8324,-4.8324,-4.8324,-4.8324,-4.8324,-4.8324,-4.8324,-4.8324,-4.8324,-4.8324,-4.8324,-4.8324,-4.8324,-4.8324,-4.8361,-4.8655,-4.9352,-5.0068,-5.0692,-5.1334,-5.2307,-5.2821,-5.3206,-5.3206,-5.3206,-5.3206,-5.3206,-5.3206,-5.3206,-5.3206,-5.3206,-5.3206,-5.3206,-5.3206,-5.3206,-5.3206,-5.3206,-5.3206,-5.3206,-5.3206,-5.3206,-5.3206,-5.3206,-5.3206,-5.3206,-5.3206,-5.3206,-5.3206,-5.3206,-5.3206,-5.3206,-5.3206,-5.3206,-5.3035,-5.2992,-5.3078,-5.3048,-5.3054,-5.2871,-5.2956,-5.2827,-5.2785,-5.2736,-5.2877,-5.2831,-5.2177,-5.1544,-5.0876,-5.3206,-5.3206,-5.3206,-5.3206,-5.3206,-5.3206,-5.3206,-5.3206,-5.3206,-5.3206,-5.3206,-5.3206,-5.3206,-5.3206,-5.3206,-5.3206,-5.3206,-5.3206,-5.3206,-5.3206,-5.3206,-5.3206,-5.3206,-5.3206,-5.3206,-5.3206,-5.3206,-5.3206,-5.3206,-5.3206,-5.3206,-5.3206,-5.3206,-5.3206,-5.3206,-5.3206,-5.3206,-5.3206,-5.3206,-5.3188,-5.2637,-5.1573,-5.0417,-4.9609,-4.8746,-4.8324,-4.8324,-4.8324,-4.8324,-4.8324,-4.8324,-4.8324,-4.8324,-4.8324,-4.8324,-4.8324,-4.8324,-4.8324,-4.8324,-4.8324,-4.8416,-4.8691,-4.9205,-4.9994,-5.0967,-5.1701,-5.2454,-5.3059,-5.3206,-5.3206,-5.3206,-5.3206,-5.3206,-5.3206,-5.3206,-5.3206,-5.3206,-5.3206,-5.3206,-5.3206,-5.3206,-5.3206,-5.3206,-5.3206,-5.3206,-5.3206,-5.3206,-5.3206,-5.3206,-5.3206,-5.3206,-5.3206,-5.3206,-5.3206,-5.3206,-5.3206,-5.3206,-5.3206,-5.3206,-5.3206,-5.2948,-5.2699,-5.2781,-5.2917,-5.2791,-5.2663,-5.2944,-5.3188,-5.3054,-5.3017,-5.3127,-5.2999,-5.2572,-5.1808,-5.0981,-5.3206,-5.3206,-5.3206,-5.3206,-5.3206,-5.3206,-5.3206,-5.3206,-5.3206,-5.3206,-5.3206,-5.3206,-5.3206,-5.3206,-5.3206,-5.3206,-5.3206,-5.3206,-5.3206,-5.3206,-5.3206,-5.3206,-5.3206,-5.3206,-5.3206,-5.3206,-5.3206,-5.3206,-5.3206,-5.3206,-5.3206,-5.3206,-5.3206,-5.3206,-5.3206,-5.3206,-5.3206,-5.3206,-5.3206,-5.2894,-5.2215,-5.1334,-5.0435,-4.9664,-4.8838,-4.8324,-4.8324,-4.8324,-4.8324,-4.8324,-4.8324,-4.8324,-4.8324,-4.8324,-4.8324,-4.8324,-4.8324,-4.8324,-4.8324,-4.8434,-4.8691,-4.9169,-4.9627,-5.0417,-5.1555,-5.2454,-5.3004,-5.3133,-5.3206,-5.3206,-5.3206,-5.3206,-5.3206,-5.3206,-5.3206,-5.3206,-5.3206,-5.3206,-5.3206,-5.3206,-5.3206,-5.3206,-5.3206,-5.3206,-5.3206,-5.3206,-5.3206,-5.3206,-5.3206,-5.3206,-5.3206,-5.3206,-5.3206,-5.3206,-5.3206,-5.3206,-5.3206,-5.3206,-5.3042,-5.3042,-5.2672,-5.2376,-5.2454,-5.2461,-5.2354,-5.2358,-5.259,-5.2815,-5.3054,-5.3133,-5.3041,-5.3115,-5.3146,-5.2159,-5.0767,-5.3206,-5.3206,-5.3206,-5.3206,-5.3206,-5.3206,-5.3206,-5.3206,-5.3206,-5.3206,-5.3206,-5.3206,-5.3206,-5.3206,-5.3206,-5.3206,-5.3206,-5.3206,-5.3206,-5.3206,-5.3206,-5.3206,-5.3206,-5.3206,-5.3206,-5.3206,-5.3206,-5.3206,-5.3206,-5.3206,-5.3206,-5.3206,-5.3206,-5.3206,-5.3206,-5.3206,-5.3206,-5.3206,-5.3188,-5.3041,-5.2454,-5.1518,-5.0637,-5.0233,-4.9003,-4.8471,-4.8343,-4.8324,-4.8324,-4.8324,-4.8324,-4.8324,-4.8324,-4.8324,-4.8324,-4.8343,-4.8802,-4.8783,-4.8453,-4.8783,-4.9242,-4.9756,-5.0398,-5.1536,-5.2491,-5.2949,-5.3206,-5.3206,-5.3206,-5.3206,-5.3206,-5.3206,-5.3206,-5.3206,-5.3206,-5.3206,-5.3206,-5.3206,-5.3206,-5.3206,-5.3206,-5.3206,-5.3206,-5.3206,-5.3206,-5.3206,-5.3206,-5.3206,-5.3206,-5.3206,-5.3206,-5.3206,-5.3206,-5.3206,-5.3206,-5.3206,-5.3206,-5.3103,-5.2554,-5.2509,-5.2242,-5.2041,-5.1943,-5.1614,-5.1208,-5.1452,-5.1988,-5.2541,-5.2864,-5.2859,-5.2839,-5.2566,-5.2149,-5.0829,-4.9589,-5.3206,-5.3206,-5.3206,-5.3206,-5.3206,-5.3206,-5.3206,-5.3206,-5.3206,-5.3206,-5.3206,-5.3206,-5.3206,-5.3206,-5.3206,-5.3206,-5.3206,-5.3206,-5.3206,-5.3206,-5.3206,-5.3206,-5.3206,-5.3206,-5.3206,-5.3206,-5.3206,-5.3206,-5.3206,-5.3206,-5.3206,-5.3206,-5.3206,-5.3206,-5.3206,-5.3206,-5.3206,-5.3206,-5.3206,-5.317,-5.2913,-5.1848,-5.1298,-5.0618,-4.9664,-4.8618,-4.86,-4.8361,-4.8324,-4.8324,-4.8324,-4.8324,-4.8324,-4.8324,-4.8508,-4.871,-4.9224,-4.9389,-4.9334,-4.9591,-4.9921,-5.0545,-5.1298,-5.2454,-5.2949,-5.3206,-5.3206,-5.3206,-5.3206,-5.3206,-5.3206,-5.3206,-5.3206,-5.3206,-5.3206,-5.3206,-5.3206,-5.3206,-5.3206,-5.3206,-5.3206,-5.3206,-5.3206,-5.3206,-5.3206,-5.3206,-5.3206,-5.3206,-5.3206,-5.3206,-5.3206,-5.3206,-5.3206,-5.3206,-5.3206,-5.3206,-5.3206,-5.2937,-5.2445,-5.2098,-5.1932,-5.1365,-5.0876,-5.0524,-5.0277,-5.0488,-5.1068,-5.1904,-5.2589,-5.2,-5.1466,-5.1328,-5.0742,-4.9394,-4.8503,-5.3206,-5.3206,-5.3206,-5.3206,-5.3206,-5.3206,-5.3206,-5.3206,-5.3206,-5.3206,-5.3206,-5.3206,-5.3206,-5.3206,-5.3206,-5.3206,-5.3206,-5.3206,-5.3206,-5.3206,-5.3206,-5.3206,-5.3206,-5.3206,-5.3206,-5.3206,-5.3206,-5.3206,-5.3206,-5.3206,-5.3206,-5.3206,-5.3206,-5.3206,-5.3206,-5.3206,-5.3206,-5.3206,-5.3206,-5.3206,-5.2986,-5.2344,-5.1848,-5.1499,-5.0435,-4.9499,-4.9444,-4.893,-4.8526,-4.8526,-4.8655,-4.8526,-4.86,-4.8691,-4.8985,-4.9444,-4.9793,-5.0105,-5.0398,-5.06,-5.1077,-5.1793,-5.2472,-5.3004,-5.3188,-5.3206,-5.3206,-5.3206,-5.3206,-5.3206,-5.3206,-5.3206,-5.3206,-5.3206,-5.3206,-5.3206,-5.3206,-5.3206,-5.3206,-5.3206,-5.3206,-5.3206,-5.3206,-5.3206,-5.3206,-5.3206,-5.3206,-5.3206,-5.3206,-5.3206,-5.3206,-5.3206,-5.3206,-5.3206,-5.3206,-5.3164,-5.3121,-5.2743,-5.2242,-5.1999,-5.1792,-5.1062,-5.0015,-5.0132,-5.0097,-5.0097,-5.0007,-5.0523,-5.0749,-5.0374,-5.0084,-4.9943,-4.9406,-4.8302,-4.7576,-5.3206,-5.3206,-5.3206,-5.3206,-5.3206,-5.3206,-5.3206,-5.3206,-5.3206,-5.3206,-5.3206,-5.3206,-5.3206,-5.3206,-5.3206,-5.3206,-5.3206,-5.3206,-5.3206,-5.3206,-5.3206,-5.3206,-5.3206,-5.3206,-5.3206,-5.3206,-5.3206,-5.3206,-5.3206,-5.3206,-5.3206,-5.3206,-5.3206,-5.3206,-5.3206,-5.3206,-5.3206,-5.3206,-5.3206,-5.3206,-5.3041,-5.2454,-5.1995,-5.1867,-5.1022,-5.038,-5.0288,-5.005,-4.9591,-4.9315,-4.9517,-4.9352,-4.915,-4.9407,-4.9848,-5.0325,-5.0655,-5.1114,-5.1408,-5.1573,-5.1903,-5.2564,-5.3023,-5.3206,-5.3206,-5.3206,-5.3206,-5.3206,-5.3206,-5.3206,-5.3206,-5.3206,-5.3206,-5.3206,-5.3206,-5.3206,-5.3206,-5.3206,-5.3206,-5.3206,-5.3206,-5.3206,-5.3206,-5.3206,-5.3206,-5.3206,-5.3206,-5.3206,-5.3206,-5.317,-5.3109,-5.3017,-5.2999,-5.2919,-5.2919,-5.2937,-5.2999,-5.2463,-5.1988,-5.1574,-5.1178,-5.0183,-4.9419,-4.962,-4.966,-4.932,-4.9176,-4.9037,-4.9005,-4.9012,-4.8819,-4.8584,-4.7874,-4.7056,-4.6677,-5.3206,-5.3206,-5.3206,-5.3206,-5.3206,-5.3206,-5.3206,-5.3206,-5.3206,-5.3206,-5.3206,-5.3206,-5.3206,-5.3206,-5.3206,-5.3206,-5.3206,-5.3206,-5.3206,-5.3206,-5.3206,-5.3206,-5.3206,-5.3206,-5.3206,-5.3206,-5.3206,-5.3206,-5.3206,-5.3206,-5.3206,-5.3206,-5.3206,-5.3206,-5.3206,-5.3206,-5.3206,-5.3206,-5.3206,-5.3206,-5.3096,-5.2711,-5.2399,-5.2289,-5.1573,-5.1206,-5.1041,-5.0765,-5.0196,-4.9903,-4.9866,-4.9994,-4.9958,-5.0105,-5.0637,-5.1169,-5.1646,-5.2068,-5.2289,-5.2435,-5.2601,-5.3041,-5.3151,-5.3206,-5.3206,-5.3206,-5.3206,-5.3206,-5.3206,-5.3206,-5.3206,-5.3206,-5.3206,-5.3206,-5.3206,-5.3206,-5.3206,-5.3206,-5.3206,-5.3206,-5.3206,-5.3206,-5.3206,-5.3206,-5.3206,-5.3206,-5.3206,-5.3206,-5.3206,-5.3109,-5.2999,-5.2889,-5.27,-5.2612,-5.2536,-5.2343,-5.2078,-5.1825,-5.1274,-5.0753,-5.0195,-4.9385,-4.9001,-4.9214,-4.9103,-4.8532,-4.8265,-4.8252,-4.8053,-4.7826,-4.7438,-4.6916,-4.6496,-4.5795,-4.5754,-5.3206,-5.3206,-5.3206,-5.3206,-5.3206,-5.3206,-5.3206,-5.3206,-5.3206,-5.3206,-5.3206,-5.3206,-5.3206,-5.3206,-5.3206,-5.3206,-5.3206,-5.3206,-5.3206,-5.3206,-5.3206,-5.3206,-5.3206,-5.3206,-5.3206,-5.3206,-5.3206,-5.3206,-5.3206,-5.3206,-5.3206,-5.3151,-5.3096,-5.3096,-5.3188,-5.3206,-5.3206,-5.3188,-5.3115,-5.3078,-5.3023,-5.2876,-5.2821,-5.2803,-5.2344,-5.1977,-5.1867,-5.1518,-5.093,-5.0325,-5.0141,-5.016,-5.0105,-5.0031,-5.071,-5.1885,-5.1995,-5.2417,-5.3023,-5.3115,-5.3078,-5.3151,-5.3206,-5.3206,-5.3206,-5.3206,-5.3206,-5.3206,-5.3206,-5.3206,-5.3206,-5.3206,-5.3206,-5.317,-5.317,-5.2968,-5.2931,-5.2926,-5.2871,-5.2926,-5.3072,-5.3206,-5.3206,-5.3206,-5.3206,-5.3206,-5.3206,-5.3206,-5.3206,-5.3091,-5.2981,-5.2634,-5.2435,-5.2135,-5.193,-5.1507,-5.1193,-5.0929,-5.0645,-5.0244,-4.985,-4.9308,-4.9073,-4.9063,-4.8646,-4.8276,-4.7766,-4.7374,-4.6999,-4.6448,-4.5671,-4.512,-4.4732,-4.4732,-4.4902,-5.3206,-5.3206,-5.3206,-5.3206,-5.3206,-5.3206,-5.3206,-5.3206,-5.3206,-5.3206,-5.3206,-5.3206,-5.3206,-5.3206,-5.3206,-5.3206,-5.3206,-5.3206,-5.3206,-5.3206,-5.3206,-5.3206,-5.3206,-5.3206,-5.3206,-5.3206,-5.3206,-5.3206,-5.3206,-5.3206,-5.3206,-5.3151,-5.2876,-5.2747,-5.3059,-5.3151,-5.3023,-5.2491,-5.238,-5.2399,-5.2399,-5.2435,-5.2674,-5.3133,-5.2821,-5.2729,-5.2711,-5.2289,-5.1793,-5.1077,-5.093,-5.0912,-5.0949,-5.0949,-5.1536,-5.2509,-5.2747,-5.2876,-5.2986,-5.2858,-5.2692,-5.2949,-5.3133,-5.3133,-5.3206,-5.3206,-5.3206,-5.3206,-5.3206,-5.3206,-5.3206,-5.3206,-5.3188,-5.3059,-5.2913,-5.2472,-5.2325,-5.2315,-5.2309,-5.2517,-5.2682,-5.2962,-5.3054,-5.3188,-5.3206,-5.3206,-5.3206,-5.3206,-5.3206,-5.3109,-5.2975,-5.2498,-5.2099,-5.1737,-5.1327,-5.0867,-5.0509,-5.03,-5.015,-4.9919,-4.9546,-4.9161,-4.9073,-4.9001,-4.8517,-4.7966,-4.725,-4.651,-4.5699,-4.4987,-4.4727,-4.4587,-4.4626,-4.4626,-4.4677,-5.3206,-5.3206,-5.3206,-5.3206,-5.3206,-5.3206,-5.3206,-5.3206,-5.3206,-5.3206,-5.3206,-5.3206,-5.3206,-5.3206,-5.3206,-5.3206,-5.3206,-5.3206,-5.3206,-5.3206,-5.3206,-5.3206,-5.3206,-5.3206,-5.3206,-5.3206,-5.3206,-5.3206,-5.3206,-5.3206,-5.3206,-5.3078,-5.2674,-5.2637,-5.2711,-5.2435,-5.205,-5.1628,-5.1573,-5.1591,-5.1665,-5.1867,-5.227,-5.2692,-5.2931,-5.317,-5.3188,-5.3096,-5.2858,-5.2197,-5.1775,-5.1628,-5.161,-5.1683,-5.1995,-5.2527,-5.2784,-5.2601,-5.2197,-5.194,-5.1958,-5.2619,-5.2766,-5.2949,-5.3115,-5.3206,-5.3206,-5.3206,-5.3188,-5.3206,-5.3206,-5.3206,-5.3151,-5.3041,-5.2784,-5.2362,-5.2252,-5.2278,-5.1949,-5.2113,-5.2016,-5.2388,-5.2834,-5.3091,-5.3206,-5.3206,-5.3206,-5.3206,-5.3206,-5.3109,-5.2883,-5.2208,-5.1683,-5.1193,-5.0704,-5.0163,-4.988,-4.97,-4.9561,-4.9521,-4.9376,-4.9029,-4.9063,-4.8934,-4.8354,-4.7663,-4.6573,-4.5682,-4.5122,-4.4778,-4.4677,-4.457,-4.457,-4.457,-4.457,-5.3206,-5.3206,-5.3206,-5.3206,-5.3206,-5.3206,-5.3206,-5.3206,-5.3206,-5.3206,-5.3206,-5.3206,-5.3206,-5.3206,-5.3206,-5.3206,-5.3206,-5.3206,-5.3206,-5.3206,-5.3206,-5.3206,-5.3206,-5.3206,-5.3206,-5.3206,-5.3206,-5.3206,-5.3206,-5.3206,-5.3206,-5.3151,-5.2894,-5.2582,-5.2105,-5.1426,-5.0986,-5.0784,-5.0765,-5.0875,-5.1077,-5.1499,-5.1977,-5.2435,-5.2894,-5.3151,-5.3206,-5.3151,-5.2729,-5.2068,-5.1316,-5.1022,-5.0839,-5.0784,-5.1279,-5.172,-5.194,-5.1591,-5.1206,-5.1004,-5.1206,-5.1793,-5.183,-5.2344,-5.2784,-5.2949,-5.2894,-5.3004,-5.3059,-5.3151,-5.3206,-5.3206,-5.3206,-5.3059,-5.2894,-5.2674,-5.2546,-5.2307,-5.177,-5.155,-5.1229,-5.1431,-5.1985,-5.2375,-5.2913,-5.2944,-5.2981,-5.3206,-5.3206,-5.3206,-5.2743,-5.1809,-5.1221,-5.054,-5.0045,-4.9712,-4.9457,-4.9376,-4.9248,-4.9168,-4.9001,-4.9018,-4.9018,-4.8771,-4.8236,-4.7308,-4.5981,-4.5202,-4.4795,-4.457,-4.457,-4.457,-4.457,-4.457,-4.457,-5.3206,-5.3206,-5.3206,-5.3206,-5.3206,-5.3206,-5.3206,-5.3206,-5.3206,-5.3206,-5.3206,-5.3206,-5.3206,-5.3206,-5.3206,-5.3206,-5.3206,-5.3206,-5.3206,-5.3206,-5.3206,-5.3206,-5.3206,-5.3206,-5.3206,-5.3206,-5.3206,-5.3206,-5.3206,-5.3206,-5.3206,-5.317,-5.2692,-5.2252,-5.1591,-5.0637,-5.0196,-4.9921,-4.9921,-5.0178,-5.0582,-5.1022,-5.1665,-5.2417,-5.2949,-5.317,-5.3206,-5.3133,-5.2692,-5.2013,-5.1206,-5.0802,-5.0784,-5.0325,-5.0288,-5.1004,-5.1132,-5.1022,-5.0747,-5.0233,-5.0251,-5.0784,-5.0674,-5.1187,-5.183,-5.2362,-5.238,-5.2729,-5.3023,-5.317,-5.3133,-5.3096,-5.3151,-5.3096,-5.2692,-5.2013,-5.183,-5.1385,-5.089,-5.049,-5.023,-5.0707,-5.122,-5.1954,-5.2454,-5.2559,-5.2736,-5.3036,-5.3206,-5.3206,-5.2657,-5.1671,-5.1124,-5.0597,-4.993,-4.9514,-4.9249,-4.9063,-4.9018,-4.9018,-4.9018,-4.9018,-4.9018,-4.8578,-4.7851,-4.6599,-4.5185,-4.471,-4.457,-4.457,-4.457,-4.457,-4.457,-4.457,-4.457,-5.3206,-5.3206,-5.3206,-5.3206,-5.3206,-5.3206,-5.3206,-5.3206,-5.3206,-5.3206,-5.3206,-5.3206,-5.3206,-5.3206,-5.3206,-5.3206,-5.3206,-5.3206,-5.3206,-5.3206,-5.3206,-5.3206,-5.3206,-5.3206,-5.3206,-5.3206,-5.3206,-5.3206,-5.317,-5.3188,-5.3206,-5.3133,-5.238,-5.1848,-5.1242,-5.0306,-4.9481,-4.9205,-4.915,-4.9407,-4.9848,-5.0453,-5.1463,-5.2179,-5.2692,-5.3096,-5.3036,-5.2907,-5.2417,-5.183,-5.1059,-5.0325,-5.0288,-4.9848,-4.9682,-5.0288,-5.0306,-5.005,-4.9682,-4.9315,-4.9609,-4.9848,-4.9627,-4.9921,-5.0802,-5.1573,-5.2105,-5.2637,-5.2968,-5.3188,-5.3041,-5.2949,-5.3059,-5.317,-5.2142,-5.1114,-5.0652,-5.0226,-4.979,-4.9412,-4.9559,-5.0094,-5.0698,-5.143,-5.2068,-5.2278,-5.2645,-5.3054,-5.3206,-5.3206,-5.2535,-5.1572,-5.1137,-5.0716,-5.0022,-4.9249,-4.8951,-4.8866,-4.9018,-4.9018,-4.9001,-4.8821,-4.872,-4.8132,-4.7352,-4.6129,-4.4936,-4.471,-4.457,-4.457,-4.457,-4.457,-4.457,-4.457,-4.457,-5.3206,-5.3206,-5.3206,-5.3206,-5.3206,-5.3206,-5.3206,-5.3206,-5.3206,-5.3206,-5.3206,-5.3206,-5.3206,-5.3206,-5.3206,-5.3206,-5.3206,-5.3206,-5.3206,-5.3206,-5.3206,-5.3206,-5.3206,-5.3206,-5.3206,-5.3206,-5.317,-5.3096,-5.3059,-5.2931,-5.2839,-5.2986,-5.2197,-5.1536,-5.0912,-5.0068,-4.937,-4.8967,-4.871,-4.871,-4.9077,-4.9829,-5.0784,-5.1132,-5.1995,-5.2797,-5.2608,-5.232,-5.1848,-5.1238,-5.0655,-4.9719,-4.9462,-4.9426,-4.9444,-4.9444,-4.9462,-4.9205,-4.8893,-4.86,-4.8857,-4.8985,-4.882,-4.915,-5.0013,-5.0784,-5.1389,-5.177,-5.2027,-5.2284,-5.2229,-5.2087,-5.2105,-5.1995,-5.1334,-5.0729,-5.0472,-4.9881,-4.9166,-4.8859,-4.8989,-4.9448,-4.9708,-5.0365,-5.1026,-5.1637,-5.2163,-5.2608,-5.2669,-5.2627,-5.2188,-5.1267,-5.0895,-5.0352,-4.9492,-4.8866,-4.8602,-4.8602,-4.8697,-4.8765,-4.8595,-4.8467,-4.8326,-4.7477,-4.6616,-4.5886,-4.5021,-4.4778,-4.457,-4.457,-4.457,-4.457,-4.457,-4.457,-4.457,-5.3206,-5.3206,-5.3206,-5.3206,-5.3206,-5.3206,-5.3206,-5.3206,-5.3206,-5.3206,-5.3206,-5.3206,-5.3206,-5.3206,-5.3206,-5.3206,-5.3206,-5.3206,-5.3206,-5.3206,-5.3206,-5.3206,-5.3206,-5.3206,-5.3206,-5.3206,-5.3133,-5.2821,-5.2399,-5.2215,-5.1958,-5.1481,-5.1096,-5.0875,-5.0655,-4.9866,-4.926,-4.8893,-4.8563,-4.8618,-4.9132,-4.9481,-5.0123,-5.0618,-5.1444,-5.125,-5.114,-5.1078,-5.0289,-4.9519,-4.9687,-4.9221,-4.8673,-4.8655,-4.8636,-4.8618,-4.871,-4.8545,-4.8453,-4.8324,-4.8508,-4.8526,-4.8563,-4.8948,-4.9407,-4.9903,-5.0362,-5.0707,-5.1014,-5.1348,-5.144,-5.1279,-5.1154,-5.0916,-5.0545,-5.0362,-5.0196,-4.9462,-4.8616,-4.8563,-4.8545,-4.8712,-4.8934,-4.9375,-4.9924,-5.0486,-5.0926,-5.1231,-5.1182,-5.1182,-5.1442,-5.0741,-5.0395,-4.9812,-4.8921,-4.8325,-4.802,-4.7784,-4.7699,-4.7868,-4.8105,-4.801,-4.7737,-4.6707,-4.5799,-4.5341,-4.5021,-4.4727,-4.457,-4.457,-4.457,-4.457,-4.457,-4.457,-4.457,-5.3206,-5.3206,-5.3206,-5.3206,-5.3206,-5.3206,-5.3206,-5.3206,-5.3206,-5.3206,-5.3206,-5.3206,-5.3206,-5.3206,-5.3206,-5.3206,-5.3206,-5.3206,-5.3206,-5.3206,-5.3206,-5.3206,-5.3206,-5.3151,-5.3206,-5.317,-5.2729,-5.227,-5.1591,-5.1444,-5.1169,-5.071,-5.0527,-5.0233,-5.0123,-4.9499,-4.9058,-4.8948,-4.8489,-4.8655,-4.915,-4.9389,-4.9701,-5.0215,-5.0446,-5.0235,-5.0114,-5.0125,-4.9531,-4.8938,-4.8948,-4.8836,-4.8453,-4.8398,-4.8361,-4.8361,-4.8361,-4.8324,-4.8324,-4.8324,-4.8324,-4.8324,-4.8324,-4.871,-4.871,-4.9224,-4.9866,-5.0248,-5.0762,-5.1073,-5.0894,-5.0732,-5.0787,-5.0677,-4.9811,-4.9224,-4.9132,-4.882,-4.8434,-4.8416,-4.8416,-4.8434,-4.8748,-4.9266,-4.9743,-5.0002,-5.0336,-5.0369,-5.0222,-4.9673,-4.9956,-4.9871,-4.9271,-4.877,-4.7868,-4.7478,-4.7352,-4.7073,-4.6786,-4.7039,-4.7327,-4.7368,-4.7063,-4.6178,-4.5522,-4.5297,-4.4987,-4.4694,-4.457,-4.457,-4.457,-4.457,-4.457,-4.457,-4.457,-5.3206,-5.3206,-5.3206,-5.3206,-5.3206,-5.3206,-5.3206,-5.3206,-5.3206,-5.3206,-5.3206,-5.3206,-5.3206,-5.3206,-5.3206,-5.3206,-5.3206,-5.3206,-5.3206,-5.3206,-5.3206,-5.3023,-5.2931,-5.2968,-5.2784,-5.2491,-5.2068,-5.1389,-5.0655,-5.0618,-5.0545,-5.038,-4.9939,-4.9426,-4.9187,-4.882,-4.8434,-4.8489,-4.8324,-4.8324,-4.8655,-4.8985,-4.926,-4.9664,-4.9991,-5.0034,-4.9567,-4.9277,-4.8883,-4.8652,-4.8293,-4.843,-4.8361,-4.8324,-4.8324,-4.8324,-4.8324,-4.8324,-4.8324,-4.8324,-4.8324,-4.8324,-4.8324,-4.8324,-4.8361,-4.8691,-4.9334,-4.9738,-5.0251,-5.0362,-5.0163,-5.0089,-5.0163,-5.0126,-4.9095,-4.8398,-4.8361,-4.8343,-4.8324,-4.8324,-4.8324,-4.8324,-4.862,-4.9118,-4.934,-4.9599,-4.9691,-4.9728,-4.953,-4.8713,-4.8374,-4.8029,-4.7425,-4.6907,-4.6703,-4.6522,-4.6384,-4.6269,-4.6051,-4.6329,-4.6532,-4.6532,-4.6304,-4.579,-4.5257,-4.5089,-4.4919,-4.466,-4.457,-4.457,-4.457,-4.457,-4.457,-4.457,-4.457,-5.3206,-5.3206,-5.3206,-5.3206,-5.3206,-5.3206,-5.3206,-5.3206,-5.3206,-5.3206,-5.3206,-5.3206,-5.3206,-5.3206,-5.3206,-5.3151,-5.3023,-5.3059,-5.317,-5.3206,-5.2894,-5.2637,-5.2399,-5.2215,-5.1811,-5.1444,-5.1059,-5.0563,-4.9903,-4.9774,-4.9481,-4.8948,-4.8875,-4.8618,-4.8581,-4.8324,-4.8324,-4.8324,-4.8306,-4.8267,-4.8229,-4.8469,-4.8489,-4.8655,-4.8691,-4.8007,-4.7509,-4.7605,-4.7357,-4.7312,-4.7783,-4.8169,-4.8324,-4.8324,-4.8324,-4.8324,-4.8324,-4.8324,-4.8324,-4.8324,-4.8324,-4.8324,-4.8324,-4.8324,-4.8343,-4.8343,-4.8746,-4.8746,-4.9077,-4.9058,-4.893,-4.8912,-4.8967,-4.8967,-4.8398,-4.8343,-4.8324,-4.8324,-4.8324,-4.8324,-4.8324,-4.8324,-4.8361,-4.862,-4.8601,-4.8748,-4.8712,-4.8636,-4.8056,-4.7464,-4.6969,-4.6399,-4.5818,-4.5739,-4.575,-4.5473,-4.5286,-4.5297,-4.5375,-4.5595,-4.5747,-4.5698,-4.5445,-4.5149,-4.4953,-4.4778,-4.457,-4.457,-4.457,-4.457,-4.457,-4.457,-4.457,-4.457,-4.457]}]]